[[{"header":{"parameterUnit":"m.s-1","parameterCategory":1,"la1":30.6,"la2":29.2853,"lo1":-89.7004,"lo2":-87.6739,"dy":0.0162,"dx":0.0183,"nx":112,"ny":82,"refTime":"2023-02-24T06:00:00:Z","depth":0,"parameterNumber":2,"parameterNumberName":"U-component_of_WINDS"},"data":[0.0,0.0,0.0,0.0,0.0,0.0,0.0,0.0,0.0,0.0,0.0,0.0,0.0,0.0,0.0,0.0,0.0,0.0,0.0,0.0,0.0,0.0,0.0,0.0,0.0,0.0,0.0,0.0,0.0,0.0,0.0,0.0,0.0,0.0,0.0,0.0,0.0,0.0,0.0,0.0,0.0,0.0,0.0,0.0,0.0,0.0,0.0,0.0,0.0,0.0,0.0,0.0,0.0,0.0,0.0,0.0,0.0,0.0,0.0,0.0,0.0,0.0,0.0,0.0,0.0,0.0,0.0,0.0,0.0,0.0,0.0,0.0,0.0,0.0,0.0,0.0,0.0,0.0,0.0,0.0,0.0,0.0,0.0,0.0,0.0,0.0,0.0,0.0,0.0,0.0,0.0,-7.9653,-8.6518,-9.0555,-9.0041,-8.8536,-8.5233,-7.9507,0.0,0.0,0.0,0.0,0.0,0.0,0.0,0.0,0.0,0.0,0.0,0.0,0.0,0.0,0.0,0.0,0.0,0.0,0.0,0.0,0.0,0.0,0.0,0.0,0.0,0.0,0.0,0.0,0.0,0.0,0.0,0.0,0.0,0.0,0.0,0.0,0.0,0.0,0.0,0.0,0.0,0.0,0.0,0.0,0.0,0.0,0.0,0.0,0.0,0.0,0.0,0.0,0.0,0.0,0.0,0.0,0.0,0.0,0.0,0.0,0.0,0.0,0.0,0.0,0.0,0.0,0.0,0.0,0.0,0.0,0.0,0.0,0.0,0.0,0.0,0.0,0.0,0.0,0.0,0.0,0.0,0.0,0.0,0.0,0.0,0.0,0.0,0.0,0.0,0.0,0.0,0.0,0.0,0.0,0.0,0.0,0.0,0.0,0.0,0.0,0.0,0.0,0.0,0.0,-7.7818,-8.5894,-8.9674,-9.1877,-9.2501,-8.7986,-8.4168,-8.1782,0.0,0.0,0.0,0.0,0.0,0.0,0.0,0.0,0.0,0.0,0.0,0.0,0.0,0.0,0.0,0.0,0.0,0.0,0.0,0.0,0.0,0.0,0.0,0.0,0.0,0.0,0.0,0.0,0.0,0.0,0.0,0.0,0.0,0.0,0.0,0.0,0.0,0.0,0.0,0.0,0.0,0.0,0.0,0.0,0.0,0.0,0.0,0.0,0.0,0.0,0.0,0.0,0.0,0.0,0.0,0.0,0.0,0.0,0.0,0.0,0.0,0.0,0.0,0.0,0.0,0.0,0.0,0.0,0.0,0.0,0.0,0.0,0.0,0.0,0.0,0.0,0.0,0.0,0.0,0.0,0.0,0.0,0.0,0.0,0.0,0.0,0.0,0.0,0.0,0.0,0.0,0.0,0.0,0.0,0.0,0.0,0.0,0.0,0.0,0.0,0.0,0.0,0.0,-7.6313,-8.0791,-8.7472,-9.0372,-9.195,-9.2354,-8.7986,-8.4389,-8.2333,-7.7524,0.0,0.0,0.0,0.0,0.0,0.0,0.0,0.0,0.0,0.0,0.0,0.0,0.0,0.0,0.0,0.0,0.0,0.0,0.0,0.0,0.0,0.0,0.0,0.0,0.0,0.0,0.0,0.0,0.0,0.0,0.0,0.0,0.0,0.0,0.0,0.0,0.0,0.0,0.0,0.0,0.0,0.0,0.0,0.0,0.0,0.0,0.0,0.0,0.0,0.0,0.0,0.0,0.0,0.0,0.0,0.0,0.0,0.0,0.0,0.0,0.0,0.0,0.0,0.0,0.0,0.0,0.0,0.0,0.0,0.0,0.0,0.0,0.0,0.0,0.0,0.0,0.0,0.0,0.0,0.0,0.0,0.0,0.0,0.0,0.0,0.0,0.0,0.0,0.0,0.0,0.0,0.0,0.0,0.0,0.0,0.0,0.0,0.0,0.0,0.0,0.0,0.0,-8.0461,-8.3508,-8.85,-9.0702,-9.1803,-9.1803,-8.7766,-8.4352,-8.2333,-7.6497,0.0,0.0,0.0,0.0,0.0,0.0,0.0,0.0,0.0,0.0,0.0,0.0,0.0,0.0,0.0,0.0,0.0,0.0,0.0,0.0,0.0,0.0,0.0,0.0,0.0,0.0,0.0,0.0,0.0,0.0,0.0,0.0,0.0,0.0,0.0,0.0,0.0,0.0,0.0,0.0,0.0,0.0,0.0,0.0,0.0,0.0,0.0,0.0,0.0,0.0,0.0,0.0,0.0,0.0,0.0,0.0,0.0,0.0,0.0,0.0,0.0,0.0,0.0,0.0,0.0,0.0,0.0,0.0,0.0,0.0,0.0,0.0,0.0,0.0,0.0,0.0,0.0,0.0,0.0,0.0,0.0,0.0,0.0,0.0,0.0,0.0,0.0,0.0,0.0,0.0,0.0,0.0,0.0,0.0,0.0,0.0,0.0,0.0,0.0,0.0,0.0,0.0,-8.1782,-8.538,-9.0959,-9.1693,-9.1803,-9.1803,-8.6738,-8.3177,-8.226,-7.5469,0.0,0.0,0.0,0.0,0.0,0.0,0.0,0.0,0.0,0.0,0.0,0.0,0.0,0.0,0.0,0.0,0.0,0.0,0.0,0.0,0.0,0.0,0.0,0.0,0.0,0.0,0.0,0.0,0.0,0.0,0.0,0.0,0.0,0.0,0.0,0.0,0.0,0.0,0.0,0.0,0.0,0.0,0.0,0.0,0.0,0.0,0.0,0.0,0.0,0.0,0.0,0.0,0.0,0.0,0.0,0.0,0.0,0.0,0.0,0.0,0.0,0.0,0.0,0.0,0.0,0.0,0.0,0.0,0.0,0.0,0.0,0.0,0.0,0.0,0.0,0.0,0.0,0.0,0.0,0.0,0.0,0.0,0.0,0.0,0.0,0.0,0.0,0.0,0.0,0.0,0.0,0.0,0.0,0.0,0.0,0.0,0.0,0.0,0.0,0.0,0.0,0.0,-8.1599,-8.538,0.0,-9.151,-9.1583,-9.1106,-8.7288,-8.3911,-8.1599,0.0,0.0,0.0,0.0,0.0,0.0,0.0,0.0,0.0,0.0,0.0,0.0,0.0,0.0,0.0,0.0,0.0,0.0,0.0,0.0,0.0,0.0,0.0,0.0,0.0,0.0,0.0,0.0,0.0,0.0,0.0,0.0,0.0,0.0,0.0,0.0,0.0,0.0,0.0,0.0,0.0,0.0,0.0,0.0,0.0,0.0,0.0,0.0,0.0,0.0,0.0,0.0,0.0,0.0,0.0,0.0,0.0,0.0,0.0,0.0,0.0,0.0,0.0,0.0,0.0,0.0,0.0,0.0,0.0,0.0,0.0,0.0,0.0,0.0,0.0,0.0,0.0,0.0,0.0,0.0,0.0,0.0,0.0,0.0,0.0,0.0,0.0,0.0,0.0,0.0,0.0,0.0,0.0,0.0,0.0,0.0,0.0,0.0,0.0,0.0,0.0,0.0,-7.7635,-8.1232,-8.5049,0.0,-9.0555,-9.0629,-8.9564,-8.6518,-8.3398,-8.0424,0.0,0.0,0.0,0.0,0.0,0.0,0.0,0.0,0.0,0.0,0.0,0.0,0.0,0.0,0.0,0.0,0.0,0.0,0.0,0.0,0.0,0.0,0.0,0.0,0.0,0.0,0.0,0.0,0.0,0.0,0.0,0.0,0.0,0.0,0.0,0.0,0.0,0.0,0.0,0.0,0.0,0.0,0.0,0.0,0.0,0.0,0.0,0.0,0.0,0.0,0.0,0.0,0.0,0.0,0.0,0.0,0.0,0.0,0.0,0.0,0.0,0.0,0.0,0.0,0.0,0.0,0.0,0.0,0.0,0.0,0.0,0.0,0.0,0.0,0.0,0.0,0.0,0.0,0.0,0.0,0.0,0.0,0.0,0.0,0.0,0.0,0.0,0.0,0.0,0.0,0.0,0.0,0.0,0.0,0.0,0.0,0.0,0.0,0.0,0.0,0.0,0.0,-7.687,-8.0833,-8.4646,-8.7839,-8.8904,-8.8721,-8.7105,-8.4022,-8.1158,0.0,0.0,0.0,0.0,0.0,0.0,0.0,0.0,0.0,0.0,0.0,0.0,0.0,0.0,0.0,0.0,0.0,0.0,0.0,0.0,0.0,0.0,0.0,0.0,0.0,0.0,0.0,0.0,0.0,0.0,0.0,0.0,0.0,0.0,0.0,0.0,0.0,0.0,0.0,0.0,0.0,0.0,0.0,0.0,0.0,0.0,0.0,0.0,0.0,0.0,0.0,0.0,0.0,0.0,0.0,0.0,0.0,0.0,0.0,0.0,0.0,0.0,0.0,0.0,0.0,0.0,0.0,0.0,0.0,0.0,0.0,0.0,0.0,0.0,0.0,0.0,0.0,0.0,0.0,0.0,0.0,0.0,0.0,0.0,0.0,0.0,0.0,0.0,0.0,0.0,0.0,0.0,0.0,0.0,0.0,0.0,0.0,0.0,0.0,0.0,0.0,0.0,0.0,-7.613,-8.0534,-8.4205,-8.6297,-8.7729,-8.7692,-8.549,-8.2884,-8.0314,-7.7855,0.0,0.0,0.0,0.0,0.0,0.0,0.0,0.0,0.0,0.0,0.0,0.0,0.0,0.0,0.0,0.0,0.0,0.0,0.0,0.0,0.0,0.0,0.0,0.0,0.0,0.0,0.0,0.0,0.0,0.0,0.0,0.0,0.0,0.0,0.0,0.0,0.0,0.0,0.0,0.0,0.0,0.0,0.0,0.0,0.0,0.0,0.0,0.0,0.0,0.0,0.0,0.0,0.0,0.0,0.0,0.0,0.0,0.0,0.0,0.0,0.0,0.0,0.0,0.0,0.0,0.0,0.0,0.0,0.0,0.0,0.0,0.0,0.0,0.0,0.0,0.0,0.0,0.0,0.0,0.0,0.0,0.0,0.0,0.0,0.0,0.0,0.0,0.0,0.0,0.0,0.0,0.0,0.0,0.0,0.0,0.0,0.0,0.0,0.0,0.0,0.0,0.0,-7.5359,-7.9617,-8.3067,-8.4682,-8.6004,-8.5783,-8.3361,-8.1819,-7.969,-7.654,0.0,0.0,0.0,0.0,0.0,0.0,0.0,0.0,0.0,0.0,0.0,0.0,0.0,0.0,0.0,0.0,0.0,0.0,0.0,0.0,0.0,0.0,0.0,0.0,0.0,0.0,0.0,0.0,0.0,0.0,0.0,0.0,0.0,0.0,0.0,0.0,0.0,0.0,0.0,0.0,0.0,0.0,0.0,0.0,0.0,0.0,0.0,0.0,0.0,0.0,0.0,0.0,0.0,0.0,0.0,0.0,0.0,0.0,0.0,0.0,0.0,0.0,0.0,0.0,0.0,0.0,0.0,0.0,0.0,0.0,0.0,0.0,0.0,0.0,0.0,0.0,0.0,0.0,0.0,0.0,0.0,0.0,0.0,0.0,0.0,0.0,0.0,0.0,0.0,0.0,0.0,0.0,0.0,0.0,0.0,0.0,0.0,0.0,0.0,0.0,0.0,0.0,-7.4698,-7.8405,-8.1489,-8.303,-8.3838,-8.3324,-8.0975,-8.0718,-7.9029,-7.5139,0.0,0.0,0.0,0.0,0.0,0.0,0.0,0.0,0.0,0.0,0.0,0.0,0.0,0.0,0.0,0.0,0.0,0.0,0.0,0.0,0.0,0.0,0.0,0.0,0.0,0.0,0.0,0.0,0.0,0.0,0.0,0.0,0.0,0.0,0.0,0.0,0.0,0.0,0.0,0.0,0.0,0.0,0.0,0.0,0.0,0.0,0.0,0.0,0.0,0.0,0.0,0.0,0.0,0.0,0.0,0.0,0.0,0.0,0.0,0.0,-7.7598,0.0,0.0,0.0,0.0,0.0,0.0,0.0,0.0,0.0,0.0,0.0,0.0,0.0,0.0,0.0,0.0,0.0,0.0,0.0,0.0,0.0,0.0,0.0,0.0,0.0,0.0,0.0,0.0,0.0,0.0,0.0,0.0,0.0,0.0,0.0,0.0,0.0,0.0,0.0,0.0,0.0,-7.4698,-7.7928,-8.0424,-8.1415,-8.1672,-8.1048,-7.925,-7.8479,-7.7163,-7.5065,-7.4294,0.0,0.0,0.0,0.0,0.0,0.0,0.0,0.0,0.0,0.0,0.0,0.0,0.0,0.0,0.0,0.0,0.0,0.0,0.0,0.0,0.0,0.0,0.0,0.0,0.0,0.0,0.0,0.0,0.0,0.0,0.0,0.0,0.0,0.0,0.0,0.0,0.0,0.0,0.0,0.0,0.0,0.0,0.0,0.0,0.0,0.0,0.0,0.0,0.0,0.0,0.0,0.0,0.0,0.0,0.0,0.0,0.0,0.0,0.0,0.0,-7.7928,0.0,0.0,0.0,0.0,0.0,0.0,0.0,0.0,0.0,0.0,0.0,0.0,0.0,0.0,0.0,0.0,0.0,0.0,0.0,0.0,0.0,0.0,0.0,0.0,0.0,0.0,0.0,0.0,0.0,0.0,0.0,0.0,0.0,0.0,0.0,0.0,0.0,0.0,0.0,0.0,-7.4698,-7.7781,-7.9947,-8.0388,-8.0755,-8.0351,-7.8736,-7.8185,-7.7231,-7.5579,-7.4735,0.0,0.0,0.0,0.0,0.0,0.0,0.0,0.0,0.0,0.0,0.0,0.0,0.0,0.0,0.0,0.0,0.0,0.0,0.0,0.0,0.0,0.0,0.0,0.0,0.0,0.0,0.0,0.0,0.0,0.0,0.0,0.0,0.0,0.0,0.0,0.0,0.0,0.0,0.0,0.0,0.0,0.0,0.0,0.0,0.0,0.0,0.0,0.0,0.0,0.0,0.0,0.0,0.0,-8.0094,-8.0498,-8.0681,-8.2003,-8.27,-8.27,-8.0718,-7.9617,-7.9213,0.0,0.0,0.0,0.0,0.0,0.0,0.0,0.0,0.0,0.0,0.0,0.0,0.0,0.0,0.0,0.0,0.0,0.0,0.0,0.0,0.0,0.0,0.0,0.0,0.0,-7.7273,-7.709,0.0,0.0,0.0,0.0,0.0,0.0,0.0,0.0,0.0,0.0,0.0,0.0,-7.4735,-7.7524,-7.9396,-7.9543,-8.0057,-7.9837,-7.8479,-7.8369,-7.7708,-7.6203,-7.5359,-7.4258,0.0,0.0,0.0,0.0,0.0,0.0,0.0,0.0,0.0,0.0,0.0,0.0,0.0,0.0,0.0,0.0,0.0,0.0,0.0,0.0,0.0,0.0,0.0,0.0,0.0,0.0,0.0,0.0,0.0,0.0,0.0,0.0,-7.334,-7.367,0.0,0.0,0.0,0.0,0.0,0.0,0.0,0.0,0.0,0.0,0.0,0.0,0.0,-7.8772,-7.9433,-8.0167,-8.1269,-8.2774,-8.2884,-8.3287,-8.3985,-8.4205,-8.4646,-8.5306,-8.4976,0.0,-8.1672,-8.0975,0.0,0.0,0.0,0.0,0.0,0.0,0.0,0.0,0.0,0.0,0.0,0.0,0.0,0.0,0.0,0.0,0.0,0.0,0.0,0.0,0.0,0.0,-7.6423,-7.7127,-7.7273,-7.7273,0.0,-7.6423,-7.5579,-7.4882,-7.4001,0.0,0.0,0.0,0.0,0.0,0.0,0.0,-7.4808,-7.6497,-7.7928,-7.8662,-7.8185,-7.7677,-7.7494,-7.7457,-7.7084,-7.6166,-7.5359,-7.4478,-7.356,-7.2092,0.0,0.0,0.0,0.0,0.0,0.0,0.0,0.0,0.0,0.0,0.0,0.0,0.0,0.0,0.0,0.0,0.0,0.0,0.0,0.0,0.0,0.0,0.0,0.0,0.0,0.0,0.0,0.0,0.0,-7.2569,-7.4368,-7.4368,-7.4368,-7.4368,0.0,0.0,0.0,0.0,0.0,0.0,0.0,0.0,0.0,-7.9396,-8.0645,-8.1672,-8.248,-8.2847,-8.3618,-8.4756,-8.5233,-8.5637,-8.6004,-8.6885,-8.7509,-8.7876,-8.8316,-8.7655,-8.6004,-8.2957,-8.0718,-7.914,0.0,0.0,0.0,0.0,-7.7604,-7.8038,-7.8038,-7.8038,0.0,-7.8038,0.0,0.0,0.0,0.0,0.0,0.0,0.0,0.0,0.0,0.0,-7.7598,-7.7965,-7.8369,-7.8589,-7.8148,-7.7745,-7.7121,0.0,-7.4551,-7.345,-7.2642,0.0,0.0,0.0,0.0,0.0,-7.4808,-7.7121,-7.8699,-7.8589,-7.8662,-7.8516,-7.8075,-7.7567,-7.7127,-7.6827,-7.5616,-7.4735,-7.4404,-7.2826,-7.1394,0.0,0.0,0.0,0.0,0.0,0.0,0.0,0.0,0.0,0.0,0.0,0.0,0.0,0.0,0.0,0.0,0.0,0.0,0.0,0.0,0.0,0.0,0.0,0.0,0.0,0.0,0.0,0.0,-7.3193,-7.5139,-7.4918,-7.5255,-7.5432,0.0,0.0,0.0,0.0,0.0,0.0,-7.8516,-7.9947,-8.1085,-8.1893,-8.3287,-8.4389,-8.5233,-8.5416,-8.6114,-8.7325,-8.7949,-8.8353,-8.861,-8.9821,-9.0262,-9.0078,-9.0665,-9.0445,-8.9417,-8.538,-8.2663,-8.0865,-7.9433,-7.8704,-7.8552,-7.8552,-7.8956,-7.9507,-7.9507,-7.9507,-7.947,-7.9286,0.0,-7.7567,-7.7347,0.0,0.0,0.0,0.0,-7.7347,-7.7598,-7.8112,-7.8662,-7.8846,-7.936,-7.9617,-7.9029,-7.8919,-7.8405,0.0,-7.5285,-7.4074,-7.3266,0.0,0.0,0.0,0.0,-7.4515,-7.5139,-7.7708,-7.9176,-7.8369,-7.8993,-7.914,-7.8332,-7.7671,-7.7273,-7.7273,-7.5983,-7.5212,-7.5212,-7.367,-7.2055,-7.044,0.0,0.0,0.0,0.0,0.0,0.0,0.0,0.0,0.0,0.0,0.0,0.0,0.0,0.0,0.0,0.0,0.0,0.0,0.0,0.0,0.0,0.0,0.0,0.0,0.0,0.0,0.0,0.0,0.0,-7.4992,-7.6246,0.0,0.0,0.0,0.0,-7.7053,-7.8002,-7.947,-8.1819,-8.2774,-8.3581,-8.4389,-8.5233,-8.6077,-8.6885,-8.7655,-8.9197,-9.151,-9.1546,-9.1987,-9.2794,-9.2868,-9.2464,-9.1693,-9.173,-9.1289,-9.0408,-8.8647,-8.6481,-8.4278,-8.3434,-8.2627,-8.1929,-8.1929,-8.1966,-8.2003,-8.2003,-8.2003,-8.1893,-8.1122,-7.9837,-7.8369,-7.753,-7.7273,0.0,0.0,-7.7273,-7.7494,-7.8332,-7.8552,-7.8772,-7.9543,-7.9764,-7.9764,-7.9727,-7.9727,-7.925,0.0,-7.657,-7.5726,-7.4918,0.0,-7.4478,-7.367,-7.4955,-7.5983,-7.6019,-7.7561,-7.8332,-7.7457,-7.8148,-7.8295,-7.742,-7.731,-7.7273,-7.7273,-7.6533,-7.6056,-7.6056,-7.4478,-7.2899,-7.1256,-7.0477,0.0,0.0,0.0,0.0,0.0,0.0,0.0,0.0,0.0,0.0,0.0,0.0,0.0,0.0,0.0,0.0,0.0,0.0,0.0,0.0,0.0,0.0,0.0,0.0,0.0,0.0,0.0,0.0,-7.8038,-7.947,0.0,0.0,-7.9764,-7.9837,-8.0424,-8.1709,-8.2847,-8.3691,-8.5013,-8.6334,-8.7655,-8.8977,-9.0298,-9.1693,-9.1987,-9.2537,-9.3418,-9.3418,-9.3308,-9.3088,-9.3088,-9.2611,-9.1803,-9.1803,-9.1657,-9.1326,-9.0739,-8.8793,-8.6004,-8.4682,-8.3691,-8.2994,-8.2994,-8.2994,-8.2994,-8.2994,-8.2994,-8.2774,-8.1452,-7.991,-7.8552,-7.8222,-7.7745,-7.742,-7.8002,-7.8148,-7.8332,-7.914,-8.0131,-8.0975,-8.1269,-8.215,-8.259,-8.1562,-8.1342,-8.0865,-7.9213,-7.7818,-7.6644,-7.5799,-7.5249,-7.4808,-7.4515,-7.5395,-7.6093,-7.6093,-7.7561,-7.8479,-7.8185,-7.8405,-7.8479,-7.8185,-7.7604,-7.7273,-7.7273,-7.6056,-7.5322,-7.5322,-7.3303,-7.1651,-7.055,-6.9743,-6.8531,0.0,0.0,0.0,0.0,0.0,0.0,0.0,0.0,0.0,0.0,0.0,0.0,0.0,0.0,0.0,0.0,0.0,0.0,0.0,0.0,0.0,0.0,0.0,0.0,0.0,0.0,-7.98,-8.0901,-8.2443,-8.3287,-8.303,-8.2994,-8.3104,-8.3398,-8.4903,-8.604,-8.6591,-8.8169,-8.9674,-9.1033,-9.2097,-9.3161,-9.4299,-9.4299,-9.4299,-9.4299,-9.4593,-9.4299,-9.3529,-9.3786,-9.3308,-9.2244,-9.2244,-9.206,-9.1803,-9.1803,-9.0555,-8.85,-8.7142,-8.6151,-8.5416,-8.5123,-8.5013,-8.4976,-8.4719,-8.4462,-8.3985,-8.2663,-8.1122,-7.9764,-7.9507,-7.8809,-7.8259,-7.8846,-7.9213,-7.9617,-8.0388,-8.1599,-8.2663,-8.2957,-8.3838,-8.4315,-8.3251,-8.281,-8.2223,-8.0865,-7.9286,-7.7781,-7.668,-7.6313,-7.5983,-7.5395,-7.5983,-7.6497,-7.6497,-7.7745,-7.8479,-7.8185,-7.8405,-7.8479,-7.8185,-7.7378,-7.679,-7.6503,-7.5249,-7.4368,-7.4111,-7.2312,-7.0917,-7.011,-6.9045,-6.7834,-6.6512,0.0,0.0,0.0,0.0,0.0,0.0,0.0,0.0,0.0,0.0,0.0,0.0,0.0,0.0,0.0,0.0,0.0,0.0,0.0,0.0,0.0,0.0,0.0,-7.7237,-7.958,-8.1746,-8.3361,-8.4976,-8.5673,-8.4903,-8.4866,-8.5196,-8.5967,-8.7509,-8.9087,-9.0629,-9.2281,-9.3529,-9.4299,-9.4336,-9.4336,-9.4373,-9.4373,-9.4373,-9.4373,-9.5144,-9.507,-9.4336,-9.507,-9.4556,-9.3051,-9.3051,-9.2574,-9.1803,-9.1803,-9.1803,-9.173,-9.0959,-9.0152,-8.9344,-8.8536,-8.8206,-8.8059,-8.7288,-8.6481,-8.5673,-8.4903,-8.3544,-8.2076,-8.1269,-8.0498,-7.9874,-7.9874,-8.0461,-8.1269,-8.2076,-8.2884,-8.3691,-8.4462,-8.4646,-8.4682,-8.4646,-8.4022,-8.3214,-8.2443,-8.0975,-7.9323,-7.7604,-7.8075,-7.8075,-7.6387,-7.6827,0.0,-7.7273,-7.8038,-7.8259,-7.7384,-7.8075,-7.8222,-7.7347,-7.6533,-7.5726,-7.4955,-7.4111,-7.3266,-7.2496,-7.1688,-7.0844,-7.0036,-6.8495,-6.7283,-6.6512,0.0,0.0,0.0,0.0,0.0,0.0,0.0,0.0,0.0,0.0,0.0,0.0,0.0,0.0,0.0,0.0,0.0,0.0,0.0,0.0,0.0,0.0,-7.8185,-7.8993,-8.2223,-8.5086,-8.6701,-8.883,-9.0041,-8.9821,-9.0408,-9.0849,-9.1069,-9.2024,-9.2831,-9.3272,-9.3712,-9.4336,-9.5144,-9.518,-9.5474,-9.6025,-9.6025,-9.6025,-9.6025,-9.5694,-9.507,-9.4299,-9.3932,-9.3161,-9.217,-9.217,-9.2024,-9.1803,-9.1803,-9.1803,-9.1767,-9.1546,-9.0996,-9.0188,-8.9381,-8.8353,-8.7325,-8.7105,-8.6481,-8.5747,-8.5527,-8.4389,-8.292,-8.2113,-8.1709,-8.1525,-8.1525,-8.2113,-8.292,-8.3728,-8.4535,-8.5196,-8.5416,-8.593,-8.6187,-8.56,-8.4829,-8.4205,-8.3985,-8.2627,-8.0828,-7.8626,-7.8919,-7.8883,-7.7231,-7.7708,0.0,-7.7384,-7.7494,-7.7598,-7.731,-7.7494,-7.753,-7.731,-7.6056,-7.5139,-7.4918,-7.3046,-7.1872,-7.1651,-7.0293,-6.9192,-6.8385,-6.7934,-6.7283,0.0,0.0,0.0,0.0,0.0,0.0,0.0,0.0,0.0,0.0,0.0,0.0,0.0,0.0,0.0,0.0,0.0,0.0,0.0,0.0,0.0,0.0,-7.9323,-8.1232,-8.3067,-8.5306,-8.7655,-8.9968,-9.1473,-9.2464,-9.2794,-9.3308,-9.3602,-9.3602,-9.4336,-9.4813,-9.4813,-9.5107,-9.5364,-9.5511,-9.5511,-9.5731,-9.6208,-9.6208,-9.6025,-9.5694,-9.5914,-9.5217,-9.3786,-9.4006,-9.3455,0.0,-9.2354,-9.2134,-9.1803,-9.1803,-9.1803,0.0,0.0,0.0,0.0,0.0,-8.9124,-8.7986,-8.7619,-8.7215,-8.6738,-8.6407,-8.5453,-8.4315,-8.3838,-8.3471,-8.3214,-8.3214,-8.3765,-8.4499,-8.4976,-8.571,-8.6297,-8.6297,-8.6664,-8.6885,-8.6407,-8.5673,-8.5013,-8.4682,-8.3581,0.0,-7.9947,-7.969,-7.936,-7.8038,-7.7965,-7.7892,-7.7347,-7.7273,-7.7273,-7.7273,-7.7273,-7.7273,-7.7273,-7.5806,0.0,0.0,0.0,-7.0513,-6.9816,-6.8898,0.0,0.0,0.0,-6.7981,-6.7504,0.0,0.0,0.0,-6.71,-6.71,0.0,0.0,0.0,0.0,0.0,0.0,0.0,0.0,0.0,0.0,0.0,0.0,0.0,0.0,0.0,0.0,-8.2223,-8.4939,-8.8169,-8.8683,-8.9821,-9.2758,-9.3272,-9.3639,-9.4373,-9.452,-9.4556,-9.4556,-9.5254,-9.5658,-9.5658,0.0,0.0,0.0,0.0,-9.5584,-9.5511,-9.5584,-9.518,-9.4299,-9.5731,-9.5327,-9.3272,-9.452,-9.4373,-9.3088,-9.3015,-9.2501,-9.1803,-9.1803,-9.1803,-9.1803,-9.1803,-9.173,-9.1583,-9.0849,-9.0115,-8.9307,-8.85,0.0,0.0,-8.7252,-8.6518,-8.593,-8.582,-8.5343,-8.4866,-8.4756,-8.5306,-8.593,-8.593,-8.6481,-8.6995,-8.6995,-8.6921,-8.6885,-8.6995,-8.6297,-8.549,-8.4866,-8.4022,-8.2994,-8.1636,-8.0645,-7.9764,-7.8883,-7.8148,-7.7677,-7.7567,-7.7494,-7.742,-7.742,0.0,0.0,-7.7273,-7.5806,-7.4294,-7.2863,-7.1174,-6.9559,-6.8017,-6.7944,-6.7944,-6.7944,-6.8678,-6.9045,-6.9045,-6.9669,-7.0073,-7.0183,-6.8678,-6.8715,0.0,0.0,0.0,0.0,0.0,0.0,0.0,0.0,0.0,0.0,0.0,0.0,0.0,0.0,0.0,-8.2076,-8.4756,-8.7472,-9.0702,-9.173,-9.2391,-9.3015,-9.4263,-9.5107,-9.5254,-9.5841,-9.6245,-9.6245,-9.6392,-9.6465,-9.6465,-9.6612,0.0,-9.6465,-9.6465,-9.6171,-9.5511,-9.6135,-9.5731,-9.4299,0.0,0.0,-9.4042,-9.2978,-9.2721,-9.3051,-9.2354,-9.195,-9.1803,-9.1803,-9.1803,-9.1803,-9.1803,-9.14,-9.0812,-9.0665,-9.0115,-8.9307,-8.85,-8.8206,-8.8059,-8.7252,-8.6885,-8.6664,-8.6004,-8.6151,0.0,-8.5747,-8.6151,-8.6775,-8.6775,-8.6885,-8.6995,-8.6995,-8.6518,-8.6224,-8.6885,-8.5857,-8.4976,-8.5453,-8.4389,-8.3508,-8.3838,-8.27,-8.1232,-7.9764,-7.9984,-8.0057,-7.9396,-7.8736,-7.8369,-7.8369,-7.7745,-7.7273,-7.7273,-7.5806,-7.4771,-7.4478,-7.2349,-7.066,-6.9669,-6.9633,-6.9633,-6.9633,-6.9779,-6.9853,-6.9853,-6.9376,-6.9816,-7.1064,-7.0073,-6.9779,0.0,0.0,0.0,0.0,0.0,0.0,0.0,0.0,0.0,0.0,0.0,-7.4918,0.0,0.0,-8.1562,-8.5233,-8.7509,-8.9674,-9.2134,-9.3529,-9.4299,-9.4299,-9.5034,-9.5658,-9.6061,-9.6465,-9.6685,-9.6685,-9.6685,-9.6685,-9.6685,-9.6685,-9.6539,-9.6098,-9.6098,-9.5914,-9.5511,-9.5914,-9.5474,-9.4299,-9.5107,-9.485,-9.3675,-9.3235,-9.3051,-9.3051,-9.217,-9.1803,-9.1803,-9.1803,-9.1803,-9.1803,-9.1803,-9.1546,-9.1216,-9.1216,-9.0959,-9.0445,-8.9234,-8.8793,-8.861,-8.7399,-8.6995,-8.6921,-8.6518,-8.6701,-8.6921,-8.6518,-8.6701,-8.6995,-8.6995,-8.6995,-8.6995,-8.6995,-8.6701,-8.6518,-8.6921,-8.6371,-8.582,-8.5783,-8.4829,-8.4132,-8.4535,-8.3251,-8.1929,-8.1122,-8.0645,-8.0094,-7.9286,-7.9176,-7.8883,-7.8038,-7.7965,-7.7781,-7.7347,-7.5806,-7.4735,-7.4331,-7.2789,-7.1725,-7.1321,-7.0917,-7.0697,-7.0697,-7.0697,-7.0697,-7.0697,-7.0293,-7.0485,-7.1256,-7.0477,-7.033,0.0,0.0,0.0,0.0,0.0,0.0,0.0,0.0,-7.2753,-7.4515,-7.6019,-7.7818,-8.0277,-8.259,-8.5049,-8.7949,-8.9931,-9.162,-9.3125,-9.4593,-9.5584,-9.5731,-9.5731,-9.5988,-9.6649,-9.6685,-9.6685,-9.6685,-9.6685,-9.6685,-9.6685,-9.6685,-9.6392,-9.5768,-9.5731,-9.5658,-9.5511,-9.5658,-9.5254,-9.4299,-9.5621,-9.5217,-9.3345,-9.3675,-9.3529,-9.3051,-9.217,-9.1803,-9.1803,-9.1803,-9.1803,-9.1803,-9.1803,-9.1803,-9.1767,-9.162,-9.1657,-9.1546,-8.9784,-8.9235,-8.9125,-8.7545,-8.6995,-8.6995,-8.6995,-8.6995,-8.6995,-8.6995,-8.6995,-8.7031,-8.7215,-8.7252,-8.7252,-8.7252,-8.7105,-8.6995,-8.6995,-8.6885,-8.6591,-8.593,-8.527,-8.4829,-8.4829,-8.3508,-8.2443,-8.2443,-8.1195,-8.0021,-7.936,-7.9727,-7.9507,-7.8154,-7.8369,-7.8259,-7.7347,-7.6099,-7.5028,-7.4221,-7.356,-7.312,-7.2973,-7.2202,-7.1798,-7.1798,-7.1615,-7.1513,-7.1513,-7.1366,-7.1366,-7.1541,-7.0403,-7.0293,-6.7467,-6.6769,-6.721,-6.8458,-6.9376,-7.055,0.0,0.0,-7.624,-7.8626,-7.9837,-8.1195,-8.3618,-8.5453,-8.7178,-8.8942,-9.1289,-9.3125,-9.4042,-9.496,-9.5768,-9.6502,-9.6575,-9.6612,-9.6685,-9.6685,-9.6685,-9.6685,-9.6685,-9.6685,-9.6685,-9.6685,-9.6649,-9.6575,-9.6575,-9.6208,-9.5511,-9.6208,-9.5804,-9.4299,-9.4483,-9.441,-9.4116,-9.2721,-9.2464,-9.3051,-9.217,-9.1803,-9.1803,-9.1803,-9.1803,-9.1803,-9.1803,-9.1803,-9.1693,-9.0996,-9.1179,-9.1473,-8.9124,-8.8793,-8.9125,-8.7545,-8.6995,-8.6995,-8.6995,-8.6995,-8.6995,-8.6995,-8.6995,-8.7178,-8.7876,-8.8059,-8.8059,-8.8059,-8.7509,-8.6995,-8.6995,-8.6444,-8.5894,-8.582,-8.571,-8.5673,-8.5673,-8.4315,-8.3287,-8.3287,-8.2517,-8.1893,-8.1819,-8.1232,-8.0791,-8.0608,-7.9396,-7.8259,-7.7347,-7.7127,-7.6717,-7.5873,-7.5763,-7.5395,-7.4661,-7.3854,-7.3413,-7.3413,-7.2716,-7.2386,-7.2349,-7.1651,-7.1688,-7.2312,-7.0073,-6.9486,-6.8274,-6.7907,0.0,0.0,-7.1248,-7.2826,-7.5249,-7.7451,-7.9396,-8.0865,-8.2957,-8.4939,-8.6407,-8.839,-9.0188,0.0,-9.3235,-9.463,-9.496,-9.529,-9.5474,-9.5327,-9.529,-9.5658,-9.6612,-9.6685,-9.6685,-9.6685,-9.6685,-9.6685,-9.6685,-9.6685,-9.6685,-9.6685,-9.6685,-9.6539,-9.6208,-9.6539,-9.5878,-9.4299,-9.4777,-9.452,-9.3565,-9.2868,-9.2464,-9.2317,-9.195,-9.1803,-9.1803,-9.1803,-9.1803,-9.1803,-9.1803,-9.1803,-9.1767,-9.1436,-9.151,-9.1583,-9.0115,-8.9528,-8.9198,-8.8096,-8.7692,-8.7692,-8.7692,-8.8023,-8.8426,-8.8426,-8.8059,-8.7766,-8.8096,-8.7839,-8.7509,-8.7509,-8.7252,-8.6995,-8.6995,-8.6738,-8.6518,-8.6518,-8.5747,-8.5233,-8.571,-8.4058,-8.2884,-8.3361,-8.2737,-8.2039,-8.1562,-8.1636,-8.1525,-8.1048,-7.9543,-7.8442,-7.8112,-7.7567,-7.7163,-7.6827,-7.6827,-7.668,-7.6283,-7.5065,-7.4404,-7.4404,-7.3156,-7.2496,-7.2496,-7.1688,-7.1248,-7.1064,-6.9596,-6.9082,-6.8715,0.0,0.0,-7.2129,-7.4184,-7.6276,-7.8479,-8.0901,-8.2957,-8.3985,-8.6224,-8.8243,-8.905,-9.0629,0.0,-9.2978,-9.4263,-9.518,-9.518,-9.518,-9.4703,-9.3418,-9.3088,-9.3492,-9.4887,-9.5658,-9.6135,-9.6355,-9.6392,-9.6465,-9.6685,-9.6685,-9.6612,-9.6392,-9.6575,-9.6502,-9.6025,-9.6245,-9.5658,-9.4299,-9.4666,-9.4226,-9.3088,-9.2868,-9.2391,-9.1803,-9.1803,-9.1803,-9.1803,-9.1803,-9.1803,-9.1803,-9.1803,-9.1803,-9.1803,-9.1803,-9.1803,-9.162,-9.0372,-8.9858,-8.9564,-8.8536,-8.8353,-8.8536,-8.8536,-8.894,-8.9382,-8.9382,-8.8977,-8.8536,-8.8536,-8.8096,-8.7619,-8.7399,-8.7325,-8.7288,-8.7068,-8.6995,-8.6995,-8.6995,-8.6077,-8.538,-8.5747,-8.4352,-8.3324,-8.3691,-8.3067,-8.2223,-8.1415,-8.1819,-8.1893,-8.1085,-7.9764,-7.8846,-7.8626,-7.7818,-7.7273,-7.7273,-7.7273,-7.7273,-7.7273,-7.5983,-7.5249,-7.5249,-7.367,-7.2826,-7.2826,-7.2018,-7.1321,-7.0734,-6.9926,-6.9559,0.0,0.0,-7.2018,-7.5175,-7.8405,-8.1232,-8.2847,-8.5086,-8.7288,-8.8831,-8.9895,-9.0739,-9.1546,-9.173,-9.2097,-9.2978,-9.3786,-9.4336,-9.4336,-9.4336,-9.3418,-9.0996,-9.0041,-8.9895,0.0,-9.2941,-9.4703,-9.5474,-9.5547,-9.5878,-9.6649,-9.6685,-9.6355,-9.5584,-9.6282,-9.5951,-9.4373,-9.5144,-9.5144,-9.4299,-9.3529,-9.3161,-9.3088,-9.2207,-9.184,-9.1803,-9.1803,-9.1803,-9.1803,-9.1803,-9.1803,-9.1803,-9.1803,-9.1803,-9.1803,-9.1803,-9.1803,-9.1473,-8.9087,-8.9271,-9.0298,-8.872,-8.872,-8.9345,-8.9345,-8.9345,-8.9382,-8.9382,-8.9345,-8.9345,-8.9345,-8.9345,-8.916,-8.8353,-8.8169,-8.7949,-8.7178,-8.6995,-8.6995,-8.6995,-8.6958,-8.6701,-8.593,-8.5747,-8.5416,-8.4682,-8.3875,-8.3067,-8.226,-8.2186,-8.1893,-8.1085,-8.0241,-7.9433,-7.8662,-7.7818,-7.7273,-7.7273,-7.7273,-7.7273,-7.7273,-7.6497,-7.6056,-7.6056,-7.4478,-7.367,-7.367,-7.2863,-7.2459,-7.2422,-7.1615,-7.1219,0.0,0.0,-7.5395,-7.9213,-8.1782,-8.3948,-8.6114,-8.8059,-8.9417,-8.9417,-8.8353,-8.7325,-8.7068,-8.7472,-8.8096,-8.894,-9.1987,-9.4299,-9.4299,-9.4299,-9.2978,-8.9417,-8.9271,0.0,0.0,0.0,0.0,-9.5327,-9.5511,-9.5878,-9.6649,-9.6208,-9.5804,-9.5511,-9.5254,-9.485,-9.4299,-9.4556,-9.4299,-9.3492,-9.2648,-9.2244,-9.2244,-9.1913,-9.1803,-9.1803,-9.1803,-9.1803,-9.1803,-9.1803,-9.1803,-9.1803,-9.1803,-9.1803,-9.1803,-9.1803,-9.1473,-9.0959,-9.0702,-9.0592,-9.0519,-8.9968,-8.9968,-9.0225,-9.0225,-9.0592,-9.0996,-9.0996,-9.0629,-9.0225,-9.0225,-8.9821,-8.9234,-8.839,-8.8206,-8.7986,-8.7178,-8.6995,-8.6995,-8.6995,-8.6591,-8.6114,-8.5857,-8.5343,-8.4903,-8.4646,-8.3911,-8.3104,-8.2296,-8.2186,-8.2113,-8.1819,-8.1085,-8.0277,-7.9433,-7.8626,-7.7928,-7.7347,-7.7273,-7.7273,-7.7273,-7.6533,-7.6093,-7.6093,-7.5028,-7.4221,-7.3707,-7.3413,-7.2753,-7.1725,-7.1431,-7.1293,0.0,-7.5616,-7.9543,-8.303,-8.5343,-8.7142,-8.872,-8.9858,-9.0298,-8.9197,-8.7068,-8.5049,-8.3948,-8.3911,-8.4352,-8.5159,-8.8169,-9.0812,-9.195,-9.162,-9.0372,-8.8059,-8.7986,0.0,0.0,0.0,0.0,-9.3932,-9.4189,-9.4666,-9.5768,-9.5364,-9.496,-9.4666,-9.441,-9.4006,-9.3418,-9.3712,-9.3455,-9.2648,-9.206,-9.1803,-9.1803,-9.1803,-9.1803,-9.1803,-9.1803,-9.1803,-9.1803,-9.1803,-9.1803,-9.1803,-9.1803,-9.162,-9.14,-9.1693,-9.1289,-9.0665,-9.1179,-9.1033,-9.0592,-9.0592,-9.0812,-9.1033,-9.1033,-9.14,-9.1803,-9.1803,-9.1436,-9.0959,-9.0665,-9.0225,-8.9638,-8.883,-8.8426,-8.8059,-8.7545,-8.7215,-8.6995,-8.6995,-8.6591,-8.6151,-8.5857,-8.538,-8.4939,-8.4646,-8.4168,-8.3654,-8.3104,-8.281,-8.2627,-8.2627,-8.1379,-8.0351,-7.9837,-7.8772,-7.7892,-7.7347,-7.7273,-7.7273,-7.7273,-7.6827,-7.6533,-7.6533,-7.5763,-7.4918,-7.4147,-7.3817,-7.301,-7.1725,-7.1725,-7.1725,-7.6276,-8.0466,-8.4168,-8.6591,-8.8904,-9.0592,-9.0592,-9.0555,-9.0005,-8.8316,-8.5894,-8.3618,0.0,0.0,-8.1012,-8.1929,-8.2994,-8.4829,-8.7949,-8.7105,-8.6371,0.0,0.0,0.0,0.0,0.0,0.0,-9.151,0.0,-9.2537,-9.4263,-9.4263,-9.3896,-9.3198,-9.3822,-9.3418,-9.1803,-9.2611,-9.2611,-9.1803,-9.1803,-9.1803,-9.1803,-9.1803,-9.1803,-9.1803,-9.1803,-9.1803,-9.1803,-9.1803,-9.1803,-9.1803,-9.1803,-9.1326,-9.0739,-9.151,-9.1289,-9.0629,-9.0665,-9.0665,-9.0665,-9.0665,-9.1179,-9.1803,-9.1803,-9.1803,-9.1803,-9.1803,-9.1803,-9.162,-9.0849,-9.0665,-9.0482,-8.9674,-8.8904,-8.8316,-8.8206,-8.7619,-8.7068,-8.7031,-8.6995,-8.6775,-8.5967,-8.5857,-8.56,-8.4829,-8.4719,-8.4646,-8.4499,-8.3801,-8.3361,-8.3361,-8.1305,-7.991,-7.9837,-7.8369,-7.7384,-7.7347,-7.731,-7.7273,-7.7273,-7.7273,-7.7273,-7.7273,-7.657,-7.5763,-7.4955,-7.4184,-7.3413,-7.2642,-7.2569,-7.2569,-7.9947,-8.3471,-8.6664,-8.9087,-9.0152,-9.0592,-9.0592,-8.9674,-8.8023,-8.5196,-8.0755,-7.69,0.0,0.0,0.0,-7.9984,-8.4609,0.0,-9.0592,-9.1106,0.0,0.0,0.0,-8.8023,-8.6811,-8.7435,0.0,0.0,-9.151,-9.2831,-9.507,-9.4079,-9.3602,-9.3969,-9.2978,-9.2244,-9.1803,-9.2024,-9.2024,-9.1803,-9.1803,-9.1803,-9.1803,-9.1803,-9.1803,-9.1803,-9.1803,-9.1803,-9.1803,-9.1803,-9.1803,-9.1803,-9.1803,-9.1657,-9.151,-9.173,-9.1289,-9.0702,-9.1289,-9.1473,-9.1473,-9.1473,-9.162,-9.1803,-9.1803,-9.1803,-9.1803,-9.1803,-9.1803,-9.173,-9.1546,-9.1473,-9.1289,-9.0482,-9.0152,-8.9674,-8.8463,-8.8059,-8.7729,-8.7142,-8.6995,-8.6921,-8.6738,-8.6701,-8.6628,-8.6444,-8.6407,-8.5527,-8.3104,-8.2627,-8.2517,-8.2517,-8.1966,-8.1342,-8.0755,-7.9764,-7.8919,-7.8295,-7.7671,-7.7273,-7.7273,-7.7273,-7.7273,-7.7273,-7.709,-7.6607,-7.5799,-7.5579,-7.5065,-7.4294,-7.367,-7.3377,-8.3838,-8.6664,-8.9014,-9.0702,-9.0849,-9.0225,-8.883,-8.7252,-8.4866,-8.0571,-7.6276,0.0,0.0,0.0,0.0,0.0,0.0,0.0,-8.9271,-8.9821,-8.9748,0.0,-8.9674,0.0,-8.8206,-8.8793,-8.9638,0.0,-9.1033,-9.206,-9.3786,-9.3015,-9.2721,-9.3198,-9.2281,-9.1803,-9.1803,-9.1803,-9.1803,-9.1803,-9.1803,-9.1803,-9.1803,-9.1803,-9.1803,-9.1803,0.0,-9.1803,-9.1803,-9.1803,-9.1803,-9.1803,-9.1803,-9.1583,-9.1326,-9.1657,-9.1289,-9.0739,-9.151,-9.1803,-9.1803,-9.1803,-9.1546,-9.1326,-9.1693,-9.1803,-9.1803,-9.1803,-9.1803,-9.1803,-9.1803,-9.1803,-9.1693,-9.1216,-9.0592,-8.9858,-8.894,-8.8169,-8.7545,-8.7105,-8.6995,-8.6995,-8.6995,-8.6995,-8.6885,-8.6518,-8.6481,-8.5673,-8.3544,-8.3251,-8.3104,-8.2774,-8.2076,-8.1489,-8.1048,-8.0241,-7.9433,-7.8662,-7.8148,-7.7708,-7.731,-7.7273,-7.7273,-7.7273,-7.7273,-7.687,-7.6093,-7.6093,-7.5689,-7.4882,-7.4074,-7.3891,-8.7802,-8.9968,-9.1253,-9.1803,-9.1216,-8.9601,-8.6371,-8.4058,-8.1048,-7.5579,0.0,0.0,-6.8862,0.0,-7.2129,-7.5065,0.0,-8.2003,-8.6958,-8.7031,-8.7619,-9.0445,-9.0776,-9.0482,-8.9821,-9.0372,-9.0776,-9.0776,-9.0776,-9.1106,-9.1913,-9.184,-9.1803,-9.1803,-9.1803,-9.1803,-9.1803,-9.1803,-9.1803,-9.1803,-9.1803,-9.1803,-9.1803,-9.1803,-9.1803,-9.1803,0.0,0.0,-9.1803,-9.1803,-9.1803,-9.1803,-9.1803,-9.1363,-9.0849,-9.1546,-9.1363,-9.0849,-9.1546,-9.173,-9.1657,-9.1767,-9.1326,-9.0886,-9.1583,-9.1803,-9.1803,-9.1803,-9.1803,-9.1803,-9.1803,-9.1803,-9.1803,-9.1803,-9.0739,-8.9639,-8.9419,-8.8169,-8.6995,-8.6995,-8.6995,-8.6995,-8.6995,-8.6995,-8.6775,-8.604,-8.5967,-8.5673,-8.4866,-8.4572,-8.4168,-8.3471,-8.2076,-8.1158,-8.1158,-8.0424,-7.9653,-7.8956,-7.8699,-7.8259,-7.7494,-7.7347,-7.7273,-7.7273,-7.7273,-7.6943,-7.6276,-7.6276,-7.5909,-7.5212,-7.4404,-7.4404,-9.151,-9.2941,-9.3529,-9.3015,-9.1253,-8.8793,-8.5527,-8.1452,0.0,0.0,0.0,-6.8017,-6.71,0.0,0.0,-7.8002,0.0,0.0,0.0,0.0,-9.0959,0.0,0.0,0.0,0.0,0.0,0.0,0.0,0.0,0.0,-9.2831,-9.217,-9.1803,-9.1803,-9.1803,-9.1803,-9.1803,-9.1803,-9.1803,-9.1803,-9.1803,-9.1803,-9.1803,-9.1803,-9.1803,-9.1803,-9.1803,0.0,-9.1803,-9.1803,-9.1803,-9.1803,-9.1803,-9.1693,-9.162,-9.173,-9.1693,-9.162,-9.173,-9.1363,-9.0922,-9.1583,-9.1693,-9.162,-9.1767,-9.1803,-9.1803,-9.1803,-9.1803,-9.1803,-9.1803,-9.1803,-9.1803,-9.1803,-9.1583,-9.1033,-8.9675,-8.8169,-8.6995,-8.6995,-8.6995,-8.6995,-8.6995,-8.6995,-8.6958,-8.6811,-8.6811,-8.6518,-8.571,-8.4425,-8.3581,-8.3434,-8.2553,-8.2003,-8.2003,-8.1232,-8.0718,-8.0608,-7.9323,-7.8516,-7.8369,-7.7708,-7.7273,-7.7273,-7.7273,-7.7237,-7.709,-7.709,-7.7017,-7.6833,-7.6056,-7.5763,-9.3161,-9.4006,-9.4116,-9.3308,-9.0922,-8.7619,-8.3104,0.0,0.0,0.0,0.0,-6.6953,-6.6549,0.0,0.0,0.0,0.0,0.0,0.0,0.0,0.0,0.0,0.0,0.0,0.0,0.0,0.0,0.0,0.0,0.0,-9.2391,-9.2024,-9.1803,-9.1803,-9.1803,-9.1803,-9.1803,-9.1803,-9.1803,-9.1803,-9.1803,-9.1803,-9.1803,-9.1803,-9.1803,-9.1803,-9.1803,0.0,-9.1803,-9.1803,-9.1803,-9.1803,-9.1803,-9.1803,-9.1803,-9.1803,-9.1803,-9.1803,-9.1803,-9.1546,-9.1289,-9.1657,-9.151,-9.1253,-9.1657,-9.1803,-9.1803,-9.1803,-9.1803,-9.1803,-9.1803,-9.1803,-9.1803,-9.1803,-9.1473,-9.0739,-8.9124,-8.85,-8.8023,-8.7178,-8.7362,-8.7509,-8.7068,-8.6995,-8.6995,-8.6995,-8.6995,-8.6885,-8.6481,-8.538,-8.4352,-8.3508,-8.27,-8.2186,-8.2186,-8.1856,-8.1269,-8.0424,-7.9653,-7.8809,-7.7965,-7.7494,-7.7273,-7.7273,-7.7273,-7.7273,-7.7273,-7.7273,-7.7273,-7.7273,-7.6497,-7.6313,-9.4153,-9.4666,-9.4593,-9.3602,-9.0629,-8.6518,-8.1012,-7.6864,0.0,0.0,0.0,0.0,0.0,0.0,0.0,0.0,0.0,0.0,0.0,0.0,0.0,0.0,0.0,0.0,0.0,0.0,0.0,0.0,0.0,0.0,-9.1803,-9.1803,-9.1803,-9.1803,-9.1803,-9.1803,-9.1803,-9.1803,-9.1803,-9.1803,-9.1803,-9.1803,-9.1803,-9.1803,-9.1693,-9.1546,-9.173,0.0,0.0,-9.173,-9.1803,-9.1803,-9.1803,-9.1803,-9.1803,-9.1803,-9.1803,-9.1803,-9.1803,-9.1803,-9.1803,-9.1803,-9.1363,-9.0996,-9.162,-9.1803,-9.1803,-9.1803,-9.1803,-9.1803,-9.1803,-9.1803,-9.1803,-9.1803,-9.1179,-9.0262,-8.8977,-8.894,-8.8793,-8.7509,-8.7619,-8.7729,-8.7105,-8.6995,-8.6995,-8.6995,-8.6995,-8.6995,-8.6995,-8.6297,-8.5306,-8.4058,-8.303,-8.2443,-8.2443,-8.2296,-8.1599,-8.0131,-7.9874,-7.914,-7.764,-7.7384,-7.7273,-7.7273,-7.7273,-7.7273,-7.7273,-7.7273,-7.7273,-7.7273,-7.6644,-7.6717,-9.5144,-9.5914,-9.6098,-9.4556,-9.0629,-8.582,-8.0901,0.0,0.0,0.0,0.0,0.0,0.0,0.0,0.0,0.0,0.0,0.0,0.0,0.0,0.0,0.0,0.0,0.0,0.0,0.0,0.0,0.0,0.0,0.0,0.0,-9.1803,-9.1803,-9.1803,-9.1803,-9.1803,-9.1803,-9.1803,-9.1803,-9.1803,-9.1803,-9.1803,-9.1803,-9.1803,-9.14,-9.0739,-9.1473,0.0,0.0,-9.151,-9.1803,-9.1803,-9.1803,-9.1803,-9.1803,-9.1803,-9.1803,-9.1803,-9.1803,-9.1803,-9.1803,-9.1803,-9.173,-9.1693,-9.1767,-9.1803,-9.1803,-9.1803,-9.1803,-9.1803,-9.1803,-9.1803,-9.1803,-9.1803,-9.1179,-9.0555,-9.0408,-8.9307,-8.828,-8.8133,-8.7582,-8.7105,-8.7031,-8.6995,-8.6995,-8.6995,-8.6995,-8.6995,-8.6995,-8.6297,-8.5747,-8.56,-8.4205,-8.3287,-8.3287,-8.2627,-8.1819,-8.0938,-8.0204,-7.9396,-7.8516,-7.7745,-7.7273,-7.7273,-7.7273,-7.7273,-7.7273,-7.7273,-7.7273,-7.7273,-7.72,-7.7237,-9.5364,-9.6795,-9.7052,-9.5437,-9.0629,-8.5123,-8.0791,0.0,0.0,-6.7797,-6.721,-6.721,0.0,0.0,0.0,0.0,0.0,0.0,0.0,0.0,0.0,0.0,0.0,0.0,0.0,0.0,0.0,0.0,0.0,0.0,0.0,-9.1803,-9.1803,-9.1803,-9.1803,-9.1803,-9.1803,-9.1803,-9.1803,-9.1803,-9.1803,-9.1803,-9.1803,-9.1803,-9.1363,-9.0629,-9.1436,0.0,0.0,-9.1473,-9.1803,-9.1803,-9.1803,-9.1803,-9.1803,-9.1803,-9.1803,-9.1803,-9.1803,-9.1803,-9.1803,-9.1803,-9.1803,-9.1803,-9.1803,-9.1803,-9.1803,-9.1803,-9.1803,-9.1803,-9.1803,-9.1803,-9.1803,-9.1803,-9.1546,-9.1069,-9.0115,-8.9748,-8.9234,-8.7766,-8.7619,-8.7582,-8.7105,-8.6995,-8.6995,-8.6995,-8.6995,-8.6995,-8.6995,-8.6738,-8.6518,-8.6518,-8.5086,-8.3948,-8.3471,-8.3104,-8.237,-8.1085,-8.0241,-7.9653,-7.9323,-7.8038,-7.753,-7.8075,-7.7598,-7.7273,-7.7273,-7.7273,-7.7273,-7.7273,-7.7273,-7.7273,-9.3565,-9.6025,-9.7163,-9.5547,-9.0445,-8.4756,0.0,0.0,0.0,-6.8201,-6.7687,-6.7687,-6.7687,0.0,0.0,0.0,0.0,0.0,0.0,0.0,0.0,0.0,0.0,0.0,0.0,0.0,0.0,0.0,0.0,0.0,0.0,-9.1803,-9.1803,-9.1803,-9.1803,-9.1803,-9.1803,-9.1803,-9.1803,-9.1803,-9.1803,-9.1803,-9.1803,-9.1546,-9.1033,-9.0298,0.0,0.0,0.0,-9.1363,-9.1803,-9.1803,-9.1803,-9.1803,-9.1803,-9.1803,-9.1803,-9.1803,-9.1803,-9.1803,-9.1803,-9.1803,-9.1803,-9.1803,-9.1803,-9.1803,-9.1803,-9.1803,-9.1803,-9.1803,-9.1803,-9.1803,-9.173,-9.151,-9.1436,-9.1069,-8.9711,-8.9674,-8.9381,-8.7692,-8.7619,-8.7655,-8.7105,-8.6995,-8.6995,-8.6995,-8.6995,-8.6995,-8.6995,-8.6995,-8.6995,-8.6995,-8.6004,-8.4903,-8.3838,-8.3544,-8.2737,-8.1122,-8.0461,-8.0021,-7.98,-7.8662,-7.8222,-7.8589,-7.8002,-7.753,-7.7273,-7.7273,-7.7273,-7.7273,-7.7273,-7.7273,-8.9271,-9.3015,-9.6318,-9.4703,-9.0005,-8.4756,0.0,0.0,0.0,0.0,-6.7687,-6.7687,0.0,0.0,0.0,0.0,0.0,0.0,0.0,0.0,0.0,0.0,0.0,0.0,0.0,0.0,0.0,0.0,0.0,0.0,0.0,-9.1803,-9.1803,-9.1803,-9.1803,-9.1803,-9.1803,-9.1803,-9.1803,-9.1803,-9.1803,-9.1803,-9.1767,-9.0996,-9.0188,0.0,0.0,0.0,0.0,-9.1143,-9.1803,-9.1803,-9.1803,-9.1803,-9.1803,-9.1803,-9.1803,-9.1803,-9.1803,-9.1803,-9.1803,-9.1803,-9.1803,-9.1803,-9.1803,-9.1803,-9.1803,-9.1803,-9.1803,-9.1803,-9.1803,-9.1803,-9.1583,-9.0812,-9.0629,-9.0408,-8.9565,-8.8793,-8.8206,-8.8206,-8.7545,-8.7031,-8.6995,-8.6995,-8.6995,-8.6995,-8.6995,-8.6995,-8.6995,-8.6995,-8.6995,-8.6995,-8.6995,-8.6334,-8.4719,-8.3875,-8.2737,-8.1122,-8.1012,-8.0645,-7.98,-7.9764,-7.9396,-7.8626,-7.8589,-7.8185,-7.7273,-7.7273,-7.7273,-7.7273,-7.7273,-7.7273,-8.5159,-8.7655,-8.9014,-8.7949,-8.4242,-8.0094,-7.7121,0.0,0.0,0.0,0.0,0.0,0.0,0.0,0.0,0.0,0.0,0.0,0.0,0.0,0.0,0.0,0.0,0.0,0.0,0.0,0.0,0.0,0.0,0.0,0.0,-9.1803,-9.1803,-9.1803,-9.1803,-9.1803,-9.1803,-9.1803,-9.1803,-9.1803,-9.1803,-9.1803,-9.1767,-9.0959,0.0,0.0,0.0,0.0,0.0,-9.1143,-9.1803,-9.1803,-9.1803,-9.1803,-9.1803,-9.1803,-9.1803,-9.1803,-9.1803,-9.1803,-9.1803,-9.1803,-9.1803,-9.1803,-9.1803,-9.1803,-9.1803,-9.1803,-9.1803,-9.1803,-9.1803,-9.1803,-9.173,-9.1473,-9.1436,-9.1216,-9.0408,-8.9601,-8.8867,-8.8316,-8.7545,-8.6995,-8.6995,-8.6995,-8.7215,-8.7729,-8.7362,-8.7215,-8.7766,-8.7362,-8.6995,-8.6995,-8.6995,-8.6371,-8.4756,-8.4389,-8.3544,-8.1929,-8.1305,-8.1122,-8.1415,-8.0351,-7.9947,-8.0241,-7.969,-7.9286,-7.8993,-7.8479,-7.7892,-7.7273,-7.7273,-7.7273,0.0,-8.3544,-8.5159,-8.4352,-8.1342,0.0,0.0,0.0,0.0,0.0,0.0,0.0,0.0,0.0,0.0,0.0,0.0,0.0,0.0,0.0,0.0,0.0,0.0,0.0,0.0,0.0,0.0,0.0,0.0,0.0,0.0,-9.1803,-9.1803,-9.1803,-9.1803,-9.1803,-9.1803,-9.1803,-9.1803,-9.1803,-9.1803,-9.1803,-9.1767,-9.0665,0.0,0.0,0.0,0.0,0.0,-9.1143,-9.1803,-9.1803,-9.1803,-9.1803,-9.1803,-9.1803,-9.1803,-9.1803,-9.1803,-9.1803,-9.1803,-9.1803,-9.1803,-9.1803,-9.1803,-9.1803,-9.1803,-9.1803,-9.1803,-9.1803,-9.1803,-9.1803,-9.173,-9.1436,-9.1363,-9.1143,-9.0335,-8.9784,-8.9235,-8.8757,-8.8243,-8.7912,-8.7912,-8.7912,-8.8096,-8.8573,-8.8243,-8.8096,-8.861,-8.8243,-8.7912,-8.7912,-8.7655,-8.6921,-8.5637,-8.5233,-8.4499,-8.3177,-8.237,-8.215,-8.2627,-8.1379,-8.0791,-8.1012,-8.0498,-8.0094,-7.98,-7.8993,-7.8332,-7.7781,-7.742,-7.7273,0.0,0.0,0.0,0.0,0.0,0.0,0.0,0.0,0.0,0.0,0.0,0.0,0.0,0.0,0.0,0.0,0.0,0.0,0.0,0.0,0.0,0.0,0.0,0.0,0.0,0.0,0.0,0.0,0.0,0.0,0.0,-9.1803,-9.1803,-9.1803,-9.173,-9.173,-9.1803,-9.1803,-9.1767,-9.1693,-9.1693,-9.1693,-9.1657,-9.0115,0.0,0.0,0.0,0.0,0.0,-9.1143,-9.1803,-9.1803,-9.1803,-9.1803,-9.1803,-9.1803,-9.1803,-9.1803,-9.1803,-9.1803,-9.1803,-9.1803,-9.1803,-9.1803,-9.1803,-9.1803,-9.1803,-9.1803,-9.1803,-9.1803,-9.1803,-9.1803,-9.162,-9.0849,-9.0702,-9.0482,-8.9748,-8.9455,-8.9382,-8.9382,-8.9345,-8.9344,-8.9344,-8.9345,-8.9419,-8.9455,-8.9419,-8.9419,-8.9455,-8.9419,-8.9382,-8.9382,-8.8683,-8.7912,-8.7142,-8.6297,-8.5453,-8.4646,-8.3911,-8.3471,-8.3398,-8.27,-8.1893,-8.1122,-8.1085,-8.0681,-7.9874,-7.9066,-7.8662,-7.8589,-7.7708,-7.7273,0.0,0.0,0.0,0.0,0.0,0.0,0.0,0.0,0.0,0.0,0.0,0.0,0.0,0.0,0.0,0.0,0.0,0.0,0.0,0.0,0.0,0.0,0.0,0.0,0.0,0.0,0.0,0.0,0.0,0.0,0.0,-9.1803,-9.1803,-9.1803,-9.1216,-9.1179,-9.1803,-9.1803,-9.1473,-9.0886,-9.0886,-9.0886,-9.0849,-8.9858,0.0,0.0,0.0,0.0,-8.9492,-9.1143,-9.1803,-9.1803,-9.1803,-9.1803,-9.1803,-9.1803,-9.1803,-9.1803,-9.1803,-9.1803,-9.1803,-9.1803,-9.1803,-9.1803,-9.1803,-9.1803,-9.1803,-9.1803,-9.1803,-9.1803,-9.1803,-9.1803,-9.173,-9.1546,-9.151,-9.1473,-9.1289,-9.0298,-8.9382,-8.9382,-8.8904,-8.85,-8.85,-8.9014,-8.9638,-9.0225,-8.9821,-8.9638,-9.0262,-8.9784,-8.9382,-8.9382,-8.8683,-8.8133,-8.7949,-8.6628,-8.5453,-8.4646,-8.4425,-8.4058,-8.3434,-8.3214,-8.2737,-8.1929,-8.1929,-8.1525,-8.0718,-7.991,-7.9176,-7.8589,-7.7708,-7.7273,0.0,0.0,0.0,0.0,0.0,0.0,0.0,0.0,0.0,0.0,0.0,0.0,0.0,0.0,0.0,0.0,0.0,0.0,0.0,0.0,0.0,0.0,0.0,0.0,0.0,0.0,0.0,0.0,0.0,0.0,0.0,-9.1803,-9.1803,-9.1803,-9.1363,-9.1363,-9.1803,-9.1436,-9.1033,-9.0592,-9.0592,-9.0592,-9.0555,-8.9381,-8.9271,0.0,0.0,0.0,-8.9492,-9.1143,-9.1363,-9.0776,-9.151,-9.1583,-9.1289,-9.1657,-9.1803,-9.1803,-9.1803,-9.1803,-9.1803,-9.1803,-9.1803,-9.1803,-9.1803,-9.1803,-9.1803,-9.1803,-9.1803,-9.1803,-9.1803,-9.1803,-9.1803,-9.1803,-9.1803,-9.1803,-9.1803,-9.1106,-9.0519,-9.0519,-9.0152,-8.9858,-8.9858,-9.0225,-9.0665,-9.1106,-9.0776,-9.0665,-9.1106,-9.0776,-9.0519,-9.0519,-8.9784,-8.916,-8.8793,-8.7619,-8.6554,-8.5747,-8.5343,-8.4976,-8.4535,-8.4168,-8.3581,-8.2774,-8.2737,-8.237,-8.1562,-8.0351,-7.958,-7.9103,-7.7892,-7.7273,0.0,0.0,0.0,0.0,0.0,0.0,0.0,0.0,0.0,0.0,0.0,0.0,0.0,0.0,0.0,0.0,0.0,0.0,0.0,0.0,0.0,0.0,0.0,0.0,0.0,0.0,0.0,0.0,0.0,0.0,0.0,-9.1803,-9.1803,-9.1803,-9.1546,-9.1473,-9.162,-9.1069,-9.0665,-9.0445,-9.0445,-9.0372,-9.0188,-8.883,-8.9014,0.0,0.0,0.0,-8.9492,-9.0886,-9.0629,-8.9529,-9.0922,-9.1106,-9.0665,-9.1216,-9.151,-9.162,-9.162,-9.1693,-9.1803,-9.1803,-9.1803,-9.1803,-9.1803,-9.1803,-9.1803,-9.1803,-9.1803,-9.1803,-9.1803,-9.1803,-9.1803,-9.1803,-9.1803,-9.1803,-9.1803,-9.1693,-9.162,-9.162,-9.162,-9.162,-9.162,-9.173,-9.1803,-9.1803,-9.1803,-9.1803,-9.1803,-9.1803,-9.1803,-9.1803,-9.1069,-9.0298,-8.9455,-8.8683,-8.7876,-8.7068,-8.6371,-8.593,-8.5783,-8.5013,-8.4278,-8.3618,-8.3471,-8.3067,-8.237,-8.0755,-7.9984,-7.991,-7.8295,-7.7494,-7.2496,-7.301,0.0,0.0,0.0,0.0,0.0,0.0,0.0,0.0,0.0,0.0,0.0,0.0,0.0,0.0,0.0,0.0,0.0,0.0,0.0,0.0,0.0,0.0,0.0,0.0,0.0,0.0,0.0,0.0,0.0,0.0,-9.1803,-9.1803,-9.0482,-9.0115,-9.0776,-9.1326,-9.0922,-8.9565,-8.9565,-8.9234,-8.8573,-8.8316,-8.872,0.0,0.0,-8.9382,-8.9419,-8.9674,-8.9638,-8.9419,-8.9674,-9.0115,-9.0555,-8.9968,-9.0225,-9.0776,-9.0776,-9.1216,-9.1803,-9.1803,-9.1803,-9.1803,-9.1803,-9.1803,-9.1803,-9.1803,-9.1803,-9.1803,-9.1803,-9.1803,-9.1803,-9.1803,-9.1803,-9.1803,-9.1803,-9.1253,-9.0776,-9.0776,-9.0776,-9.0776,-9.0776,-9.1363,-9.1803,-9.1803,-9.1803,-9.1803,-9.1803,-9.1803,-9.1803,-9.1803,-9.1069,-9.0298,-8.9455,-8.8683,-8.7876,-8.7068,-8.6885,-8.6518,-8.582,-8.5013,-8.4535,-8.4425,-8.3765,-8.3361,-8.3214,-8.1599,-8.0828,-8.0791,-7.914,-7.8405,-7.2496,-7.2789,-7.3083,0.0,0.0,0.0,0.0,0.0,0.0,0.0,0.0,0.0,0.0,0.0,0.0,0.0,0.0,0.0,0.0,0.0,0.0,0.0,0.0,0.0,0.0,0.0,0.0,0.0,0.0,0.0,0.0,0.0,-9.1363,-9.1803,-9.0262,-9.0005,-9.1253,-9.0739,-8.9931,-8.8757,-8.8757,-8.8573,-8.8206,-8.7766,-8.8243,-8.9345,0.0,-8.8757,-8.8793,-8.9198,-8.8868,-8.8206,-8.9087,-8.9381,-8.9307,-8.9381,-8.9931,-9.0592,-9.0592,-9.1143,-9.1803,-9.1803,-9.1803,-9.1803,-9.1803,-9.1803,-9.1803,-9.1803,-9.1803,-9.1803,-9.1803,-9.1803,-9.1803,-9.1803,-9.1803,-9.1803,-9.1803,-9.151,-9.1253,-9.1253,-9.1253,-9.1253,-9.1253,-9.1546,-9.1803,-9.1803,-9.1803,-9.1803,-9.1803,-9.1803,-9.1803,-9.1803,-9.1473,-9.0922,-9.0115,-8.9711,-8.8793,-8.7105,-8.6995,-8.6848,-8.6481,-8.6077,-8.571,-8.527,-8.4903,-8.4278,-8.3398,-8.2223,-8.1415,-8.0975,-7.98,-7.925,-7.2496,-7.2642,-7.2936,0.0,0.0,0.0,0.0,0.0,0.0,0.0,0.0,0.0,0.0,0.0,0.0,0.0,0.0,0.0,0.0,0.0,0.0,0.0,0.0,0.0,0.0,0.0,0.0,0.0,0.0,0.0,0.0,0.0,-9.0812,-9.1216,-8.9858,-8.9711,-9.0922,-8.9564,-8.872,-8.85,-8.828,-8.8096,-8.7912,-8.7288,-8.7802,-8.9087,-8.828,-8.8023,-8.8243,-8.8683,-8.8133,-8.7142,-8.839,-8.8463,-8.8023,-8.883,-8.9638,-9.0335,-9.0335,-9.0959,-9.1803,-9.1803,-9.1803,-9.1803,-9.1803,-9.1803,-9.1803,-9.1803,-9.1803,-9.1803,-9.1803,-9.1803,-9.1803,-9.1803,-9.1803,-9.1803,-9.1803,-9.1803,-9.1803,-9.1803,-9.1803,-9.1803,-9.1803,-9.1803,-9.1803,-9.1803,-9.1803,-9.1803,-9.1803,-9.1803,-9.1803,-9.1803,-9.1803,-9.1473,-9.0665,-9.0262,-8.9271,-8.7399,-8.7105,-8.6995,-8.6995,-8.6995,-8.6701,-8.6077,-8.5894,-8.5196,-8.3985,-8.3141,-8.2333,-8.1562,-8.0718,-8.0241,-7.2496,-7.3046,-7.3634,-7.367,0.0,0.0,0.0,0.0,0.0,0.0,0.0,0.0,0.0,0.0,0.0,0.0,0.0,0.0,0.0,0.0,0.0,0.0,0.0,0.0,0.0,0.0,0.0,0.0,0.0,0.0,0.0,0.0,0.0,-8.9601,-8.8757,-8.8353,-8.8463,-8.7619,-8.7912,-8.9272,-8.8573,-8.7802,-8.7105,-8.7031,-8.7472,-8.8243,-8.7435,-8.7509,-8.8133,-8.7472,-8.7105,-8.7031,-8.7142,-8.7142,-8.7178,-8.7986,-8.8793,-8.9455,-8.9455,-9.0519,-9.1803,-9.1803,-9.1803,-9.1803,-9.1803,-9.1803,-9.1803,-9.1803,-9.1803,-9.1803,-9.1803,-9.1803,-9.1803,-9.1803,-9.1803,-9.1803,-9.1803,-9.1803,-9.1803,-9.1803,-9.1803,-9.1803,-9.1803,-9.1803,-9.1803,-9.1803,-9.1803,-9.1803,-9.1803,-9.1803,-9.1803,-9.1803,-9.1803,-9.1473,-9.0665,-8.9234,-8.8316,-8.8133,-8.7435,-8.6995,-8.6995,-8.6995,-8.6995,-8.6921,-8.6187,-8.5747,-8.5637,-8.4829,-8.4022,-8.3214,-8.2406,-8.1636,-7.2496,-7.3083,-7.3817,-7.4331,0.0,0.0,0.0,0.0,0.0,0.0,0.0,0.0,0.0,0.0,0.0,0.0,0.0,0.0,0.0,0.0,0.0,0.0,0.0,0.0,0.0,0.0,0.0,0.0,0.0,0.0,0.0,0.0,0.0,-8.9382,-8.8133,-8.7949,-8.894,-8.7655,-8.7582,-8.8647,-8.7839,-8.7288,-8.6995,-8.6995,-8.7178,-8.7435,-8.7142,-8.7178,-8.7435,-8.7142,-8.6995,-8.6995,-8.6995,-8.6995,-8.7031,-8.7362,-8.7986,-8.872,-8.9234,-9.0152,-9.1143,-9.1657,-9.1803,-9.1803,-9.1803,-9.1803,-9.1803,-9.1803,-9.1803,-9.1803,-9.1803,-9.1803,-9.1803,-9.1803,-9.1803,-9.1803,-9.1803,-9.1803,-9.1803,-9.1803,-9.1803,-9.1803,-9.1803,-9.1803,-9.1803,-9.1803,-9.1803,-9.1803,-9.1803,-9.1803,-9.1803,-9.1803,-9.1803,-9.1693,-9.1363,-8.9858,-8.8977,-8.8977,-8.7729,-8.6995,-8.6995,-8.6995,-8.6995,-8.6995,-8.6701,-8.6297,-8.5783,-8.549,-8.4682,-8.3398,-8.3104,-8.2517,-7.2496,-7.2899,0.0,0.0,0.0,0.0,0.0,0.0,0.0,0.0,0.0,0.0,0.0,0.0,0.0,0.0,0.0,0.0,0.0,0.0,0.0,0.0,0.0,0.0,0.0,0.0,0.0,0.0,0.0,0.0,0.0,0.0,0.0,0.0,-8.7582,-8.7545,-8.8647,-8.7582,-8.7288,-8.7802,-8.7031,-8.6775,-8.6995,-8.6481,-8.6518,-8.6995,-8.6738,-8.6775,-8.6995,-8.6995,-8.6995,-8.6995,-8.6995,-8.6995,-8.6995,-8.6995,-8.7509,-8.828,-8.883,-8.9711,-9.0702,-9.1253,-9.1583,-9.1803,-9.1803,-9.1803,-9.1803,-9.1803,-9.1803,-9.1803,-9.1803,-9.1803,-9.1803,-9.1803,-9.1803,-9.1803,-9.1803,-9.1803,-9.1803,-9.1803,-9.1803,-9.1803,-9.1803,-9.1803,-9.1803,-9.1803,-9.1803,-9.1803,-9.1803,-9.1803,-9.1803,-9.1803,-9.1803,-9.1693,-9.1436,-9.0188,-8.9307,-8.905,-8.7766,-8.6995,-8.6995,-8.6995,-8.6995,-8.6995,-8.6995,-8.6738,-8.6187,-8.6187,-8.549,-8.4168,-8.3911,-8.3361,-7.2496,-7.2496,0.0,0.0,0.0,0.0,0.0,0.0,0.0,0.0,0.0,0.0,0.0,0.0,0.0,0.0,0.0,0.0,0.0,0.0,0.0,0.0,0.0,0.0,0.0,0.0,0.0,0.0,0.0,0.0,0.0,0.0,0.0,0.0,-8.6995,-8.6995,-8.6995,-8.6995,-8.6995,-8.6995,-8.6151,-8.6224,-8.6958,-8.5343,-8.549,-8.6958,-8.6151,-8.6261,-8.6995,-8.6995,-8.6995,-8.6995,-8.6995,-8.6995,-8.7031,-8.6995,-8.7509,-8.8206,-8.8206,-8.9234,-9.0592,-9.0592,-9.1143,-9.1803,-9.1803,-9.1803,-9.1803,-9.1803,-9.1803,-9.1803,-9.1803,-9.1803,-9.1803,-9.1803,-9.1803,-9.1803,-9.1803,-9.1803,-9.1803,-9.1803,-9.1803,-9.1803,-9.1803,-9.1803,-9.1803,-9.1803,-9.1803,-9.1803,-9.1803,-9.1803,-9.1803,-9.1803,-9.1803,-9.1473,-9.0702,-8.9895,-8.9087,-8.828,-8.7472,-8.7031,-8.6995,-8.6995,-8.6995,-8.6995,-8.6995,-8.6995,-8.6995,-8.6995,-8.6591,-8.5783,-8.4976,-8.4168,-7.2496,0.0,0.0,0.0,0.0,0.0,0.0,0.0,0.0,0.0,0.0,0.0,0.0,0.0,0.0,0.0,0.0,0.0,0.0,0.0,0.0,0.0,0.0,0.0,0.0,0.0,0.0,0.0,0.0,0.0,0.0,0.0,0.0,0.0,-8.6995,-8.6738,-8.6151,-8.6151,-8.5857,-8.5306,-8.4499,-8.5123,-8.6958,-8.5343,-8.549,-8.6921,-8.5563,-8.5416,-8.6151,-8.6151,-8.6481,-8.6995,-8.6995,-8.7362,-8.7766,-8.7215,-8.7509,-8.8206,-8.8206,-8.8904,-8.9858,-9.0445,-9.1143,-9.1803,-9.1803,-9.1803,-9.1803,-9.1803,-9.1803,-9.1803,-9.1803,-9.1803,-9.1803,-9.1803,-9.1803,-9.1803,-9.1803,-9.1803,-9.1803,-9.1803,-9.1803,-9.1803,-9.1803,-9.1803,-9.1803,-9.1803,-9.1803,-9.1803,-9.1803,-9.1803,-9.1803,-9.1803,-9.1803,-9.1693,-9.1473,-9.0188,-8.9564,-8.9858,-8.861,-8.7582,-8.7031,-8.6995,-8.6995,-8.6995,-8.6995,-8.6995,-8.6995,-8.6995,-8.6591,-8.5783,-8.4976,-8.4168,-7.2973,0.0,0.0,0.0,0.0,0.0,0.0,0.0,0.0,0.0,0.0,0.0,0.0,0.0,0.0,0.0,0.0,0.0,0.0,0.0,0.0,0.0,0.0,0.0,0.0,0.0,0.0,0.0,0.0,0.0,0.0,0.0,0.0,0.0,-8.604,-8.582,-8.5306,-8.5306,-8.5086,-8.4609,-8.3801,-8.4352,-8.6004,-8.4389,-8.4535,-8.6004,-8.5343,-8.5343,-8.582,-8.6151,-8.6554,-8.6995,-8.6995,-8.7325,-8.7655,-8.7178,-8.7325,-8.7729,-8.7729,-8.8463,-8.9455,-8.9968,-9.0886,-9.1803,-9.1803,-9.1803,-9.1803,-9.1803,-9.1803,-9.1803,-9.1803,-9.1803,-9.1803,-9.1803,-9.1803,-9.1803,-9.1803,-9.1803,-9.1803,-9.1803,-9.1803,-9.1803,-9.1803,-9.1803,-9.1803,-9.1803,-9.1803,-9.1803,-9.1803,-9.1803,-9.1803,-9.1803,-9.1803,-9.1657,-9.1363,-9.0445,-8.9968,-9.0115,-8.9234,-8.8463,-8.7986,-8.7949,-8.7802,-8.7472,-8.7472,-8.7325,-8.6995,-8.6995,-8.6775,-8.6261,-8.5453,-8.4829,0.0,0.0,0.0,0.0,0.0,0.0,0.0,0.0,0.0,0.0,0.0,0.0,0.0,0.0,0.0,0.0,0.0,0.0,0.0,0.0,0.0,0.0,0.0,0.0,0.0,0.0,0.0,0.0,0.0,0.0,0.0,0.0,0.0,-8.4609,-8.4609,-8.4535,-8.4389,-8.4462,-8.4389,0.0,-8.3581,-8.3654,-8.4205,-8.281,-8.2994,-8.4425,-8.5306,-8.5673,-8.5747,-8.6554,-8.6921,-8.6995,-8.6995,-8.7031,-8.7105,-8.7031,-8.7068,-8.7105,-8.7105,-8.8133,-8.9382,-8.9455,-9.0555,-9.1803,-9.1803,-9.1803,-9.1803,-9.1803,-9.1803,-9.1803,-9.1803,-9.1803,-9.1803,-9.1803,-9.1803,-9.1803,-9.1803,-9.1803,-9.1803,-9.1803,-9.1803,-9.1803,-9.1803,-9.1803,-9.1803,-9.1803,-9.1803,-9.1803,-9.1803,-9.1803,-9.1803,-9.1803,-9.1803,-9.151,-9.0776,-9.0629,-9.0335,-8.9639,-8.9529,-8.9529,-8.9638,-8.9455,-8.905,-8.8206,-8.8206,-8.7802,-8.6995,-8.6995,-8.6995,-8.6995,-8.6151,-8.5783,0.0,0.0,0.0,0.0,0.0,0.0,0.0,0.0,0.0,0.0,0.0,0.0,0.0,0.0,0.0,0.0,0.0,0.0,0.0,0.0,0.0,0.0,0.0,0.0,0.0,0.0,0.0,0.0,0.0,0.0,0.0,0.0,0.0,-8.4572,-8.4609,-8.3985,-8.2737,-8.3361,-8.27,0.0,-8.1929,-8.2223,-8.1782,-8.2076,-8.237,-8.281,-8.4242,-8.4866,-8.4903,-8.571,-8.6444,-8.6995,-8.6995,-8.7399,-8.7876,-8.7252,-8.7399,-8.7949,-8.7949,-8.8573,-8.9528,-9.0152,-9.0996,-9.1803,-9.1803,-9.1803,-9.1803,-9.1803,-9.1803,-9.1803,-9.1803,-9.1803,-9.1803,-9.1803,-9.1803,-9.1803,-9.1803,-9.1803,-9.1803,-9.1803,-9.1803,-9.1803,-9.1803,-9.1803,-9.1803,-9.1803,-9.1803,-9.1803,-9.1803,-9.1803,-9.1803,-9.1803,-9.1803,-9.173,-9.1546,-9.0959,-9.0812,-9.1253,-9.0702,-9.0629,-9.1253,-9.0078,-8.905,-8.8206,-8.8206,-8.7802,-8.6995,-8.6995,-8.6995,-8.6995,-8.6151,-8.5783,0.0,0.0,0.0,0.0,0.0,0.0,0.0,0.0,0.0,0.0,0.0,0.0,0.0,0.0,0.0,0.0,0.0,0.0,0.0,0.0,0.0,0.0,0.0,0.0,0.0,0.0,0.0,0.0,0.0,0.0,0.0,-8.2113,-8.1856,-8.2296,-8.2296,-8.1893,-8.1048,-8.1452,-8.1048,-7.98,-8.0645,-8.0828,-8.0461,-8.1636,-8.2003,-8.1709,-8.3324,-8.4022,-8.4132,-8.5306,-8.604,-8.6481,-8.6848,-8.7252,-8.7582,-8.7142,-8.7288,-8.7692,-8.8059,-8.872,-8.9564,-9.0335,-9.1143,-9.1803,-9.1803,-9.1803,-9.1803,-9.1803,-9.1803,-9.1803,-9.1803,-9.1803,-9.1803,-9.1803,-9.1803,-9.1803,-9.1803,-9.1803,-9.1803,-9.1803,-9.1803,-9.1803,-9.1803,-9.1803,-9.1803,-9.1803,-9.1803,-9.1803,-9.1803,-9.1803,-9.1803,-9.1803,-9.1803,-9.1803,-9.1803,-9.1436,-9.1363,-9.1767,-9.14,-9.1363,-9.1767,-9.0996,-9.0005,-8.8793,-8.8793,-8.8206,-8.6995,-8.6995,-8.6995,-8.6995,-8.6591,-8.6371,0.0,0.0,0.0,0.0,0.0,0.0,0.0,0.0,0.0,0.0,0.0,0.0,0.0,0.0,0.0,0.0,0.0,0.0,0.0,0.0,0.0,0.0,0.0,0.0,0.0,0.0,0.0,0.0,0.0,0.0,-8.0791,-8.0167,-7.98,-7.98,-7.98,-7.9727,-7.958,-7.9727,-7.9653,-7.936,-7.9507,-7.958,-7.9617,-8.1122,-8.1489,-8.1085,-8.27,-8.3398,-8.3544,-8.5123,-8.5783,-8.5857,-8.6701,-8.6995,-8.6995,-8.6995,-8.6995,-8.7142,-8.8096,-8.8867,-8.9564,-9.0519,-9.1253,-9.1803,-9.1803,-9.1803,-9.1803,-9.1803,-9.1803,-9.1803,-9.1803,-9.1803,-9.1803,-9.1803,-9.1803,-9.1803,-9.1803,-9.1803,-9.1803,-9.1803,-9.1803,-9.1803,-9.1803,-9.1803,-9.1803,-9.1803,-9.1803,-9.1803,-9.1803,-9.1803,-9.1803,-9.1803,-9.1803,-9.1803,-9.1803,-9.1803,-9.1803,-9.1803,-9.1803,-9.1803,-9.1803,-9.1803,-9.1033,-8.9419,-8.9382,-8.861,-8.6995,-8.6995,-8.6995,-8.6995,-8.6995,-8.6995,0.0,0.0,0.0,0.0,0.0,0.0,0.0,0.0,0.0,0.0,0.0,0.0,0.0,0.0,0.0,0.0,0.0,0.0,0.0,0.0,0.0,0.0,0.0,0.0,0.0,0.0,0.0,0.0,0.0,0.0,-7.9947,-7.9837,-7.98,-7.98,-7.98,-7.947,-7.8772,-7.9433,-7.9066,-7.764,-7.8405,-7.8772,-7.8772,-7.969,-8.0424,-8.1085,-8.27,-8.3398,-8.3544,-8.5123,-8.5783,-8.5857,-8.6701,-8.6995,-8.6995,-8.6995,-8.6995,-8.7215,-8.872,-8.9344,-8.9674,-9.1143,-9.1693,-9.1803,-9.1803,-9.1803,-9.1803,-9.1803,-9.1803,-9.1803,-9.1803,-9.1803,-9.1803,-9.1803,-9.1803,-9.1803,-9.1803,-9.1803,-9.1803,-9.1803,-9.1803,-9.1803,-9.1803,-9.1803,-9.1803,-9.1803,-9.1803,-9.1803,-9.1803,-9.1803,-9.1803,-9.1803,-9.1803,-9.1803,-9.1803,-9.1803,-9.1803,-9.1803,-9.1803,-9.1803,-9.1803,-9.1803,-9.1033,-8.9419,-8.9382,-8.861,-8.6995,-8.6995,-8.6995,-8.6995,-8.6995,-8.6995,0.0,0.0,0.0,0.0,0.0,0.0,0.0,0.0,0.0,0.0,0.0,0.0,0.0,0.0,0.0,0.0,0.0,0.0,0.0,0.0,0.0,0.0,0.0,0.0,0.0,0.0,0.0,0.0,0.0,-7.8626,-7.9103,-7.8662,-7.8405,-7.8405,-7.8405,-7.8222,-7.7892,-7.8222,-7.8038,-7.7273,-7.7708,-7.7892,-7.7892,-7.8736,-7.958,-8.0388,-8.1562,-8.2333,-8.281,-8.3985,-8.4719,-8.5196,-8.6004,-8.6591,-8.6995,-8.6995,-8.6995,-8.7252,-8.8831,-8.9382,-8.9674,-9.1289,-9.1803,-9.1803,-9.1803,-9.1803,-9.1803,-9.1803,-9.1803,-9.1803,-9.1803,-9.1803,-9.1803,-9.1803,-9.1803,-9.1803,-9.1803,-9.1803,-9.1803,-9.1803,-9.1803,-9.1803,-9.1803,-9.1803,-9.1803,-9.1803,-9.1803,-9.1803,-9.1803,-9.1803,-9.1803,-9.1803,-9.1803,-9.1803,-9.1803,-9.1803,-9.1803,-9.1803,-9.1803,-9.1803,-9.1803,-9.1803,-9.1253,-9.0115,-8.9602,-8.861,-8.6995,-8.6995,-8.6995,-8.6995,-8.6995,-8.6995,0.0,0.0,0.0,0.0,0.0,0.0,0.0,0.0,0.0,0.0,0.0,0.0,0.0,0.0,0.0,0.0,0.0,0.0,0.0,0.0,0.0,0.0,0.0,0.0,0.0,0.0,0.0,0.0,0.0,-7.7567,-7.8222,-7.7671,-7.7273,-7.7273,-7.7273,-7.7273,-7.7273,-7.7273,-7.7273,-7.7273,-7.7273,-7.7273,-7.731,-7.8222,-7.8919,-7.9543,-8.0571,-8.1452,-8.226,-8.3067,-8.3765,-8.4389,-8.5416,-8.6151,-8.6738,-8.6921,-8.6995,-8.7215,-8.861,-8.9124,-8.9381,-9.0959,-9.151,-9.1546,-9.173,-9.1803,-9.1803,-9.1803,-9.1803,-9.1803,-9.1803,-9.1803,-9.1803,-9.1803,-9.1803,-9.1803,-9.1803,-9.1803,-9.1803,-9.1803,-9.1803,-9.1803,-9.1803,-9.1803,-9.1803,-9.1803,-9.1803,-9.1803,-9.1803,-9.1803,-9.1803,-9.1803,-9.1803,-9.1803,-9.1803,-9.1803,-9.1803,-9.1803,-9.1803,-9.1803,-9.1803,-9.1803,-9.1436,-9.0629,-9.0005,-8.9014,-8.7619,-8.7619,-8.7619,-8.7619,-8.7399,-8.7325,0.0,0.0,0.0,0.0,0.0,0.0,0.0,0.0,0.0,0.0,0.0,0.0,0.0,0.0,0.0,0.0,0.0,0.0,0.0,0.0,0.0,0.0,0.0,0.0,0.0,0.0,0.0,0.0,0.0,-7.731,-7.7347,-7.731,-7.7273,-7.7273,-7.7273,-7.7273,-7.7273,-7.7273,-7.7273,-7.7273,-7.7273,-7.7273,-7.731,-7.8222,-7.8626,-7.8736,-8.0314,-8.1452,-8.226,-8.3067,-8.3434,-8.3618,-8.5196,-8.582,-8.593,-8.6738,-8.6995,-8.7142,-8.7986,-8.828,-8.8536,-9.0152,-9.0665,-9.0812,-9.1583,-9.1803,-9.1803,-9.1803,-9.1803,-9.1803,-9.1803,-9.1803,-9.1803,-9.1803,-9.1803,-9.1803,-9.1803,-9.1803,-9.1803,-9.1803,-9.1803,-9.1803,-9.1803,-9.1803,-9.1803,-9.1803,-9.1803,-9.1803,-9.1803,-9.1803,-9.1803,-9.1803,-9.1803,-9.1803,-9.1803,-9.1803,-9.1803,-9.1803,-9.1803,-9.1803,-9.1803,-9.1803,-9.1436,-9.0629,-9.0555,-9.0115,-8.9307,-8.9307,-8.9307,-8.9235,-8.85,-8.8133,0.0,0.0,0.0,0.0,0.0,0.0,0.0,0.0,0.0,0.0,0.0,0.0,0.0,0.0,0.0,0.0,0.0,0.0,0.0,0.0,0.0,0.0,0.0,0.0,0.0,0.0,0.0,0.0,0.0,0.0,-7.7273,-7.7273,-7.7273,-7.7273,-7.7273,-7.7273,-7.7273,-7.7273,-7.7273,-7.7273,-7.7273,-7.7273,-7.731,-7.7604,-7.8075,-7.8662,-7.9764,-8.0681,-8.1489,-8.2296,-8.3251,-8.4168,-8.4242,-8.5233,-8.6554,-8.6297,-8.6554,-8.7142,-8.7912,-8.8206,-8.8463,-9.0078,-9.0592,-9.0739,-9.1546,-9.1803,-9.1803,-9.1803,-9.1803,-9.1803,-9.1803,-9.1803,-9.1803,-9.1803,-9.1803,-9.1803,-9.1803,-9.1803,-9.1803,-9.1803,-9.1803,-9.1803,-9.1803,-9.1803,-9.1803,-9.1803,-9.1803,-9.1803,-9.1803,-9.1803,-9.1803,-9.1803,-9.1803,-9.1803,-9.1803,-9.1803,-9.1803,-9.1803,-9.1803,-9.1803,-9.1803,-9.1803,-9.1657,-9.1363,-9.1363,-9.0739,-8.9382,-8.9382,-8.9382,-8.9382,-8.9124,-8.8977,0.0,0.0,0.0,0.0,0.0,0.0,0.0,0.0,0.0,0.0,0.0,0.0,0.0,0.0,0.0,0.0,0.0,0.0,0.0,0.0,0.0,0.0,0.0,0.0,0.0,0.0,0.0,0.0,0.0,0.0,-7.7273,-7.7273,-7.7273,-7.7273,-7.7273,-7.7273,-7.7273,-7.7273,-7.7273,-7.7273,-7.7273,-7.7273,-7.731,-7.7598,-7.7892,-7.8222,-7.9323,-8.0241,-8.1048,-8.1856,-8.281,-8.3765,-8.3508,-8.4535,-8.6151,-8.5894,-8.6297,-8.7105,-8.7619,-8.7986,-8.8426,-8.9784,-9.0408,-9.0739,-9.1546,-9.1803,-9.1803,-9.1803,-9.1803,-9.1803,-9.1803,-9.1803,-9.1803,-9.1803,-9.1803,-9.1803,-9.1803,-9.1803,-9.1803,-9.1803,-9.1803,-9.1803,-9.1803,-9.1803,-9.1803,-9.1803,-9.1803,-9.1803,-9.1803,-9.1803,-9.1803,-9.1803,-9.1803,-9.1803,-9.1803,-9.1803,-9.1803,-9.1803,-9.1803,-9.1803,-9.1803,-9.1803,-9.1803,-9.1803,-9.1803,-9.1253,-9.0225,-9.0225,-9.0225,-9.0225,-8.9931,-8.9528,0.0,0.0,0.0,0.0,0.0,0.0,0.0,0.0,0.0,0.0,0.0,0.0,0.0,0.0,0.0,0.0,0.0,0.0,0.0,0.0,0.0,0.0,0.0,0.0,0.0,0.0,0.0,0.0,0.0,-7.7273,-7.7273,-7.7273,-7.7273,-7.7273,-7.7273,-7.7273,-7.7273,-7.7273,-7.7273,-7.7273,-7.7273,-7.7273,-7.731,-7.8185,-7.8112,-7.7384,-7.9029,-8.0204,-8.1048,-8.1819,-8.2186,-8.226,-8.3067,-8.3911,-8.4719,-8.549,-8.6297,-8.6995,-8.7031,-8.7545,-8.8353,-8.9197,-8.9968,-9.0739,-9.1546,-9.1803,-9.1803,-9.1803,-9.1803,-9.1803,-9.1803,-9.1803,-9.1803,-9.1803,-9.1803,-9.1803,-9.1803,-9.1803,-9.1803,-9.1803,-9.1803,-9.1803,-9.1803,-9.1803,-9.1803,-9.1803,-9.1803,-9.1803,-9.1803,-9.1803,-9.1803,-9.1803,-9.1803,-9.1803,-9.1803,-9.1803,-9.1803,-9.1803,-9.1803,-9.1803,-9.1803,-9.1803,-9.1803,-9.1803,-9.1803,-9.1803,-9.1803,-9.1803,-9.1803,-9.1767,-9.0996,-8.9784,-7.2496,0.0,0.0,0.0,0.0,0.0,0.0,0.0,0.0,0.0,0.0,0.0,0.0,0.0,0.0,0.0,0.0,0.0,0.0,0.0,0.0,0.0,0.0,0.0,0.0,0.0,0.0,0.0,-7.7273,-7.7273,-7.7273,-7.7273,-7.7273,-7.7273,-7.7273,-7.7273,-7.7273,-7.7273,-7.7273,-7.7273,-7.7273,-7.7273,-7.731,-7.753,-7.753,-7.7347,-7.8479,-7.9396,-8.0167,-8.1012,-8.1672,-8.2223,-8.2443,-8.3728,-8.5416,-8.5049,-8.582,-8.7105,-8.7655,-8.8023,-8.8426,-8.9821,-9.0445,-9.0739,-9.1546,-9.1803,-9.1803,-9.1803,-9.1803,-9.1803,-9.1803,-9.1803,-9.1803,-9.1803,-9.1803,-9.1803,-9.1803,-9.1803,-9.1803,-9.1803,-9.1803,-9.1803,-9.1803,-9.1803,-9.1803,-9.1803,-9.1803,-9.1803,-9.1803,-9.1803,-9.1803,-9.1803,-9.1803,-9.1803,-9.1803,-9.1803,-9.1803,-9.1803,-9.1803,-9.1803,-9.1803,-9.1803,-9.1803,-9.1803,-9.1803,-9.1803,-9.1803,-9.1803,-9.1803,-9.1803,-9.1583,-9.0629,0.0,0.0,0.0,0.0,0.0,0.0,0.0,-7.4661,0.0,0.0,0.0,0.0,0.0,0.0,0.0,0.0,0.0,0.0,0.0,0.0,0.0,0.0,0.0,0.0,0.0,0.0,0.0,-7.7273,-7.7273,-7.7273,-7.7273,-7.7273,-7.7273,-7.7273,-7.7273,-7.7273,-7.7273,-7.7273,-7.7273,-7.7273,-7.7273,-7.7273,-7.7273,-7.7273,-7.7273,-7.731,-7.7855,-7.8516,-7.936,-8.0167,-8.1158,-8.2223,-8.2553,-8.3765,-8.527,-8.5159,-8.593,-8.7142,-8.7912,-8.8426,-8.8904,-9.0188,-9.0849,-9.1179,-9.1657,-9.1803,-9.1803,-9.1803,-9.1803,-9.1803,-9.1803,-9.1803,-9.1803,-9.1803,-9.1803,-9.1803,-9.1803,-9.1803,-9.1803,-9.1803,-9.1803,-9.1803,-9.1803,-9.1803,-9.1803,-9.1803,-9.1803,-9.1803,-9.1803,-9.1803,-9.1803,-9.1803,-9.1803,-9.1803,-9.1803,-9.1803,-9.1803,-9.1803,-9.1803,-9.1803,-9.1803,-9.1803,-9.1803,-9.1803,-9.1803,-9.1803,-9.1803,-9.1803,-9.162,-9.1289,-9.0959,-9.0115,0.0,0.0,0.0,0.0,0.0,0.0,-7.4368,-7.4147,-7.3891,0.0,0.0,0.0,0.0,0.0,0.0,0.0,0.0,0.0,0.0,0.0,0.0,0.0,0.0,0.0,0.0,-7.7273,-7.7273,-7.7273,-7.7273,-7.7273,-7.7273,-7.7273,-7.7273,-7.7273,-7.7273,-7.7273,-7.7273,-7.7273,-7.7273,-7.7273,-7.7273,-7.7273,-7.7273,-7.7273,-7.7273,-7.7273,-7.7273,-7.7855,-7.8772,-7.9507,-8.0681,-8.215,-8.3067,-8.3911,-8.4682,-8.549,-8.6371,-8.7252,-8.8059,-8.8867,-8.9674,-9.0482,-9.1216,-9.1803,-9.1803,-9.1803,-9.1803,-9.1803,-9.1803,-9.1803,-9.1803,-9.1803,-9.1803,-9.1803,-9.1803,-9.1803,-9.1803,-9.1803,-9.1803,-9.1803,-9.1803,-9.1803,-9.1803,-9.1803,-9.1803,-9.1803,-9.1803,-9.1803,-9.1803,-9.1803,-9.1803,-9.1803,-9.1803,-9.1803,-9.1803,-9.1803,-9.1803,-9.1803,-9.1803,-9.1803,-9.1803,-9.1803,-9.1803,-9.1803,-9.1803,-9.1803,-9.1803,-9.1803,-9.1326,-9.0445,-8.9821,-8.905,0.0,0.0,0.0,0.0,0.0,0.0,-7.3193,-7.334,-7.3744,0.0,0.0,0.0,0.0,0.0,0.0,0.0,0.0,0.0,0.0,0.0,0.0,0.0,0.0,0.0,0.0,-7.7273,-7.7273,-7.7273,-7.7273,-7.7273,-7.7273,-7.7273,-7.7273,-7.7273,-7.7273,-7.7273,-7.7273,-7.7273,-7.7273,-7.7273,-7.7273,-7.7273,-7.7273,-7.7273,-7.7273,-7.7273,-7.7273,-7.8185,-7.958,-7.9727,-8.0351,-8.1379,-8.2847,-8.3911,-8.4682,-8.549,-8.6701,-8.8096,-8.8904,-8.9711,-9.0519,-9.1289,-9.1657,-9.1803,-9.1803,-9.1803,-9.1803,-9.1803,-9.1803,-9.1803,-9.1803,-9.1803,-9.1803,-9.1803,-9.1803,-9.1803,-9.1803,-9.1803,-9.1803,-9.1803,-9.1803,-9.1803,-9.1803,-9.1803,-9.1803,-9.1803,-9.1803,-9.1803,-9.1803,-9.1803,-9.1803,-9.1803,-9.1803,-9.1803,-9.1803,-9.1803,-9.1803,-9.1803,-9.1803,-9.1803,-9.1803,-9.1803,-9.1803,-9.1803,-9.1803,-9.1803,-9.1803,-9.1803,-9.1069,-8.9674,-9.0152,-8.9601,0.0,0.0,0.0,-7.4294,0.0,0.0,0.0,-7.3083,-7.3083,0.0,0.0,0.0,0.0,0.0,0.0,0.0,0.0,0.0,0.0,0.0,0.0,0.0,0.0,0.0,0.0,-7.6717,-7.69,-7.7273,-7.7273,-7.7273,-7.7273,-7.7273,-7.7273,-7.7273,-7.7273,-7.7273,-7.7273,-7.7273,-7.7273,-7.7273,-7.7273,-7.7273,-7.7273,-7.7273,-7.7273,-7.7273,-7.7273,-7.8259,-7.98,-7.98,-8.0498,-8.1746,-8.3361,-8.4242,-8.4756,-8.5967,-8.6921,-8.7766,-8.9014,-8.9639,-9.0225,-9.14,-9.1803,-9.1803,-9.1803,-9.1803,-9.1803,-9.1803,-9.1803,-9.1803,-9.1803,-9.1803,-9.1803,-9.1803,-9.1803,-9.1803,-9.1803,-9.1803,-9.1803,-9.1803,-9.1803,-9.1803,-9.1803,-9.1803,-9.1803,-9.1803,-9.1803,-9.1803,-9.1803,-9.1803,-9.1803,-9.1803,-9.1803,-9.1803,-9.1803,-9.1803,-9.1803,-9.1803,-9.1803,-9.1803,-9.1803,-9.1803,-9.1803,-9.1803,-9.1803,-9.1803,-9.1803,-9.1803,-9.1179,-9.0005,-9.0408,-8.9968,0.0,0.0,0.0,0.0,0.0,-7.4258,0.0,0.0,0.0,0.0,0.0,0.0,0.0,0.0,0.0,0.0,0.0,0.0,0.0,0.0,0.0,0.0,0.0,0.0,0.0,-7.6093,-7.6387,-7.7047,-7.72,-7.7273,-7.7273,-7.7273,-7.7273,-7.7273,-7.7273,-7.7273,-7.7273,-7.7273,-7.7273,-7.7273,-7.7273,-7.7273,-7.7273,-7.7273,-7.7273,-7.7273,-7.7273,-7.8259,-7.98,-7.98,-8.0755,-8.237,-8.3985,-8.4609,-8.4792,-8.6407,-8.7105,-8.7435,-8.8904,-8.9528,-8.9895,-9.1326,-9.1803,-9.1803,-9.1803,-9.1803,-9.1803,-9.1803,-9.1803,-9.1803,-9.1803,-9.1803,-9.1803,-9.1803,-9.1803,-9.1803,-9.1803,-9.1803,-9.1803,-9.1803,-9.1803,-9.1803,-9.1803,-9.1803,-9.1803,-9.1803,-9.1803,-9.1803,-9.1803,-9.1803,-9.1803,-9.1803,-9.1803,-9.1803,-9.1803,-9.1803,-9.1803,-9.1803,-9.1803,-9.1803,-9.1803,-9.1803,-9.1803,-9.1803,-9.1803,-9.1803,-9.1803,-9.1803,-9.14,-9.0592,-9.0592,-9.0188,0.0,0.0,0.0,0.0,-7.6423,0.0,0.0,0.0,-7.4221,0.0,0.0,0.0,0.0,0.0,0.0,0.0,0.0,0.0,0.0,0.0,0.0,0.0,0.0,0.0,0.0,0.0,-7.613,-7.624,-7.69,-7.7273,-7.7273,-7.7273,-7.7273,-7.7273,-7.7273,-7.7273,-7.7273,-7.7273,-7.7273,-7.7273,-7.7273,-7.7273,-7.7273,-7.7273,-7.7273,-7.7273,-7.7273,-7.8259,-7.98,-7.98,-8.0755,-8.237,-8.3985,-8.4609,-8.4792,-8.6407,-8.7472,-8.8206,-8.9087,-8.9895,-9.0629,-9.151,-9.1803,-9.1803,-9.1803,-9.1803,-9.1803,-9.1803,-9.1803,-9.1803,-9.1803,-9.1803,-9.1803,-9.1803,-9.1803,-9.1803,-9.1803,-9.1803,-9.1803,-9.1803,-9.1803,-9.1803,-9.1803,-9.1803,-9.1803,-9.1803,-9.1803,-9.1803,-9.1803,-9.1803,-9.1803,-9.1803,-9.1803,-9.1803,-9.1803,-9.1803,-9.1803,-9.1803,-9.1803,-9.1803,-9.1803,-9.1803,-9.1803,-9.1803,-9.1803,-9.1803,-9.1803,-9.1803,-9.14,-9.0592,-9.0592,-9.0188,0.0,0.0,0.0,0.0,0.0,0.0,-7.4735,0.0,-7.3891,0.0,0.0,0.0,0.0,0.0,0.0,0.0,0.0,0.0,0.0,0.0,0.0,0.0,0.0,0.0,0.0,0.0,0.0,0.0,0.0,-7.6607,-7.6607,-7.6607,-7.6827,-7.7273,-7.7273,-7.7273,-7.7273,-7.7273,-7.7273,-7.7273,-7.7273,-7.7273,-7.7273,-7.7273,-7.7273,-7.731,-7.7855,-7.8736,-7.9874,-8.0791,-8.1856,-8.3067,-8.4682,-8.5013,-8.4792,-8.6407,-8.7215,-8.7619,-8.8426,-8.9234,-9.0115,-9.14,-9.1803,-9.1803,-9.1803,-9.1803,-9.1803,-9.1803,-9.1803,-9.1803,-9.1803,-9.1803,-9.1803,-9.1803,-9.1803,-9.1803,-9.1803,-9.1803,-9.1803,-9.1803,-9.1803,-9.1803,-9.1803,-9.1803,-9.1803,-9.1803,-9.1803,-9.1803,-9.1803,-9.1803,-9.1803,-9.1803,-9.1803,-9.1803,-9.1803,-9.1803,-9.1803,-9.1803,-9.1803,-9.1803,-9.1803,-9.1803,-9.1803,-9.1803,-9.1803,-9.1803,-9.1803,-9.1803,-9.162,-9.1289,-9.1289,-9.1106,-7.7273,0.0,0.0,0.0,0.0,0.0,0.0,0.0,0.0,0.0,0.0,0.0,0.0,0.0,0.0,0.0,0.0,0.0,0.0,0.0,0.0,0.0,0.0,0.0,0.0,0.0,0.0,0.0,-7.5652,-7.6093,-7.6093,-7.6093,-7.646,-7.7273,-7.7273,-7.7273,-7.7273,-7.7273,-7.7273,-7.7273,-7.7273,-7.7273,-7.7273,-7.7273,-7.7273,-7.7347,-7.8222,-7.9066,-7.991,-8.1525,-8.2663,-8.3581,-8.5159,-8.5416,-8.5086,-8.6481,-8.7288,-8.7766,-8.8353,-8.9197,-9.0262,-9.1436,-9.1803,-9.1803,-9.1803,-9.1803,-9.1803,-9.1803,-9.1803,-9.1803,-9.1803,-9.1803,-9.1803,-9.1803,-9.1803,-9.1803,-9.1803,-9.1803,-9.1803,-9.1803,-9.1803,-9.1803,-9.1803,-9.1803,-9.1803,-9.1803,-9.1803,-9.1803,-9.1803,-9.1803,-9.1803,-9.1803,-9.1803,-9.1803,-9.1803,-9.1803,-9.1803,-9.1803,-9.1803,-9.1803,-9.1803,-9.1803,-9.1803,-9.1803,-9.1803,-9.1803,-9.1803,-9.1803,-9.1803,-9.1803,-9.1803,-9.1803,0.0,0.0,0.0,-7.7273,0.0,0.0,0.0,0.0,-7.5799,0.0,0.0,0.0,0.0,0.0,0.0,0.0,0.0,0.0,0.0,0.0,0.0,0.0,0.0,0.0,0.0,0.0,0.0,-7.4955,-7.5652,-7.6093,-7.6093,-7.6093,-7.646,-7.7273,-7.7273,-7.7273,-7.7273,-7.7273,-7.7273,-7.7273,-7.7273,-7.7273,-7.7273,-7.7273,-7.7273,-7.7347,-7.8222,-7.9066,-7.991,-8.1525,-8.2663,-8.3581,-8.5159,-8.5783,-8.5857,-8.6701,-8.7986,-8.9308,-8.9345,-9.0408,-9.173,-9.1767,-9.1803,-9.1803,-9.1803,-9.1803,-9.1803,-9.1803,-9.1803,-9.1803,-9.1803,-9.1803,-9.1803,-9.1803,-9.1803,-9.1803,-9.1803,-9.1803,-9.1803,-9.1803,-9.1803,-9.1803,-9.1803,-9.1803,-9.1803,-9.1803,-9.1803,-9.1803,-9.1803,-9.1803,-9.1803,-9.1803,-9.1803,-9.1803,-9.1803,-9.1803,-9.1803,-9.1803,-9.1803,-9.1803,-9.1803,-9.1803,-9.1803,-9.1803,-9.1803,-9.1803,-9.1803,-9.1803,-9.1803,-9.1803,-9.1803,-9.1803,0.0,0.0,-7.8846,-7.8295,0.0,0.0,0.0,0.0,0.0,0.0,0.0,0.0,0.0,0.0,0.0,0.0,0.0,0.0,0.0,0.0,0.0,0.0,0.0,0.0,0.0,0.0,0.0,-7.2642,-7.3266,-7.3707,0.0,-7.4735,-7.5689,-7.6497,-7.7047,-7.7273,-7.7273,-7.7273,-7.7273,-7.7273,-7.7273,-7.7273,-7.7273,-7.7273,-7.7604,-7.8222,-7.9029,-8.0131,-8.1489,-8.3104,-8.4278,-8.5086,-8.6187,-8.7252,-8.8169,-8.7876,-8.8133,-8.8757,-8.9821,-9.0555,-9.1106,-9.162,-9.1803,-9.1803,-9.1803,-9.1803,-9.1803,-9.1803,-9.1803,-9.1803,-9.1803,-9.1803,-9.1803,-9.1803,-9.1803,-9.1803,-9.1803,-9.1803,-9.1803,-9.1803,-9.1803,-9.1803,-9.1803,-9.1803,-9.1803,-9.1803,-9.1803,-9.1803,-9.1803,-9.1803,-9.1803,-9.1803,-9.1803,-9.1803,-9.1803,-9.1803,-9.1803,-9.1803,-9.1803,-9.1803,-9.1803,-9.1803,-9.1803,-9.1803,-9.1803,-9.1803,-9.1803,-9.1803,-9.1803,-9.1803,-9.1803,-9.1803,-7.8222,-7.8736,0.0,-7.8332,-7.8148,0.0,-7.679,0.0,0.0,0.0,0.0,0.0,0.0,0.0,0.0,0.0,0.0,0.0,0.0,0.0,0.0,0.0,0.0,0.0,0.0,0.0,-7.345,-7.1872,-7.2459,-7.2789,0.0,0.0,-7.4992,-7.6056,-7.6607,-7.698,-7.7273,-7.7273,-7.7273,-7.7273,-7.7273,-7.7273,-7.7273,-7.7273,-7.7781,-7.8626,-7.9433,-8.0681,-8.2333,-8.3948,-8.5086,-8.5857,-8.6701,-8.7655,-8.8536,-8.828,-8.8573,-8.9234,-9.0555,-9.1033,-9.1106,-9.162,-9.1803,-9.1803,-9.1803,-9.1803,-9.173,-9.1436,-9.1583,-9.173,-9.1436,-9.1583,-9.1803,-9.1803,-9.1803,-9.1803,-9.1803,-9.1803,-9.1803,-9.1803,-9.1803,-9.1803,-9.1803,-9.1803,-9.1803,-9.1803,-9.1803,-9.1803,-9.1803,-9.1803,-9.1803,-9.1803,-9.1803,-9.1803,-9.1803,-9.1803,-9.1803,-9.1803,-9.1803,-9.1803,-9.1803,-9.1803,-9.2464,-9.3932,-9.2537,-9.2501,-9.3969,-9.2501,-9.1803,-9.1803,-9.1803,-9.1803]},{"header":{"parameterUnit":"m.s-1","parameterCategory":1,"la1":30.6,"la2":29.2853,"lo1":-89.7004,"lo2":-87.6739,"dy":0.0162,"dx":0.0183,"nx":112,"ny":82,"refTime":"2023-02-24T06:00:00:Z","depth":0,"parameterNumber":3,"parameterNumberName":"V-component_of_WINDS"},"data":[0.0,0.0,0.0,0.0,0.0,0.0,0.0,0.0,0.0,0.0,0.0,0.0,0.0,0.0,0.0,0.0,0.0,0.0,0.0,0.0,0.0,0.0,0.0,0.0,0.0,0.0,0.0,0.0,0.0,0.0,0.0,0.0,0.0,0.0,0.0,0.0,0.0,0.0,0.0,0.0,0.0,0.0,0.0,0.0,0.0,0.0,0.0,0.0,0.0,0.0,0.0,0.0,0.0,0.0,0.0,0.0,0.0,0.0,0.0,0.0,0.0,0.0,0.0,0.0,0.0,0.0,0.0,0.0,0.0,0.0,0.0,0.0,0.0,0.0,0.0,0.0,0.0,0.0,0.0,0.0,0.0,0.0,0.0,0.0,0.0,0.0,0.0,0.0,0.0,0.0,0.0,-2.8991,-3.149,-3.2959,-3.2772,-3.2225,-3.1022,-2.8938,0.0,0.0,0.0,0.0,0.0,0.0,0.0,0.0,0.0,0.0,0.0,0.0,0.0,0.0,0.0,0.0,0.0,0.0,0.0,0.0,0.0,0.0,0.0,0.0,0.0,0.0,0.0,0.0,0.0,0.0,0.0,0.0,0.0,0.0,0.0,0.0,0.0,0.0,0.0,0.0,0.0,0.0,0.0,0.0,0.0,0.0,0.0,0.0,0.0,0.0,0.0,0.0,0.0,0.0,0.0,0.0,0.0,0.0,0.0,0.0,0.0,0.0,0.0,0.0,0.0,0.0,0.0,0.0,0.0,0.0,0.0,0.0,0.0,0.0,0.0,0.0,0.0,0.0,0.0,0.0,0.0,0.0,0.0,0.0,0.0,0.0,0.0,0.0,0.0,0.0,0.0,0.0,0.0,0.0,0.0,0.0,0.0,0.0,0.0,0.0,0.0,0.0,0.0,0.0,-2.8323,-3.1263,-3.2639,-3.344,-3.3668,-3.2024,-3.0635,-2.9766,0.0,0.0,0.0,0.0,0.0,0.0,0.0,0.0,0.0,0.0,0.0,0.0,0.0,0.0,0.0,0.0,0.0,0.0,0.0,0.0,0.0,0.0,0.0,0.0,0.0,0.0,0.0,0.0,0.0,0.0,0.0,0.0,0.0,0.0,0.0,0.0,0.0,0.0,0.0,0.0,0.0,0.0,0.0,0.0,0.0,0.0,0.0,0.0,0.0,0.0,0.0,0.0,0.0,0.0,0.0,0.0,0.0,0.0,0.0,0.0,0.0,0.0,0.0,0.0,0.0,0.0,0.0,0.0,0.0,0.0,0.0,0.0,0.0,0.0,0.0,0.0,0.0,0.0,0.0,0.0,0.0,0.0,0.0,0.0,0.0,0.0,0.0,0.0,0.0,0.0,0.0,0.0,0.0,0.0,0.0,0.0,0.0,0.0,0.0,0.0,0.0,0.0,0.0,-2.7776,-2.9406,-3.1837,-3.2893,-3.3467,-3.3614,-3.2024,-3.0715,-2.9967,-2.8217,0.0,0.0,0.0,0.0,0.0,0.0,0.0,0.0,0.0,0.0,0.0,0.0,0.0,0.0,0.0,0.0,0.0,0.0,0.0,0.0,0.0,0.0,0.0,0.0,0.0,0.0,0.0,0.0,0.0,0.0,0.0,0.0,0.0,0.0,0.0,0.0,0.0,0.0,0.0,0.0,0.0,0.0,0.0,0.0,0.0,0.0,0.0,0.0,0.0,0.0,0.0,0.0,0.0,0.0,0.0,0.0,0.0,0.0,0.0,0.0,0.0,0.0,0.0,0.0,0.0,0.0,0.0,0.0,0.0,0.0,0.0,0.0,0.0,0.0,0.0,0.0,0.0,0.0,0.0,0.0,0.0,0.0,0.0,0.0,0.0,0.0,0.0,0.0,0.0,0.0,0.0,0.0,0.0,0.0,0.0,0.0,0.0,0.0,0.0,0.0,0.0,0.0,-2.9285,-3.0394,-3.2211,-3.3013,-3.3414,-3.3414,-3.1944,-3.0702,-2.9967,-2.7843,0.0,0.0,0.0,0.0,0.0,0.0,0.0,0.0,0.0,0.0,0.0,0.0,0.0,0.0,0.0,0.0,0.0,0.0,0.0,0.0,0.0,0.0,0.0,0.0,0.0,0.0,0.0,0.0,0.0,0.0,0.0,0.0,0.0,0.0,0.0,0.0,0.0,0.0,0.0,0.0,0.0,0.0,0.0,0.0,0.0,0.0,0.0,0.0,0.0,0.0,0.0,0.0,0.0,0.0,0.0,0.0,0.0,0.0,0.0,0.0,0.0,0.0,0.0,0.0,0.0,0.0,0.0,0.0,0.0,0.0,0.0,0.0,0.0,0.0,0.0,0.0,0.0,0.0,0.0,0.0,0.0,0.0,0.0,0.0,0.0,0.0,0.0,0.0,0.0,0.0,0.0,0.0,0.0,0.0,0.0,0.0,0.0,0.0,0.0,0.0,0.0,0.0,-2.9766,-3.1076,-3.3106,-3.3374,-3.3414,-3.3414,-3.157,-3.0274,-2.994,-2.7468,0.0,0.0,0.0,0.0,0.0,0.0,0.0,0.0,0.0,0.0,0.0,0.0,0.0,0.0,0.0,0.0,0.0,0.0,0.0,0.0,0.0,0.0,0.0,0.0,0.0,0.0,0.0,0.0,0.0,0.0,0.0,0.0,0.0,0.0,0.0,0.0,0.0,0.0,0.0,0.0,0.0,0.0,0.0,0.0,0.0,0.0,0.0,0.0,0.0,0.0,0.0,0.0,0.0,0.0,0.0,0.0,0.0,0.0,0.0,0.0,0.0,0.0,0.0,0.0,0.0,0.0,0.0,0.0,0.0,0.0,0.0,0.0,0.0,0.0,0.0,0.0,0.0,0.0,0.0,0.0,0.0,0.0,0.0,0.0,0.0,0.0,0.0,0.0,0.0,0.0,0.0,0.0,0.0,0.0,0.0,0.0,0.0,0.0,0.0,0.0,0.0,0.0,-2.97,-3.1076,0.0,-3.3307,-3.3334,-3.316,-3.177,-3.0541,-2.97,0.0,0.0,0.0,0.0,0.0,0.0,0.0,0.0,0.0,0.0,0.0,0.0,0.0,0.0,0.0,0.0,0.0,0.0,0.0,0.0,0.0,0.0,0.0,0.0,0.0,0.0,0.0,0.0,0.0,0.0,0.0,0.0,0.0,0.0,0.0,0.0,0.0,0.0,0.0,0.0,0.0,0.0,0.0,0.0,0.0,0.0,0.0,0.0,0.0,0.0,0.0,0.0,0.0,0.0,0.0,0.0,0.0,0.0,0.0,0.0,0.0,0.0,0.0,0.0,0.0,0.0,0.0,0.0,0.0,0.0,0.0,0.0,0.0,0.0,0.0,0.0,0.0,0.0,0.0,0.0,0.0,0.0,0.0,0.0,0.0,0.0,0.0,0.0,0.0,0.0,0.0,0.0,0.0,0.0,0.0,0.0,0.0,0.0,0.0,0.0,0.0,0.0,-2.8257,-2.9566,-3.0955,0.0,-3.2959,-3.2986,-3.2599,-3.149,-3.0354,-2.9272,0.0,0.0,0.0,0.0,0.0,0.0,0.0,0.0,0.0,0.0,0.0,0.0,0.0,0.0,0.0,0.0,0.0,0.0,0.0,0.0,0.0,0.0,0.0,0.0,0.0,0.0,0.0,0.0,0.0,0.0,0.0,0.0,0.0,0.0,0.0,0.0,0.0,0.0,0.0,0.0,0.0,0.0,0.0,0.0,0.0,0.0,0.0,0.0,0.0,0.0,0.0,0.0,0.0,0.0,0.0,0.0,0.0,0.0,0.0,0.0,0.0,0.0,0.0,0.0,0.0,0.0,0.0,0.0,0.0,0.0,0.0,0.0,0.0,0.0,0.0,0.0,0.0,0.0,0.0,0.0,0.0,0.0,0.0,0.0,0.0,0.0,0.0,0.0,0.0,0.0,0.0,0.0,0.0,0.0,0.0,0.0,0.0,0.0,0.0,0.0,0.0,0.0,-2.8073,-2.9521,-3.0808,-3.1971,-3.2358,-3.2402,-3.1704,-3.0581,-2.9539,0.0,0.0,0.0,0.0,0.0,0.0,0.0,0.0,0.0,0.0,0.0,0.0,0.0,0.0,0.0,0.0,0.0,0.0,0.0,0.0,0.0,0.0,0.0,0.0,0.0,0.0,0.0,0.0,0.0,0.0,0.0,0.0,0.0,0.0,0.0,0.0,0.0,0.0,0.0,0.0,0.0,0.0,0.0,0.0,0.0,0.0,0.0,0.0,0.0,0.0,0.0,0.0,0.0,0.0,0.0,0.0,0.0,0.0,0.0,0.0,0.0,0.0,0.0,0.0,0.0,0.0,0.0,0.0,0.0,0.0,0.0,0.0,0.0,0.0,0.0,0.0,0.0,0.0,0.0,0.0,0.0,0.0,0.0,0.0,0.0,0.0,0.0,0.0,0.0,0.0,0.0,0.0,0.0,0.0,0.0,0.0,0.0,0.0,0.0,0.0,0.0,0.0,0.0,-2.7709,-2.9312,-3.0648,-3.141,-3.1931,-3.1917,-3.1116,-3.0167,-2.9232,-2.8337,0.0,0.0,0.0,0.0,0.0,0.0,0.0,0.0,0.0,0.0,0.0,0.0,0.0,0.0,0.0,0.0,0.0,0.0,0.0,0.0,0.0,0.0,0.0,0.0,0.0,0.0,0.0,0.0,0.0,0.0,0.0,0.0,0.0,0.0,0.0,0.0,0.0,0.0,0.0,0.0,0.0,0.0,0.0,0.0,0.0,0.0,0.0,0.0,0.0,0.0,0.0,0.0,0.0,0.0,0.0,0.0,0.0,0.0,0.0,0.0,0.0,0.0,0.0,0.0,0.0,0.0,0.0,0.0,0.0,0.0,0.0,0.0,0.0,0.0,0.0,0.0,0.0,0.0,0.0,0.0,0.0,0.0,0.0,0.0,0.0,0.0,0.0,0.0,0.0,0.0,0.0,0.0,0.0,0.0,0.0,0.0,0.0,0.0,0.0,0.0,0.0,0.0,-2.7428,-2.8978,-3.0234,-3.0822,-3.1303,-3.1223,-3.0341,-2.978,-2.9005,-2.7953,0.0,0.0,0.0,0.0,0.0,0.0,0.0,0.0,0.0,0.0,0.0,0.0,0.0,0.0,0.0,0.0,0.0,0.0,0.0,0.0,0.0,0.0,0.0,0.0,0.0,0.0,0.0,0.0,0.0,0.0,0.0,0.0,0.0,0.0,0.0,0.0,0.0,0.0,0.0,0.0,0.0,0.0,0.0,0.0,0.0,0.0,0.0,0.0,0.0,0.0,0.0,0.0,0.0,0.0,0.0,0.0,0.0,0.0,0.0,0.0,0.0,0.0,0.0,0.0,0.0,0.0,0.0,0.0,0.0,0.0,0.0,0.0,0.0,0.0,0.0,0.0,0.0,0.0,0.0,0.0,0.0,0.0,0.0,0.0,0.0,0.0,0.0,0.0,0.0,0.0,0.0,0.0,0.0,0.0,0.0,0.0,0.0,0.0,0.0,0.0,0.0,0.0,-2.7188,-2.8537,-2.9659,-3.0221,-3.0515,-3.0327,-2.9472,-2.9379,-2.8764,-2.7348,0.0,0.0,0.0,0.0,0.0,0.0,0.0,0.0,0.0,0.0,0.0,0.0,0.0,0.0,0.0,0.0,0.0,0.0,0.0,0.0,0.0,0.0,0.0,0.0,0.0,0.0,0.0,0.0,0.0,0.0,0.0,0.0,0.0,0.0,0.0,0.0,0.0,0.0,0.0,0.0,0.0,0.0,0.0,0.0,0.0,0.0,0.0,0.0,0.0,0.0,0.0,0.0,0.0,0.0,0.0,0.0,0.0,0.0,0.0,0.0,-2.8243,0.0,0.0,0.0,0.0,0.0,0.0,0.0,0.0,0.0,0.0,0.0,0.0,0.0,0.0,0.0,0.0,0.0,0.0,0.0,0.0,0.0,0.0,0.0,0.0,0.0,0.0,0.0,0.0,0.0,0.0,0.0,0.0,0.0,0.0,0.0,0.0,0.0,0.0,0.0,0.0,0.0,-2.7188,-2.8364,-2.9272,-2.9633,-2.9726,-2.9499,-2.8845,-2.8564,-2.8181,-2.7321,-2.7041,0.0,0.0,0.0,0.0,0.0,0.0,0.0,0.0,0.0,0.0,0.0,0.0,0.0,0.0,0.0,0.0,0.0,0.0,0.0,0.0,0.0,0.0,0.0,0.0,0.0,0.0,0.0,0.0,0.0,0.0,0.0,0.0,0.0,0.0,0.0,0.0,0.0,0.0,0.0,0.0,0.0,0.0,0.0,0.0,0.0,0.0,0.0,0.0,0.0,0.0,0.0,0.0,0.0,0.0,0.0,0.0,0.0,0.0,0.0,0.0,-2.8364,0.0,0.0,0.0,0.0,0.0,0.0,0.0,0.0,0.0,0.0,0.0,0.0,0.0,0.0,0.0,0.0,0.0,0.0,0.0,0.0,0.0,0.0,0.0,0.0,0.0,0.0,0.0,0.0,0.0,0.0,0.0,0.0,0.0,0.0,0.0,0.0,0.0,0.0,0.0,0.0,-2.7188,-2.831,-2.9098,-2.9259,-2.9392,-2.9245,-2.8657,-2.8457,-2.811,-2.7509,-2.7201,0.0,0.0,0.0,0.0,0.0,0.0,0.0,0.0,0.0,0.0,0.0,0.0,0.0,0.0,0.0,0.0,0.0,0.0,0.0,0.0,0.0,0.0,0.0,0.0,0.0,0.0,0.0,0.0,0.0,0.0,0.0,0.0,0.0,0.0,0.0,0.0,0.0,0.0,0.0,0.0,0.0,0.0,0.0,0.0,0.0,0.0,0.0,0.0,0.0,0.0,0.0,0.0,0.0,-2.9152,-2.9299,-2.9366,-2.9847,-3.01,-3.01,-2.9379,-2.8978,-2.8831,0.0,0.0,0.0,0.0,0.0,0.0,0.0,0.0,0.0,0.0,0.0,0.0,0.0,0.0,0.0,0.0,0.0,0.0,0.0,0.0,0.0,0.0,0.0,0.0,0.0,-2.8221,-2.8154,0.0,0.0,0.0,0.0,0.0,0.0,0.0,0.0,0.0,0.0,0.0,0.0,-2.7201,-2.8217,-2.8898,-2.8951,-2.9138,-2.9058,-2.8564,-2.8524,-2.8283,-2.7736,-2.7428,-2.7028,0.0,0.0,0.0,0.0,0.0,0.0,0.0,0.0,0.0,0.0,0.0,0.0,0.0,0.0,0.0,0.0,0.0,0.0,0.0,0.0,0.0,0.0,0.0,0.0,0.0,0.0,0.0,0.0,0.0,0.0,0.0,0.0,-2.6694,-2.6814,0.0,0.0,0.0,0.0,0.0,0.0,0.0,0.0,0.0,0.0,0.0,0.0,0.0,-2.8671,-2.8911,-2.9179,-2.9579,-3.0127,-3.0167,-3.0314,-3.0568,-3.0648,-3.0808,-3.1049,-3.0929,0.0,-2.9726,-2.9472,0.0,0.0,0.0,0.0,0.0,0.0,0.0,0.0,0.0,0.0,0.0,0.0,0.0,0.0,0.0,0.0,0.0,0.0,0.0,0.0,0.0,0.0,-2.7816,-2.8167,-2.8221,-2.8221,0.0,-2.7816,-2.7509,-2.7255,-2.6934,0.0,0.0,0.0,0.0,0.0,0.0,0.0,-2.7228,-2.7843,-2.8364,-2.8631,-2.8457,-2.8368,-2.8301,-2.8288,-2.8056,-2.7722,-2.7428,-2.7108,-2.6774,-2.6239,0.0,0.0,0.0,0.0,0.0,0.0,0.0,0.0,0.0,0.0,0.0,0.0,0.0,0.0,0.0,0.0,0.0,0.0,0.0,0.0,0.0,0.0,0.0,0.0,0.0,0.0,0.0,0.0,0.0,-2.6413,-2.7068,-2.7068,-2.7068,-2.7068,0.0,0.0,0.0,0.0,0.0,0.0,0.0,0.0,0.0,-2.8898,-2.9352,-2.9726,-3.002,-3.0154,-3.0434,-3.0849,-3.1022,-3.1169,-3.1303,-3.1623,-3.1851,-3.1984,-3.2144,-3.1904,-3.1303,-3.0194,-2.9379,-2.8804,0.0,0.0,0.0,0.0,-2.8341,-2.8404,-2.8404,-2.8404,0.0,-2.8404,0.0,0.0,0.0,0.0,0.0,0.0,0.0,0.0,0.0,0.0,-2.8243,-2.8377,-2.8524,-2.8604,-2.8444,-2.8297,-2.807,0.0,-2.7134,-2.6734,-2.644,0.0,0.0,0.0,0.0,0.0,-2.7228,-2.807,-2.8644,-2.8604,-2.8631,-2.8577,-2.8417,-2.8328,-2.8167,-2.7963,-2.7522,-2.7201,-2.7081,-2.6507,-2.5985,0.0,0.0,0.0,0.0,0.0,0.0,0.0,0.0,0.0,0.0,0.0,0.0,0.0,0.0,0.0,0.0,0.0,0.0,0.0,0.0,0.0,0.0,0.0,0.0,0.0,0.0,0.0,0.0,-2.664,-2.7348,-2.7268,-2.7484,-2.7455,0.0,0.0,0.0,0.0,0.0,0.0,-2.8577,-2.9098,-2.9513,-2.9806,-3.0314,-3.0715,-3.1022,-3.1089,-3.1343,-3.1784,-3.2011,-3.2158,-3.2251,-3.2692,-3.2853,-3.2786,-3.3,-3.2919,-3.2545,-3.1076,-3.0087,-2.9432,-2.8911,-2.8743,-2.8591,-2.8591,-2.8738,-2.8938,-2.8938,-2.8938,-2.8925,-2.8858,0.0,-2.8328,-2.8248,0.0,0.0,0.0,0.0,-2.8248,-2.8243,-2.843,-2.8631,-2.8698,-2.8885,-2.8978,-2.8764,-2.8724,-2.8537,0.0,-2.7402,-2.6961,-2.6667,0.0,0.0,0.0,0.0,-2.7121,-2.7348,-2.8283,-2.8818,-2.8524,-2.8751,-2.8804,-2.8511,-2.827,-2.8221,-2.8221,-2.7655,-2.7375,-2.7375,-2.6814,-2.6226,-2.5638,0.0,0.0,0.0,0.0,0.0,0.0,0.0,0.0,0.0,0.0,0.0,0.0,0.0,0.0,0.0,0.0,0.0,0.0,0.0,0.0,0.0,0.0,0.0,0.0,0.0,0.0,0.0,0.0,0.0,-2.7295,-2.7846,0.0,0.0,0.0,0.0,-2.814,-2.839,-2.8925,-2.978,-3.0127,-3.0421,-3.0715,-3.1022,-3.133,-3.1623,-3.1904,-3.2465,-3.3307,-3.332,-3.348,-3.3774,-3.3801,-3.3654,-3.3374,-3.3387,-3.3227,-3.2906,-3.2265,-3.1476,-3.0675,-3.0368,-3.0074,-2.982,-2.982,-2.9833,-2.9847,-2.9847,-2.9847,-2.9806,-2.9526,-2.9058,-2.8524,-2.8315,-2.8221,0.0,0.0,-2.8221,-2.8301,-2.8511,-2.8591,-2.8671,-2.8951,-2.9032,-2.9032,-2.9018,-2.9018,-2.8845,0.0,-2.7869,-2.7562,-2.7268,0.0,-2.7108,-2.6814,-2.7281,-2.7655,-2.7669,-2.823,-2.8511,-2.8288,-2.8444,-2.8497,-2.8274,-2.8234,-2.8221,-2.8221,-2.7856,-2.7682,-2.7682,-2.7108,-2.6533,-2.6023,-2.5651,0.0,0.0,0.0,0.0,0.0,0.0,0.0,0.0,0.0,0.0,0.0,0.0,0.0,0.0,0.0,0.0,0.0,0.0,0.0,0.0,0.0,0.0,0.0,0.0,0.0,0.0,0.0,0.0,-2.8404,-2.8925,0.0,0.0,-2.9032,-2.9058,-2.9272,-2.974,-3.0154,-3.0461,-3.0942,-3.1423,-3.1904,-3.2385,-3.2866,-3.3374,-3.348,-3.3681,-3.4002,-3.4002,-3.3961,-3.3881,-3.3881,-3.3708,-3.3414,-3.3414,-3.336,-3.324,-3.3026,-3.2318,-3.1303,-3.0822,-3.0461,-3.0207,-3.0207,-3.0207,-3.0207,-3.0207,-3.0207,-3.0127,-2.9646,-2.9085,-2.8591,-2.847,-2.8297,-2.8274,-2.839,-2.8444,-2.8511,-2.8804,-2.9165,-2.9472,-2.9579,-2.99,-3.006,-2.9686,-2.9606,-2.9432,-2.8831,-2.8323,-2.7896,-2.7589,-2.7388,-2.7228,-2.7121,-2.7442,-2.7696,-2.7696,-2.823,-2.8564,-2.8457,-2.8537,-2.8564,-2.8457,-2.8341,-2.8221,-2.8221,-2.7682,-2.7415,-2.7415,-2.668,-2.6079,-2.5678,-2.5384,-2.4943,0.0,0.0,0.0,0.0,0.0,0.0,0.0,0.0,0.0,0.0,0.0,0.0,0.0,0.0,0.0,0.0,0.0,0.0,0.0,0.0,0.0,0.0,0.0,0.0,0.0,0.0,-2.9045,-2.9446,-3.0007,-3.0314,-3.0221,-3.0207,-3.0247,-3.0354,-3.0902,-3.1316,-3.1517,-3.2091,-3.2639,-3.3133,-3.3521,-3.3908,-3.4322,-3.4322,-3.4322,-3.4322,-3.4429,-3.4322,-3.4042,-3.4135,-3.3961,-3.3574,-3.3574,-3.3507,-3.3414,-3.3414,-3.2959,-3.2211,-3.1717,-3.1356,-3.1089,-3.0982,-3.0942,-3.0929,-3.0835,-3.0742,-3.0568,-3.0087,-2.9526,-2.9032,-2.8938,-2.8684,-2.8484,-2.8698,-2.8831,-2.8978,-2.9259,-2.97,-3.0087,-3.0194,-3.0515,-3.0688,-3.0301,-3.014,-2.9927,-2.9432,-2.8858,-2.831,-2.7909,-2.7776,-2.7655,-2.7442,-2.7655,-2.7843,-2.7843,-2.8297,-2.8564,-2.8457,-2.8537,-2.8564,-2.8457,-2.8163,-2.7949,-2.7939,-2.7388,-2.7068,-2.6974,-2.6319,-2.5812,-2.5518,-2.513,-2.469,-2.4209,0.0,0.0,0.0,0.0,0.0,0.0,0.0,0.0,0.0,0.0,0.0,0.0,0.0,0.0,0.0,0.0,0.0,0.0,0.0,0.0,0.0,0.0,0.0,-2.8207,-2.8965,-2.9753,-3.0341,-3.0929,-3.1183,-3.0902,-3.0889,-3.1009,-3.1289,-3.1851,-3.2425,-3.2986,-3.3587,-3.4042,-3.4322,-3.4336,-3.4336,-3.4349,-3.4349,-3.4349,-3.4349,-3.4629,-3.4603,-3.4336,-3.4603,-3.4416,-3.3868,-3.3868,-3.3694,-3.3414,-3.3414,-3.3414,-3.3387,-3.3106,-3.2812,-3.2519,-3.2225,-3.2104,-3.2051,-3.177,-3.1476,-3.1183,-3.0902,-3.0408,-2.9873,-2.9579,-2.9299,-2.9072,-2.9072,-2.9285,-2.9579,-2.9873,-3.0167,-3.0461,-3.0742,-3.0808,-3.0822,-3.0808,-3.0581,-3.0287,-3.0007,-2.9472,-2.8871,-2.8341,-2.8417,-2.8417,-2.7802,-2.7963,0.0,-2.8221,-2.8404,-2.8484,-2.8261,-2.8417,-2.847,-2.8248,-2.7856,-2.7562,-2.7281,-2.6974,-2.6667,-2.6386,-2.6092,-2.5785,-2.5491,-2.493,-2.4489,-2.4209,0.0,0.0,0.0,0.0,0.0,0.0,0.0,0.0,0.0,0.0,0.0,0.0,0.0,0.0,0.0,0.0,0.0,0.0,0.0,0.0,0.0,0.0,-2.8457,-2.8751,-2.9927,-3.0969,-3.1557,-3.2332,-3.2772,-3.2692,-3.2906,-3.3066,-3.3146,-3.3494,-3.3788,-3.3948,-3.4108,-3.4336,-3.4629,-3.4643,-3.475,-3.495,-3.495,-3.495,-3.495,-3.483,-3.4603,-3.4322,-3.4189,-3.3908,-3.3547,-3.3547,-3.3494,-3.3414,-3.3414,-3.3414,-3.34,-3.332,-3.312,-3.2826,-3.2532,-3.2158,-3.1784,-3.1704,-3.1476,-3.1209,-3.1129,-3.0715,-3.0181,-2.9887,-2.974,-2.9673,-2.9673,-2.9887,-3.0181,-3.0474,-3.0768,-3.1009,-3.1089,-3.1276,-3.137,-3.1156,-3.0875,-3.0648,-3.0568,-3.0074,-2.9419,-2.8617,-2.8724,-2.8711,-2.811,-2.8283,0.0,-2.8261,-2.8301,-2.8243,-2.8234,-2.8301,-2.8315,-2.8234,-2.7682,-2.7348,-2.7268,-2.6587,-2.6159,-2.6079,-2.5585,-2.5184,-2.489,-2.4642,-2.4489,0.0,0.0,0.0,0.0,0.0,0.0,0.0,0.0,0.0,0.0,0.0,0.0,0.0,0.0,0.0,0.0,0.0,0.0,0.0,0.0,0.0,0.0,-2.8871,-2.9566,-3.0234,-3.1049,-3.1904,-3.2746,-3.3293,-3.3654,-3.3774,-3.3961,-3.4068,-3.4068,-3.4336,-3.4509,-3.4509,-3.4616,-3.471,-3.4763,-3.4763,-3.4843,-3.5017,-3.5017,-3.495,-3.483,-3.491,-3.4656,-3.4135,-3.4215,-3.4015,0.0,-3.3614,-3.3534,-3.3414,-3.3414,-3.3414,0.0,0.0,0.0,0.0,0.0,-3.2438,-3.2024,-3.1891,-3.1744,-3.157,-3.145,-3.1102,-3.0688,-3.0515,-3.0381,-3.0287,-3.0287,-3.0488,-3.0755,-3.0929,-3.1196,-3.141,-3.141,-3.1543,-3.1623,-3.145,-3.1183,-3.0942,-3.0822,-3.0421,0.0,-2.9098,-2.9005,-2.8885,-2.8404,-2.8377,-2.835,-2.8248,-2.8221,-2.8221,-2.8221,-2.8221,-2.8221,-2.8221,-2.7685,0.0,0.0,0.0,-2.5665,-2.5411,-2.5077,0.0,0.0,0.0,-2.4743,-2.4569,0.0,0.0,0.0,-2.4422,-2.4422,0.0,0.0,0.0,0.0,0.0,0.0,0.0,0.0,0.0,0.0,0.0,0.0,0.0,0.0,0.0,0.0,-2.9927,-3.0915,-3.2091,-3.2278,-3.2692,-3.3761,-3.3948,-3.4082,-3.4349,-3.4402,-3.4416,-3.4416,-3.467,-3.4817,-3.4817,0.0,0.0,0.0,0.0,-3.479,-3.4763,-3.479,-3.4643,-3.4322,-3.4843,-3.4696,-3.3948,-3.4402,-3.4349,-3.3881,-3.3855,-3.3668,-3.3414,-3.3414,-3.3414,-3.3414,-3.3414,-3.3387,-3.3334,-3.3066,-3.2799,-3.2505,-3.2211,0.0,0.0,-3.1757,-3.149,-3.1276,-3.1236,-3.1062,-3.0889,-3.0849,-3.1049,-3.1276,-3.1276,-3.1476,-3.1664,-3.1664,-3.1637,-3.1623,-3.1664,-3.141,-3.1116,-3.0889,-3.0581,-3.0207,-2.9713,-2.9352,-2.9032,-2.8711,-2.8444,-2.8368,-2.8328,-2.8301,-2.8274,-2.8274,0.0,0.0,-2.8221,-2.7685,-2.7041,-2.652,-2.5905,-2.5317,-2.4756,-2.473,-2.473,-2.473,-2.4997,-2.513,-2.513,-2.5358,-2.5504,-2.5545,-2.4997,-2.501,0.0,0.0,0.0,0.0,0.0,0.0,0.0,0.0,0.0,0.0,0.0,0.0,0.0,0.0,0.0,-2.9873,-3.0849,-3.1837,-3.3013,-3.3387,-3.3627,-3.3855,-3.4309,-3.4616,-3.467,-3.4883,-3.503,-3.503,-3.5084,-3.511,-3.511,-3.5164,0.0,-3.511,-3.511,-3.5004,-3.4763,-3.499,-3.4843,-3.4322,0.0,0.0,-3.4229,-3.3841,-3.3748,-3.3868,-3.3614,-3.3467,-3.3414,-3.3414,-3.3414,-3.3414,-3.3414,-3.3267,-3.3053,-3.3,-3.2799,-3.2505,-3.2211,-3.2104,-3.2051,-3.1757,-3.1623,-3.1543,-3.1303,-3.1356,0.0,-3.1209,-3.1356,-3.1583,-3.1583,-3.1623,-3.1664,-3.1664,-3.149,-3.1383,-3.1623,-3.1249,-3.0929,-3.1102,-3.0715,-3.0394,-3.0515,-3.01,-2.9566,-2.9032,-2.9112,-2.9138,-2.8898,-2.8657,-2.8524,-2.8524,-2.8297,-2.8221,-2.8221,-2.7685,-2.7215,-2.7108,-2.6333,-2.5718,-2.5358,-2.5344,-2.5344,-2.5344,-2.5398,-2.5424,-2.5424,-2.5251,-2.5411,-2.5865,-2.5504,-2.5398,0.0,0.0,0.0,0.0,0.0,0.0,0.0,0.0,0.0,0.0,0.0,-2.7268,0.0,0.0,-2.9686,-3.1022,-3.1851,-3.2639,-3.3534,-3.4042,-3.4322,-3.4322,-3.4589,-3.4817,-3.4963,-3.511,-3.5191,-3.5191,-3.5191,-3.5191,-3.5191,-3.5191,-3.5137,-3.4977,-3.4977,-3.491,-3.4763,-3.491,-3.475,-3.4322,-3.4616,-3.4523,-3.4095,-3.3935,-3.3868,-3.3868,-3.3547,-3.3414,-3.3414,-3.3414,-3.3414,-3.3414,-3.3414,-3.332,-3.32,-3.32,-3.3106,-3.2919,-3.2478,-3.2318,-3.2251,-3.181,-3.1664,-3.1637,-3.149,-3.1557,-3.1637,-3.149,-3.1557,-3.1664,-3.1664,-3.1664,-3.1664,-3.1664,-3.1557,-3.149,-3.1637,-3.1436,-3.1236,-3.1223,-3.0875,-3.0621,-3.0768,-3.0301,-2.982,-2.9526,-2.9352,-2.9152,-2.8858,-2.8818,-2.8711,-2.8404,-2.8377,-2.831,-2.8248,-2.7685,-2.7201,-2.7054,-2.6493,-2.6106,-2.5959,-2.5812,-2.5732,-2.5732,-2.5732,-2.5732,-2.5732,-2.5585,-2.5742,-2.6023,-2.5651,-2.5598,0.0,0.0,0.0,0.0,0.0,0.0,0.0,0.0,-2.648,-2.7121,-2.7669,-2.8323,-2.9219,-3.006,-3.0955,-3.2011,-3.2732,-3.3347,-3.3895,-3.4429,-3.479,-3.4843,-3.4843,-3.4937,-3.5177,-3.5191,-3.5191,-3.5191,-3.5191,-3.5191,-3.5191,-3.5191,-3.5084,-3.4857,-3.4843,-3.4817,-3.4763,-3.4817,-3.467,-3.4322,-3.4803,-3.4656,-3.3975,-3.4095,-3.4042,-3.3868,-3.3547,-3.3414,-3.3414,-3.3414,-3.3414,-3.3414,-3.3414,-3.3414,-3.34,-3.3347,-3.336,-3.332,-3.2679,-3.2589,-3.2549,-3.1864,-3.1664,-3.1664,-3.1664,-3.1664,-3.1664,-3.1664,-3.1664,-3.1677,-3.1744,-3.1757,-3.1757,-3.1757,-3.1704,-3.1664,-3.1664,-3.1623,-3.1517,-3.1276,-3.1036,-3.0875,-3.0875,-3.0394,-3.0007,-3.0007,-2.9553,-2.9125,-2.8885,-2.9018,-2.8938,-2.8542,-2.8524,-2.8484,-2.8248,-2.7792,-2.7308,-2.7014,-2.6774,-2.6613,-2.656,-2.6279,-2.6132,-2.6132,-2.6066,-2.6117,-2.6117,-2.6063,-2.6063,-2.6039,-2.5625,-2.5585,-2.4556,-2.4302,-2.4462,-2.4917,-2.5251,-2.5678,0.0,0.0,-2.7749,-2.8617,-2.9058,-2.9553,-3.0434,-3.1102,-3.173,-3.2482,-3.3227,-3.3895,-3.4229,-3.4563,-3.4857,-3.5124,-3.5151,-3.5164,-3.5191,-3.5191,-3.5191,-3.5191,-3.5191,-3.5191,-3.5191,-3.5191,-3.5177,-3.5151,-3.5151,-3.5017,-3.4763,-3.5017,-3.487,-3.4322,-3.4389,-3.4362,-3.4255,-3.3748,-3.3654,-3.3868,-3.3547,-3.3414,-3.3414,-3.3414,-3.3414,-3.3414,-3.3414,-3.3414,-3.3374,-3.312,-3.3187,-3.3293,-3.2438,-3.2318,-3.2549,-3.1864,-3.1664,-3.1664,-3.1664,-3.1664,-3.1664,-3.1664,-3.1664,-3.173,-3.1984,-3.2051,-3.2051,-3.2051,-3.1851,-3.1664,-3.1664,-3.1463,-3.1263,-3.1236,-3.1196,-3.1183,-3.1183,-3.0688,-3.0314,-3.0314,-3.0034,-2.9806,-2.978,-2.9566,-2.9406,-2.9339,-2.8898,-2.8484,-2.8248,-2.8167,-2.7923,-2.7615,-2.7575,-2.7442,-2.7175,-2.6881,-2.672,-2.672,-2.6466,-2.6346,-2.6333,-2.6079,-2.6092,-2.6319,-2.5504,-2.5291,-2.485,-2.4716,0.0,0.0,-2.5932,-2.6507,-2.7388,-2.819,-2.8898,-2.9432,-3.0194,-3.0915,-3.145,-3.2171,-3.2826,0.0,-3.3935,-3.4442,-3.4563,-3.4683,-3.475,-3.4696,-3.4683,-3.4817,-3.5164,-3.5191,-3.5191,-3.5191,-3.5191,-3.5191,-3.5191,-3.5191,-3.5191,-3.5191,-3.5191,-3.5137,-3.5017,-3.5137,-3.4897,-3.4322,-3.4496,-3.4402,-3.4055,-3.3801,-3.3654,-3.3601,-3.3467,-3.3414,-3.3414,-3.3414,-3.3414,-3.3414,-3.3414,-3.3414,-3.34,-3.328,-3.3307,-3.3334,-3.2799,-3.2585,-3.2576,-3.2064,-3.1917,-3.1917,-3.1917,-3.2038,-3.2185,-3.2185,-3.2051,-3.1944,-3.2064,-3.1971,-3.1851,-3.1851,-3.1757,-3.1664,-3.1664,-3.157,-3.149,-3.149,-3.1209,-3.1022,-3.1196,-3.0595,-3.0167,-3.0341,-3.0114,-2.986,-2.9686,-2.9713,-2.9673,-2.9499,-2.8951,-2.8551,-2.843,-2.8328,-2.8181,-2.7963,-2.7963,-2.7909,-2.7859,-2.7321,-2.7081,-2.7081,-2.6627,-2.6386,-2.6386,-2.6092,-2.5932,-2.5865,-2.5331,-2.5144,-2.501,0.0,0.0,-2.6253,-2.7001,-2.7762,-2.8564,-2.9446,-3.0194,-3.0568,-3.1383,-3.2118,-3.2412,-3.2986,0.0,-3.3841,-3.4309,-3.4643,-3.4643,-3.4643,-3.4469,-3.4002,-3.3881,-3.4028,-3.4536,-3.4817,-3.499,-3.507,-3.5084,-3.511,-3.5191,-3.5191,-3.5164,-3.5084,-3.5151,-3.5124,-3.495,-3.503,-3.4817,-3.4322,-3.4456,-3.4295,-3.3881,-3.3801,-3.3627,-3.3414,-3.3414,-3.3414,-3.3414,-3.3414,-3.3414,-3.3414,-3.3414,-3.3414,-3.3414,-3.3414,-3.3414,-3.3347,-3.2893,-3.2706,-3.2599,-3.2225,-3.2158,-3.2225,-3.2225,-3.2372,-3.2643,-3.2643,-3.2385,-3.2225,-3.2225,-3.2064,-3.1891,-3.181,-3.1784,-3.177,-3.169,-3.1664,-3.1664,-3.1664,-3.133,-3.1076,-3.1209,-3.0702,-3.0327,-3.0461,-3.0234,-2.9927,-2.9633,-2.978,-2.9806,-2.9513,-2.9032,-2.8698,-2.8617,-2.8323,-2.8221,-2.8221,-2.8221,-2.8221,-2.8221,-2.7655,-2.7388,-2.7388,-2.6814,-2.6507,-2.6507,-2.6213,-2.5959,-2.5745,-2.5451,-2.5317,0.0,0.0,-2.6213,-2.7362,-2.8537,-2.9566,-3.0154,-3.0969,-3.177,-3.2442,-3.2719,-3.3026,-3.332,-3.3387,-3.3521,-3.3841,-3.4135,-3.4336,-3.4336,-3.4336,-3.4002,-3.312,-3.2772,-3.2719,0.0,-3.3828,-3.4469,-3.475,-3.4776,-3.4897,-3.5177,-3.5191,-3.507,-3.479,-3.5044,-3.4923,-3.4349,-3.4629,-3.4629,-3.4322,-3.4042,-3.3908,-3.3881,-3.3561,-3.3427,-3.3414,-3.3414,-3.3414,-3.3414,-3.3414,-3.3414,-3.3414,-3.3414,-3.3414,-3.3414,-3.3414,-3.3414,-3.3293,-3.2425,-3.2492,-3.2866,-3.2291,-3.2291,-3.2629,-3.2629,-3.2629,-3.2643,-3.2643,-3.2629,-3.2629,-3.2629,-3.2629,-3.2452,-3.2158,-3.2091,-3.2011,-3.173,-3.1664,-3.1664,-3.1664,-3.165,-3.1557,-3.1276,-3.1209,-3.1089,-3.0822,-3.0528,-3.0234,-2.994,-2.9913,-2.9806,-2.9513,-2.9205,-2.8911,-2.8631,-2.8323,-2.8221,-2.8221,-2.8221,-2.8221,-2.8221,-2.7843,-2.7682,-2.7682,-2.7108,-2.6814,-2.6814,-2.652,-2.6373,-2.636,-2.6066,-2.601,0.0,0.0,-2.7442,-2.8831,-2.9766,-3.0555,-3.1343,-3.2051,-3.2545,-3.2545,-3.2158,-3.1784,-3.169,-3.1837,-3.2064,-3.2372,-3.348,-3.4322,-3.4322,-3.4322,-3.3841,-3.2545,-3.2492,0.0,0.0,0.0,0.0,-3.4696,-3.4763,-3.4897,-3.5177,-3.5017,-3.487,-3.4763,-3.467,-3.4523,-3.4322,-3.4416,-3.4322,-3.4028,-3.3721,-3.3574,-3.3574,-3.3454,-3.3414,-3.3414,-3.3414,-3.3414,-3.3414,-3.3414,-3.3414,-3.3414,-3.3414,-3.3414,-3.3414,-3.3414,-3.3293,-3.3106,-3.3013,-3.2973,-3.2946,-3.2746,-3.2746,-3.2839,-3.2839,-3.2973,-3.312,-3.312,-3.2986,-3.2839,-3.2839,-3.2692,-3.2478,-3.2171,-3.2104,-3.2024,-3.173,-3.1664,-3.1664,-3.1664,-3.1517,-3.1343,-3.1249,-3.1062,-3.0902,-3.0808,-3.0541,-3.0247,-2.9953,-2.9913,-2.9887,-2.978,-2.9513,-2.9219,-2.8911,-2.8617,-2.8364,-2.8248,-2.8221,-2.8221,-2.8221,-2.7856,-2.7696,-2.7696,-2.7308,-2.7014,-2.6827,-2.672,-2.648,-2.6106,-2.5999,-2.6037,0.0,-2.7522,-2.8951,-3.0221,-3.1062,-3.1717,-3.2291,-3.2706,-3.2866,-3.2465,-3.169,-3.0955,-3.0555,-3.0541,-3.0702,-3.0996,-3.2091,-3.3053,-3.3467,-3.3347,-3.2893,-3.2051,-3.2024,0.0,0.0,0.0,0.0,-3.4189,-3.4282,-3.4456,-3.4857,-3.471,-3.4563,-3.4456,-3.4362,-3.4215,-3.4002,-3.4108,-3.4015,-3.3721,-3.3507,-3.3414,-3.3414,-3.3414,-3.3414,-3.3414,-3.3414,-3.3414,-3.3414,-3.3414,-3.3414,-3.3414,-3.3414,-3.3347,-3.3267,-3.3374,-3.3227,-3.3,-3.3187,-3.3133,-3.2973,-3.2973,-3.3053,-3.3133,-3.3133,-3.3267,-3.3414,-3.3414,-3.328,-3.3106,-3.3,-3.2839,-3.2625,-3.2332,-3.2185,-3.2051,-3.1864,-3.1744,-3.1664,-3.1664,-3.1517,-3.1356,-3.1249,-3.1076,-3.0915,-3.0808,-3.0635,-3.0448,-3.0247,-3.014,-3.0074,-3.0074,-2.9619,-2.9245,-2.9058,-2.8671,-2.835,-2.8248,-2.8221,-2.8221,-2.8221,-2.7963,-2.7856,-2.7856,-2.7575,-2.7268,-2.6987,-2.6867,-2.6573,-2.6106,-2.6106,-2.6106,-2.7762,-2.9387,-3.0635,-3.1517,-3.2358,-3.2973,-3.2973,-3.2959,-3.2759,-3.2144,-3.1263,-3.0434,0.0,0.0,-2.9486,-2.982,-3.0207,-3.0875,-3.2011,-3.1704,-3.1436,0.0,0.0,0.0,0.0,0.0,0.0,-3.3307,0.0,-3.3681,-3.4309,-3.4309,-3.4175,-3.3921,-3.4148,-3.4002,-3.3414,-3.3708,-3.3708,-3.3414,-3.3414,-3.3414,-3.3414,-3.3414,-3.3414,-3.3414,-3.3414,-3.3414,-3.3414,-3.3414,-3.3414,-3.3414,-3.3414,-3.324,-3.3026,-3.3307,-3.3227,-3.2986,-3.3,-3.3,-3.3,-3.3,-3.3187,-3.3414,-3.3414,-3.3414,-3.3414,-3.3414,-3.3414,-3.3347,-3.3066,-3.3,-3.2933,-3.2639,-3.2358,-3.2144,-3.2104,-3.1891,-3.169,-3.1677,-3.1664,-3.1583,-3.1289,-3.1249,-3.1156,-3.0875,-3.0835,-3.0808,-3.0755,-3.0501,-3.0341,-3.0341,-2.9593,-2.9085,-2.9058,-2.8524,-2.8261,-2.8248,-2.8234,-2.8221,-2.8221,-2.8221,-2.8221,-2.8221,-2.7869,-2.7575,-2.7281,-2.7001,-2.672,-2.644,-2.6413,-2.6413,-2.9098,-3.0381,-3.1543,-3.2425,-3.2812,-3.2973,-3.2973,-3.2639,-3.2038,-3.1009,-2.9392,-2.7989,0.0,0.0,0.0,-2.9112,-3.0795,0.0,-3.2973,-3.316,0.0,0.0,0.0,-3.2038,-3.1597,-3.1824,0.0,0.0,-3.3307,-3.3788,-3.4603,-3.4242,-3.4068,-3.4202,-3.3841,-3.3574,-3.3414,-3.3494,-3.3494,-3.3414,-3.3414,-3.3414,-3.3414,-3.3414,-3.3414,-3.3414,-3.3414,-3.3414,-3.3414,-3.3414,-3.3414,-3.3414,-3.3414,-3.336,-3.3307,-3.3387,-3.3227,-3.3013,-3.3227,-3.3293,-3.3293,-3.3293,-3.3347,-3.3414,-3.3414,-3.3414,-3.3414,-3.3414,-3.3414,-3.3387,-3.332,-3.3293,-3.3227,-3.2933,-3.2812,-3.2639,-3.2198,-3.2051,-3.1931,-3.1717,-3.1664,-3.1637,-3.157,-3.1557,-3.153,-3.1463,-3.145,-3.1129,-3.0247,-3.0074,-3.0034,-3.0034,-2.9833,-2.9606,-2.9392,-2.9032,-2.8724,-2.8497,-2.827,-2.8221,-2.8221,-2.8221,-2.8221,-2.8221,-2.8154,-2.7883,-2.7589,-2.7509,-2.7321,-2.7041,-2.6814,-2.6707,-3.0515,-3.1543,-3.2398,-3.3013,-3.3066,-3.2839,-3.2332,-3.1757,-3.0889,-2.9325,-2.7762,0.0,0.0,0.0,0.0,0.0,0.0,0.0,-3.2492,-3.2692,-3.2666,0.0,-3.2639,0.0,-3.2104,-3.2318,-3.2625,0.0,-3.3133,-3.3507,-3.4135,-3.3855,-3.3748,-3.3921,-3.3587,-3.3414,-3.3414,-3.3414,-3.3414,-3.3414,-3.3414,-3.3414,-3.3414,-3.3414,-3.3414,-3.3414,0.0,-3.3414,-3.3414,-3.3414,-3.3414,-3.3414,-3.3414,-3.3334,-3.324,-3.336,-3.3227,-3.3026,-3.3307,-3.3414,-3.3414,-3.3414,-3.332,-3.324,-3.3374,-3.3414,-3.3414,-3.3414,-3.3414,-3.3414,-3.3414,-3.3414,-3.3374,-3.32,-3.2973,-3.2706,-3.2372,-3.2091,-3.1864,-3.1704,-3.1664,-3.1664,-3.1664,-3.1664,-3.1623,-3.149,-3.1476,-3.1183,-3.0408,-3.0301,-3.0247,-3.0127,-2.9873,-2.9659,-2.9499,-2.9205,-2.8911,-2.8631,-2.8444,-2.8283,-2.8234,-2.8221,-2.8221,-2.8221,-2.8221,-2.8073,-2.7696,-2.7696,-2.7549,-2.7255,-2.6961,-2.6894,-3.1957,-3.2746,-3.3213,-3.3414,-3.32,-3.2612,-3.1436,-3.0595,-2.9499,-2.7509,0.0,0.0,-2.5064,0.0,-2.6253,-2.7321,0.0,-2.9847,-3.165,-3.1677,-3.1891,-3.2919,-3.304,-3.2933,-3.2692,-3.2893,-3.304,-3.304,-3.304,-3.316,-3.3454,-3.3427,-3.3414,-3.3414,-3.3414,-3.3414,-3.3414,-3.3414,-3.3414,-3.3414,-3.3414,-3.3414,-3.3414,-3.3414,-3.3414,-3.3414,0.0,0.0,-3.3414,-3.3414,-3.3414,-3.3414,-3.3414,-3.3253,-3.3066,-3.332,-3.3253,-3.3066,-3.332,-3.3387,-3.336,-3.34,-3.324,-3.308,-3.3334,-3.3414,-3.3414,-3.3414,-3.3414,-3.3414,-3.3414,-3.3414,-3.3414,-3.3414,-3.3026,-3.2737,-3.2656,-3.2091,-3.1664,-3.1664,-3.1664,-3.1664,-3.1664,-3.1664,-3.1583,-3.1316,-3.1289,-3.1183,-3.0889,-3.0782,-3.0635,-3.0381,-2.9873,-2.9539,-2.9539,-2.9272,-2.8991,-2.8738,-2.8644,-2.8484,-2.8301,-2.8248,-2.8221,-2.8221,-2.8221,-2.81,-2.7762,-2.7762,-2.7629,-2.7375,-2.7081,-2.7081,-3.3307,-3.3828,-3.4042,-3.3855,-3.3213,-3.2318,-3.1129,-2.9646,0.0,0.0,0.0,-2.4756,-2.4422,0.0,0.0,-2.839,0.0,0.0,0.0,0.0,-3.3106,0.0,0.0,0.0,0.0,0.0,0.0,0.0,0.0,0.0,-3.3788,-3.3547,-3.3414,-3.3414,-3.3414,-3.3414,-3.3414,-3.3414,-3.3414,-3.3414,-3.3414,-3.3414,-3.3414,-3.3414,-3.3414,-3.3414,-3.3414,0.0,-3.3414,-3.3414,-3.3414,-3.3414,-3.3414,-3.3374,-3.3347,-3.3387,-3.3374,-3.3347,-3.3387,-3.3253,-3.3093,-3.3334,-3.3374,-3.3347,-3.34,-3.3414,-3.3414,-3.3414,-3.3414,-3.3414,-3.3414,-3.3414,-3.3414,-3.3414,-3.3334,-3.3133,-3.275,-3.2091,-3.1664,-3.1664,-3.1664,-3.1664,-3.1664,-3.1664,-3.165,-3.1597,-3.1597,-3.149,-3.1196,-3.0728,-3.0421,-3.0368,-3.0047,-2.9847,-2.9847,-2.9566,-2.9379,-2.9339,-2.8871,-2.8577,-2.8524,-2.8283,-2.8221,-2.8221,-2.8221,-2.8207,-2.8154,-2.8154,-2.8127,-2.806,-2.7682,-2.7575,-3.3908,-3.4215,-3.4255,-3.3961,-3.3093,-3.1891,-3.0247,0.0,0.0,0.0,0.0,-2.4369,-2.4222,0.0,0.0,0.0,0.0,0.0,0.0,0.0,0.0,0.0,0.0,0.0,0.0,0.0,0.0,0.0,0.0,0.0,-3.3627,-3.3494,-3.3414,-3.3414,-3.3414,-3.3414,-3.3414,-3.3414,-3.3414,-3.3414,-3.3414,-3.3414,-3.3414,-3.3414,-3.3414,-3.3414,-3.3414,0.0,-3.3414,-3.3414,-3.3414,-3.3414,-3.3414,-3.3414,-3.3414,-3.3414,-3.3414,-3.3414,-3.3414,-3.332,-3.3227,-3.336,-3.3307,-3.3213,-3.336,-3.3414,-3.3414,-3.3414,-3.3414,-3.3414,-3.3414,-3.3414,-3.3414,-3.3414,-3.3293,-3.3026,-3.2438,-3.2211,-3.2038,-3.173,-3.1797,-3.1851,-3.169,-3.1664,-3.1664,-3.1664,-3.1664,-3.1623,-3.1476,-3.1076,-3.0702,-3.0394,-3.01,-2.9913,-2.9913,-2.9793,-2.9579,-2.9272,-2.8991,-2.8684,-2.8377,-2.8301,-2.8221,-2.8221,-2.8221,-2.8221,-2.8221,-2.8221,-2.8221,-2.8221,-2.7843,-2.7776,-3.4269,-3.4456,-3.4429,-3.4068,-3.2986,-3.149,-2.9486,-2.7976,0.0,0.0,0.0,0.0,0.0,0.0,0.0,0.0,0.0,0.0,0.0,0.0,0.0,0.0,0.0,0.0,0.0,0.0,0.0,0.0,0.0,0.0,-3.3414,-3.3414,-3.3414,-3.3414,-3.3414,-3.3414,-3.3414,-3.3414,-3.3414,-3.3414,-3.3414,-3.3414,-3.3414,-3.3414,-3.3374,-3.332,-3.3387,0.0,0.0,-3.3387,-3.3414,-3.3414,-3.3414,-3.3414,-3.3414,-3.3414,-3.3414,-3.3414,-3.3414,-3.3414,-3.3414,-3.3414,-3.3253,-3.312,-3.3347,-3.3414,-3.3414,-3.3414,-3.3414,-3.3414,-3.3414,-3.3414,-3.3414,-3.3414,-3.3187,-3.2853,-3.2385,-3.2372,-3.2318,-3.1851,-3.1891,-3.1931,-3.1704,-3.1664,-3.1664,-3.1664,-3.1664,-3.1664,-3.1664,-3.141,-3.1049,-3.0595,-3.0221,-3.0007,-3.0007,-2.9953,-2.97,-2.9165,-2.9072,-2.8804,-2.8355,-2.8261,-2.8221,-2.8221,-2.8221,-2.8221,-2.8221,-2.8221,-2.8221,-2.8221,-2.7896,-2.7923,-3.4629,-3.491,-3.4977,-3.4416,-3.2986,-3.1236,-2.9446,0.0,0.0,0.0,0.0,0.0,0.0,0.0,0.0,0.0,0.0,0.0,0.0,0.0,0.0,0.0,0.0,0.0,0.0,0.0,0.0,0.0,0.0,0.0,0.0,-3.3414,-3.3414,-3.3414,-3.3414,-3.3414,-3.3414,-3.3414,-3.3414,-3.3414,-3.3414,-3.3414,-3.3414,-3.3414,-3.3267,-3.3026,-3.3293,0.0,0.0,-3.3307,-3.3414,-3.3414,-3.3414,-3.3414,-3.3414,-3.3414,-3.3414,-3.3414,-3.3414,-3.3414,-3.3414,-3.3414,-3.3387,-3.3374,-3.34,-3.3414,-3.3414,-3.3414,-3.3414,-3.3414,-3.3414,-3.3414,-3.3414,-3.3414,-3.3187,-3.2959,-3.2906,-3.2505,-3.2131,-3.2078,-3.1877,-3.1704,-3.1677,-3.1664,-3.1664,-3.1664,-3.1664,-3.1664,-3.1664,-3.141,-3.1209,-3.1156,-3.0648,-3.0314,-3.0314,-3.0074,-2.978,-2.9459,-2.9192,-2.8898,-2.8577,-2.8297,-2.8221,-2.8221,-2.8221,-2.8221,-2.8221,-2.8221,-2.8221,-2.8221,-2.8194,-2.8207,-3.471,-3.5231,-3.5324,-3.4736,-3.2986,-3.0982,-2.9406,0.0,0.0,-2.4676,-2.4462,-2.4462,0.0,0.0,0.0,0.0,0.0,0.0,0.0,0.0,0.0,0.0,0.0,0.0,0.0,0.0,0.0,0.0,0.0,0.0,0.0,-3.3414,-3.3414,-3.3414,-3.3414,-3.3414,-3.3414,-3.3414,-3.3414,-3.3414,-3.3414,-3.3414,-3.3414,-3.3414,-3.3253,-3.2986,-3.328,0.0,0.0,-3.3293,-3.3414,-3.3414,-3.3414,-3.3414,-3.3414,-3.3414,-3.3414,-3.3414,-3.3414,-3.3414,-3.3414,-3.3414,-3.3414,-3.3414,-3.3414,-3.3414,-3.3414,-3.3414,-3.3414,-3.3414,-3.3414,-3.3414,-3.3414,-3.3414,-3.332,-3.3146,-3.2799,-3.2666,-3.2478,-3.1944,-3.1891,-3.1877,-3.1704,-3.1664,-3.1664,-3.1664,-3.1664,-3.1664,-3.1664,-3.157,-3.149,-3.149,-3.0969,-3.0555,-3.0381,-3.0247,-2.998,-2.9513,-2.9205,-2.8991,-2.8871,-2.8404,-2.8315,-2.8417,-2.8243,-2.8221,-2.8221,-2.8221,-2.8221,-2.8221,-2.8221,-2.8221,-3.4055,-3.495,-3.5364,-3.4776,-3.2919,-3.0849,0.0,0.0,0.0,-2.4823,-2.4636,-2.4636,-2.4636,0.0,0.0,0.0,0.0,0.0,0.0,0.0,0.0,0.0,0.0,0.0,0.0,0.0,0.0,0.0,0.0,0.0,0.0,-3.3414,-3.3414,-3.3414,-3.3414,-3.3414,-3.3414,-3.3414,-3.3414,-3.3414,-3.3414,-3.3414,-3.3414,-3.332,-3.3133,-3.2866,0.0,0.0,0.0,-3.3253,-3.3414,-3.3414,-3.3414,-3.3414,-3.3414,-3.3414,-3.3414,-3.3414,-3.3414,-3.3414,-3.3414,-3.3414,-3.3414,-3.3414,-3.3414,-3.3414,-3.3414,-3.3414,-3.3414,-3.3414,-3.3414,-3.3414,-3.3387,-3.3307,-3.328,-3.3146,-3.2652,-3.2639,-3.2532,-3.1917,-3.1891,-3.1904,-3.1704,-3.1664,-3.1664,-3.1664,-3.1664,-3.1664,-3.1664,-3.1664,-3.1664,-3.1664,-3.1303,-3.0902,-3.0515,-3.0408,-3.0114,-2.9526,-2.9285,-2.9125,-2.9045,-2.8631,-2.847,-2.8604,-2.839,-2.8315,-2.8221,-2.8221,-2.8221,-2.8221,-2.8221,-2.8221,-3.2492,-3.3855,-3.5057,-3.4469,-3.2759,-3.0849,0.0,0.0,0.0,0.0,-2.4636,-2.4636,0.0,0.0,0.0,0.0,0.0,0.0,0.0,0.0,0.0,0.0,0.0,0.0,0.0,0.0,0.0,0.0,0.0,0.0,0.0,-3.3414,-3.3414,-3.3414,-3.3414,-3.3414,-3.3414,-3.3414,-3.3414,-3.3414,-3.3414,-3.3414,-3.34,-3.312,-3.2826,0.0,0.0,0.0,0.0,-3.3173,-3.3414,-3.3414,-3.3414,-3.3414,-3.3414,-3.3414,-3.3414,-3.3414,-3.3414,-3.3414,-3.3414,-3.3414,-3.3414,-3.3414,-3.3414,-3.3414,-3.3414,-3.3414,-3.3414,-3.3414,-3.3414,-3.3414,-3.3334,-3.3053,-3.2986,-3.2906,-3.271,-3.2318,-3.2104,-3.2104,-3.1864,-3.1677,-3.1664,-3.1664,-3.1664,-3.1664,-3.1664,-3.1664,-3.1664,-3.1664,-3.1664,-3.1664,-3.1664,-3.1423,-3.0835,-3.0528,-3.0114,-2.9526,-2.9486,-2.9352,-2.9045,-2.9032,-2.8898,-2.8617,-2.8604,-2.8457,-2.8221,-2.8221,-2.8221,-2.8221,-2.8221,-2.8221,-3.0996,-3.1904,-3.2398,-3.2011,-3.0662,-2.9152,-2.807,0.0,0.0,0.0,0.0,0.0,0.0,0.0,0.0,0.0,0.0,0.0,0.0,0.0,0.0,0.0,0.0,0.0,0.0,0.0,0.0,0.0,0.0,0.0,0.0,-3.3414,-3.3414,-3.3414,-3.3414,-3.3414,-3.3414,-3.3414,-3.3414,-3.3414,-3.3414,-3.3414,-3.34,-3.3106,0.0,0.0,0.0,0.0,0.0,-3.3173,-3.3414,-3.3414,-3.3414,-3.3414,-3.3414,-3.3414,-3.3414,-3.3414,-3.3414,-3.3414,-3.3414,-3.3414,-3.3414,-3.3414,-3.3414,-3.3414,-3.3414,-3.3414,-3.3414,-3.3414,-3.3414,-3.3414,-3.3387,-3.3293,-3.328,-3.32,-3.2906,-3.2612,-3.2345,-3.2144,-3.1864,-3.1664,-3.1664,-3.1664,-3.1744,-3.1931,-3.1797,-3.1744,-3.1944,-3.1797,-3.1664,-3.1664,-3.1664,-3.1436,-3.0849,-3.0715,-3.0408,-2.982,-2.9593,-2.9526,-2.9633,-2.9245,-2.9098,-2.9205,-2.9005,-2.8858,-2.8751,-2.8564,-2.835,-2.8221,-2.8221,-2.8221,0.0,-3.0408,-3.0996,-3.0702,-2.9606,0.0,0.0,0.0,0.0,0.0,0.0,0.0,0.0,0.0,0.0,0.0,0.0,0.0,0.0,0.0,0.0,0.0,0.0,0.0,0.0,0.0,0.0,0.0,0.0,0.0,0.0,-3.3414,-3.3414,-3.3414,-3.3414,-3.3414,-3.3414,-3.3414,-3.3414,-3.3414,-3.3414,-3.3414,-3.34,-3.3,0.0,0.0,0.0,0.0,0.0,-3.3173,-3.3414,-3.3414,-3.3414,-3.3414,-3.3414,-3.3414,-3.3414,-3.3414,-3.3414,-3.3414,-3.3414,-3.3414,-3.3414,-3.3414,-3.3414,-3.3414,-3.3414,-3.3414,-3.3414,-3.3414,-3.3414,-3.3414,-3.3387,-3.328,-3.3253,-3.3173,-3.2879,-3.2679,-3.2589,-3.2305,-3.2118,-3.1998,-3.1998,-3.1998,-3.2064,-3.2238,-3.2118,-3.2064,-3.2251,-3.2118,-3.1998,-3.1998,-3.1904,-3.1637,-3.1169,-3.1022,-3.0755,-3.0274,-2.998,-2.99,-3.0074,-2.9619,-2.9406,-2.9486,-2.9299,-2.9152,-2.9045,-2.8751,-2.8511,-2.831,-2.8274,-2.8221,0.0,0.0,0.0,0.0,0.0,0.0,0.0,0.0,0.0,0.0,0.0,0.0,0.0,0.0,0.0,0.0,0.0,0.0,0.0,0.0,0.0,0.0,0.0,0.0,0.0,0.0,0.0,0.0,0.0,0.0,0.0,-3.3414,-3.3414,-3.3414,-3.3387,-3.3387,-3.3414,-3.3414,-3.34,-3.3374,-3.3374,-3.3374,-3.336,-3.2799,0.0,0.0,0.0,0.0,0.0,-3.3173,-3.3414,-3.3414,-3.3414,-3.3414,-3.3414,-3.3414,-3.3414,-3.3414,-3.3414,-3.3414,-3.3414,-3.3414,-3.3414,-3.3414,-3.3414,-3.3414,-3.3414,-3.3414,-3.3414,-3.3414,-3.3414,-3.3414,-3.3347,-3.3066,-3.3013,-3.2933,-3.2666,-3.267,-3.2643,-3.2643,-3.2629,-3.2519,-3.2519,-3.2629,-3.2656,-3.267,-3.2656,-3.2656,-3.267,-3.2656,-3.2643,-3.2643,-3.2278,-3.1998,-3.1717,-3.141,-3.1102,-3.0808,-3.0541,-3.0381,-3.0354,-3.01,-2.9806,-2.9526,-2.9513,-2.9366,-2.9072,-2.8778,-2.8631,-2.8604,-2.8283,-2.8221,0.0,0.0,0.0,0.0,0.0,0.0,0.0,0.0,0.0,0.0,0.0,0.0,0.0,0.0,0.0,0.0,0.0,0.0,0.0,0.0,0.0,0.0,0.0,0.0,0.0,0.0,0.0,0.0,0.0,0.0,0.0,-3.3414,-3.3414,-3.3414,-3.32,-3.3187,-3.3414,-3.3414,-3.3293,-3.308,-3.308,-3.308,-3.3066,-3.2706,0.0,0.0,0.0,0.0,-3.2683,-3.3173,-3.3414,-3.3414,-3.3414,-3.3414,-3.3414,-3.3414,-3.3414,-3.3414,-3.3414,-3.3414,-3.3414,-3.3414,-3.3414,-3.3414,-3.3414,-3.3414,-3.3414,-3.3414,-3.3414,-3.3414,-3.3414,-3.3414,-3.3387,-3.332,-3.3307,-3.3293,-3.3227,-3.2866,-3.2643,-3.2643,-3.2358,-3.2211,-3.2211,-3.2398,-3.2625,-3.2839,-3.2692,-3.2625,-3.2853,-3.2679,-3.2643,-3.2643,-3.2278,-3.2078,-3.2011,-3.153,-3.1102,-3.0808,-3.0728,-3.0595,-3.0368,-3.0287,-3.0114,-2.982,-2.982,-2.9673,-2.9379,-2.9085,-2.8818,-2.8604,-2.8283,-2.8221,0.0,0.0,0.0,0.0,0.0,0.0,0.0,0.0,0.0,0.0,0.0,0.0,0.0,0.0,0.0,0.0,0.0,0.0,0.0,0.0,0.0,0.0,0.0,0.0,0.0,0.0,0.0,0.0,0.0,0.0,0.0,-3.3414,-3.3414,-3.3414,-3.3253,-3.3253,-3.3414,-3.328,-3.3133,-3.2973,-3.2973,-3.2973,-3.2959,-3.2532,-3.2492,0.0,0.0,0.0,-3.2683,-3.3173,-3.3253,-3.304,-3.3307,-3.3334,-3.3227,-3.336,-3.3414,-3.3414,-3.3414,-3.3414,-3.3414,-3.3414,-3.3414,-3.3414,-3.3414,-3.3414,-3.3414,-3.3414,-3.3414,-3.3414,-3.3414,-3.3414,-3.3414,-3.3414,-3.3414,-3.3414,-3.3414,-3.316,-3.2946,-3.2946,-3.2812,-3.2706,-3.2706,-3.2839,-3.3,-3.316,-3.304,-3.3,-3.316,-3.304,-3.2946,-3.2946,-3.2679,-3.2452,-3.2318,-3.1891,-3.1503,-3.1209,-3.1062,-3.0929,-3.0768,-3.0635,-3.0421,-3.0127,-3.0114,-2.998,-2.9686,-2.9245,-2.8965,-2.8791,-2.835,-2.8221,0.0,0.0,0.0,0.0,0.0,0.0,0.0,0.0,0.0,0.0,0.0,0.0,0.0,0.0,0.0,0.0,0.0,0.0,0.0,0.0,0.0,0.0,0.0,0.0,0.0,0.0,0.0,0.0,0.0,0.0,0.0,-3.3414,-3.3414,-3.3414,-3.332,-3.3293,-3.3347,-3.3146,-3.3,-3.2919,-3.2919,-3.2893,-3.2826,-3.2332,-3.2398,0.0,0.0,0.0,-3.2683,-3.308,-3.2986,-3.2696,-3.3093,-3.316,-3.3,-3.32,-3.3307,-3.3347,-3.3347,-3.3374,-3.3414,-3.3414,-3.3414,-3.3414,-3.3414,-3.3414,-3.3414,-3.3414,-3.3414,-3.3414,-3.3414,-3.3414,-3.3414,-3.3414,-3.3414,-3.3414,-3.3414,-3.3374,-3.3347,-3.3347,-3.3347,-3.3347,-3.3347,-3.3387,-3.3414,-3.3414,-3.3414,-3.3414,-3.3414,-3.3414,-3.3414,-3.3414,-3.3146,-3.2866,-3.267,-3.2278,-3.1984,-3.169,-3.1436,-3.1276,-3.1223,-3.0942,-3.0675,-3.0434,-3.0381,-3.0234,-2.998,-2.9392,-2.9112,-2.9085,-2.8497,-2.8301,-2.6386,-2.6573,0.0,0.0,0.0,0.0,0.0,0.0,0.0,0.0,0.0,0.0,0.0,0.0,0.0,0.0,0.0,0.0,0.0,0.0,0.0,0.0,0.0,0.0,0.0,0.0,0.0,0.0,0.0,0.0,0.0,0.0,-3.3414,-3.3414,-3.2933,-3.2799,-3.304,-3.324,-3.3093,-3.271,-3.271,-3.2478,-3.2238,-3.2144,-3.2291,0.0,0.0,-3.2643,-3.2656,-3.2639,-3.2625,-3.2656,-3.2639,-3.2799,-3.2959,-3.2746,-3.2839,-3.304,-3.304,-3.32,-3.3414,-3.3414,-3.3414,-3.3414,-3.3414,-3.3414,-3.3414,-3.3414,-3.3414,-3.3414,-3.3414,-3.3414,-3.3414,-3.3414,-3.3414,-3.3414,-3.3414,-3.3213,-3.304,-3.304,-3.304,-3.304,-3.304,-3.3253,-3.3414,-3.3414,-3.3414,-3.3414,-3.3414,-3.3414,-3.3414,-3.3414,-3.3146,-3.2866,-3.267,-3.2278,-3.1984,-3.169,-3.1623,-3.149,-3.1236,-3.0942,-3.0768,-3.0728,-3.0488,-3.0341,-3.0287,-2.97,-2.9419,-2.9406,-2.8804,-2.8537,-2.6386,-2.6493,-2.66,0.0,0.0,0.0,0.0,0.0,0.0,0.0,0.0,0.0,0.0,0.0,0.0,0.0,0.0,0.0,0.0,0.0,0.0,0.0,0.0,0.0,0.0,0.0,0.0,0.0,0.0,0.0,0.0,0.0,-3.3253,-3.3414,-3.2853,-3.2759,-3.3213,-3.3026,-3.2732,-3.2305,-3.2305,-3.2238,-3.2104,-3.1944,-3.2118,-3.2629,0.0,-3.2305,-3.2318,-3.2576,-3.2455,-3.2104,-3.2425,-3.2532,-3.2505,-3.2532,-3.2732,-3.2973,-3.2973,-3.3173,-3.3414,-3.3414,-3.3414,-3.3414,-3.3414,-3.3414,-3.3414,-3.3414,-3.3414,-3.3414,-3.3414,-3.3414,-3.3414,-3.3414,-3.3414,-3.3414,-3.3414,-3.3307,-3.3213,-3.3213,-3.3213,-3.3213,-3.3213,-3.332,-3.3414,-3.3414,-3.3414,-3.3414,-3.3414,-3.3414,-3.3414,-3.3414,-3.3293,-3.3093,-3.2799,-3.2652,-3.2318,-3.1704,-3.1664,-3.161,-3.1476,-3.133,-3.1196,-3.1036,-3.0902,-3.0675,-3.0354,-2.9927,-2.9633,-2.9472,-2.9045,-2.8845,-2.6386,-2.644,-2.6547,0.0,0.0,0.0,0.0,0.0,0.0,0.0,0.0,0.0,0.0,0.0,0.0,0.0,0.0,0.0,0.0,0.0,0.0,0.0,0.0,0.0,0.0,0.0,0.0,0.0,0.0,0.0,0.0,0.0,-3.3053,-3.32,-3.2706,-3.2652,-3.3093,-3.2599,-3.2291,-3.2211,-3.2131,-3.2064,-3.1998,-3.177,-3.1957,-3.2425,-3.2131,-3.2038,-3.2118,-3.2278,-3.2078,-3.1717,-3.2171,-3.2198,-3.2038,-3.2332,-3.2625,-3.2879,-3.2879,-3.3106,-3.3414,-3.3414,-3.3414,-3.3414,-3.3414,-3.3414,-3.3414,-3.3414,-3.3414,-3.3414,-3.3414,-3.3414,-3.3414,-3.3414,-3.3414,-3.3414,-3.3414,-3.3414,-3.3414,-3.3414,-3.3414,-3.3414,-3.3414,-3.3414,-3.3414,-3.3414,-3.3414,-3.3414,-3.3414,-3.3414,-3.3414,-3.3414,-3.3414,-3.3293,-3.3,-3.2853,-3.2492,-3.181,-3.1704,-3.1664,-3.1664,-3.1664,-3.1557,-3.133,-3.1263,-3.1009,-3.0568,-3.0261,-2.9967,-2.9686,-2.9379,-2.9205,-2.6386,-2.6587,-2.68,-2.6814,0.0,0.0,0.0,0.0,0.0,0.0,0.0,0.0,0.0,0.0,0.0,0.0,0.0,0.0,0.0,0.0,0.0,0.0,0.0,0.0,0.0,0.0,0.0,0.0,0.0,0.0,0.0,0.0,0.0,-3.2612,-3.2305,-3.2158,-3.2198,-3.1891,-3.1998,-3.2603,-3.2238,-3.1957,-3.1704,-3.1677,-3.1837,-3.2118,-3.1824,-3.1851,-3.2078,-3.1837,-3.1704,-3.1677,-3.1717,-3.1717,-3.173,-3.2024,-3.2318,-3.267,-3.267,-3.2946,-3.3414,-3.3414,-3.3414,-3.3414,-3.3414,-3.3414,-3.3414,-3.3414,-3.3414,-3.3414,-3.3414,-3.3414,-3.3414,-3.3414,-3.3414,-3.3414,-3.3414,-3.3414,-3.3414,-3.3414,-3.3414,-3.3414,-3.3414,-3.3414,-3.3414,-3.3414,-3.3414,-3.3414,-3.3414,-3.3414,-3.3414,-3.3414,-3.3414,-3.3293,-3.3,-3.2478,-3.2144,-3.2078,-3.1824,-3.1664,-3.1664,-3.1664,-3.1664,-3.1637,-3.137,-3.1209,-3.1169,-3.0875,-3.0581,-3.0287,-2.9993,-2.9713,-2.6386,-2.66,-2.6867,-2.7054,0.0,0.0,0.0,0.0,0.0,0.0,0.0,0.0,0.0,0.0,0.0,0.0,0.0,0.0,0.0,0.0,0.0,0.0,0.0,0.0,0.0,0.0,0.0,0.0,0.0,0.0,0.0,0.0,0.0,-3.2643,-3.2078,-3.2011,-3.2372,-3.1904,-3.1877,-3.2265,-3.1971,-3.177,-3.1664,-3.1664,-3.173,-3.1824,-3.1717,-3.173,-3.1824,-3.1717,-3.1664,-3.1664,-3.1664,-3.1664,-3.1677,-3.1797,-3.2024,-3.2291,-3.2478,-3.2812,-3.3173,-3.336,-3.3414,-3.3414,-3.3414,-3.3414,-3.3414,-3.3414,-3.3414,-3.3414,-3.3414,-3.3414,-3.3414,-3.3414,-3.3414,-3.3414,-3.3414,-3.3414,-3.3414,-3.3414,-3.3414,-3.3414,-3.3414,-3.3414,-3.3414,-3.3414,-3.3414,-3.3414,-3.3414,-3.3414,-3.3414,-3.3414,-3.3414,-3.3374,-3.3253,-3.2706,-3.2385,-3.2385,-3.1931,-3.1664,-3.1664,-3.1664,-3.1664,-3.1664,-3.1557,-3.141,-3.1223,-3.1116,-3.0822,-3.0354,-3.0247,-3.0034,-2.6386,-2.6533,0.0,0.0,0.0,0.0,0.0,0.0,0.0,0.0,0.0,0.0,0.0,0.0,0.0,0.0,0.0,0.0,0.0,0.0,0.0,0.0,0.0,0.0,0.0,0.0,0.0,0.0,0.0,0.0,0.0,0.0,0.0,0.0,-3.1877,-3.1864,-3.2265,-3.1877,-3.177,-3.1957,-3.1677,-3.1583,-3.1664,-3.1476,-3.149,-3.1664,-3.157,-3.1583,-3.1664,-3.1664,-3.1664,-3.1664,-3.1664,-3.1664,-3.1664,-3.1664,-3.1851,-3.2131,-3.2332,-3.2652,-3.3013,-3.3213,-3.3334,-3.3414,-3.3414,-3.3414,-3.3414,-3.3414,-3.3414,-3.3414,-3.3414,-3.3414,-3.3414,-3.3414,-3.3414,-3.3414,-3.3414,-3.3414,-3.3414,-3.3414,-3.3414,-3.3414,-3.3414,-3.3414,-3.3414,-3.3414,-3.3414,-3.3414,-3.3414,-3.3414,-3.3414,-3.3414,-3.3414,-3.3374,-3.328,-3.2826,-3.2505,-3.2412,-3.1944,-3.1664,-3.1664,-3.1664,-3.1664,-3.1664,-3.1664,-3.157,-3.137,-3.137,-3.1116,-3.0635,-3.0541,-3.0341,-2.6386,-2.6386,0.0,0.0,0.0,0.0,0.0,0.0,0.0,0.0,0.0,0.0,0.0,0.0,0.0,0.0,0.0,0.0,0.0,0.0,0.0,0.0,0.0,0.0,0.0,0.0,0.0,0.0,0.0,0.0,0.0,0.0,0.0,0.0,-3.1664,-3.1664,-3.1664,-3.1664,-3.1664,-3.1664,-3.1356,-3.1383,-3.165,-3.1062,-3.1116,-3.165,-3.1356,-3.1396,-3.1664,-3.1664,-3.1664,-3.1664,-3.1664,-3.1664,-3.1677,-3.1664,-3.1851,-3.2104,-3.2104,-3.2478,-3.2973,-3.2973,-3.3173,-3.3414,-3.3414,-3.3414,-3.3414,-3.3414,-3.3414,-3.3414,-3.3414,-3.3414,-3.3414,-3.3414,-3.3414,-3.3414,-3.3414,-3.3414,-3.3414,-3.3414,-3.3414,-3.3414,-3.3414,-3.3414,-3.3414,-3.3414,-3.3414,-3.3414,-3.3414,-3.3414,-3.3414,-3.3414,-3.3414,-3.3293,-3.3013,-3.2719,-3.2425,-3.2131,-3.1837,-3.1677,-3.1664,-3.1664,-3.1664,-3.1664,-3.1664,-3.1664,-3.1664,-3.1664,-3.1517,-3.1223,-3.0929,-3.0635,-2.6386,0.0,0.0,0.0,0.0,0.0,0.0,0.0,0.0,0.0,0.0,0.0,0.0,0.0,0.0,0.0,0.0,0.0,0.0,0.0,0.0,0.0,0.0,0.0,0.0,0.0,0.0,0.0,0.0,0.0,0.0,0.0,0.0,0.0,-3.1664,-3.157,-3.1356,-3.1356,-3.1249,-3.1049,-3.0755,-3.0982,-3.165,-3.1062,-3.1116,-3.1637,-3.1142,-3.1089,-3.1356,-3.1356,-3.1476,-3.1664,-3.1664,-3.1797,-3.1944,-3.1744,-3.1851,-3.2104,-3.2104,-3.2358,-3.2706,-3.2919,-3.3173,-3.3414,-3.3414,-3.3414,-3.3414,-3.3414,-3.3414,-3.3414,-3.3414,-3.3414,-3.3414,-3.3414,-3.3414,-3.3414,-3.3414,-3.3414,-3.3414,-3.3414,-3.3414,-3.3414,-3.3414,-3.3414,-3.3414,-3.3414,-3.3414,-3.3414,-3.3414,-3.3414,-3.3414,-3.3414,-3.3414,-3.3374,-3.3293,-3.2826,-3.2599,-3.2706,-3.2251,-3.1877,-3.1677,-3.1664,-3.1664,-3.1664,-3.1664,-3.1664,-3.1664,-3.1664,-3.1517,-3.1223,-3.0929,-3.0635,-2.656,0.0,0.0,0.0,0.0,0.0,0.0,0.0,0.0,0.0,0.0,0.0,0.0,0.0,0.0,0.0,0.0,0.0,0.0,0.0,0.0,0.0,0.0,0.0,0.0,0.0,0.0,0.0,0.0,0.0,0.0,0.0,0.0,0.0,-3.1316,-3.1236,-3.1049,-3.1049,-3.0969,-3.0795,-3.0501,-3.0702,-3.1303,-3.0715,-3.0768,-3.1303,-3.1062,-3.1062,-3.1236,-3.1356,-3.1503,-3.1664,-3.1664,-3.1784,-3.1904,-3.173,-3.1784,-3.1931,-3.1931,-3.2198,-3.267,-3.2746,-3.308,-3.3414,-3.3414,-3.3414,-3.3414,-3.3414,-3.3414,-3.3414,-3.3414,-3.3414,-3.3414,-3.3414,-3.3414,-3.3414,-3.3414,-3.3414,-3.3414,-3.3414,-3.3414,-3.3414,-3.3414,-3.3414,-3.3414,-3.3414,-3.3414,-3.3414,-3.3414,-3.3414,-3.3414,-3.3414,-3.3414,-3.336,-3.3253,-3.2919,-3.2746,-3.2799,-3.2478,-3.2198,-3.2024,-3.2011,-3.1957,-3.1837,-3.1837,-3.1784,-3.1664,-3.1664,-3.1583,-3.1396,-3.1102,-3.0875,0.0,0.0,0.0,0.0,0.0,0.0,0.0,0.0,0.0,0.0,0.0,0.0,0.0,0.0,0.0,0.0,0.0,0.0,0.0,0.0,0.0,0.0,0.0,0.0,0.0,0.0,0.0,0.0,0.0,0.0,0.0,0.0,0.0,-3.0795,-3.0795,-3.0768,-3.0715,-3.0742,-3.0715,0.0,-3.0421,-3.0448,-3.0648,-3.014,-3.0207,-3.0728,-3.1049,-3.1183,-3.1209,-3.1503,-3.1637,-3.1664,-3.1664,-3.1677,-3.1704,-3.1677,-3.169,-3.1704,-3.1704,-3.2078,-3.2643,-3.267,-3.2959,-3.3414,-3.3414,-3.3414,-3.3414,-3.3414,-3.3414,-3.3414,-3.3414,-3.3414,-3.3414,-3.3414,-3.3414,-3.3414,-3.3414,-3.3414,-3.3414,-3.3414,-3.3414,-3.3414,-3.3414,-3.3414,-3.3414,-3.3414,-3.3414,-3.3414,-3.3414,-3.3414,-3.3414,-3.3414,-3.3414,-3.3307,-3.304,-3.2986,-3.2879,-3.2737,-3.2696,-3.2696,-3.2625,-3.267,-3.2412,-3.2104,-3.2104,-3.1957,-3.1664,-3.1664,-3.1664,-3.1664,-3.1356,-3.1223,0.0,0.0,0.0,0.0,0.0,0.0,0.0,0.0,0.0,0.0,0.0,0.0,0.0,0.0,0.0,0.0,0.0,0.0,0.0,0.0,0.0,0.0,0.0,0.0,0.0,0.0,0.0,0.0,0.0,0.0,0.0,0.0,0.0,-3.0782,-3.0795,-3.0568,-3.0114,-3.0341,-3.01,0.0,-2.982,-2.9927,-2.9766,-2.9873,-2.998,-3.014,-3.0662,-3.0889,-3.0902,-3.1196,-3.1463,-3.1664,-3.1664,-3.181,-3.1984,-3.1757,-3.181,-3.2011,-3.2011,-3.2238,-3.2585,-3.2812,-3.312,-3.3414,-3.3414,-3.3414,-3.3414,-3.3414,-3.3414,-3.3414,-3.3414,-3.3414,-3.3414,-3.3414,-3.3414,-3.3414,-3.3414,-3.3414,-3.3414,-3.3414,-3.3414,-3.3414,-3.3414,-3.3414,-3.3414,-3.3414,-3.3414,-3.3414,-3.3414,-3.3414,-3.3414,-3.3414,-3.3414,-3.3387,-3.332,-3.3106,-3.3053,-3.3213,-3.3013,-3.2986,-3.3213,-3.2786,-3.2412,-3.2104,-3.2104,-3.1957,-3.1664,-3.1664,-3.1664,-3.1664,-3.1356,-3.1223,0.0,0.0,0.0,0.0,0.0,0.0,0.0,0.0,0.0,0.0,0.0,0.0,0.0,0.0,0.0,0.0,0.0,0.0,0.0,0.0,0.0,0.0,0.0,0.0,0.0,0.0,0.0,0.0,0.0,0.0,0.0,-2.9887,-2.9793,-2.9953,-2.9953,-2.9806,-2.9499,-2.9646,-2.9499,-2.9045,-2.9352,-2.9419,-2.9285,-2.9713,-2.9847,-2.974,-3.0327,-3.0581,-3.0621,-3.1049,-3.1316,-3.1476,-3.161,-3.1757,-3.1877,-3.1717,-3.177,-3.1917,-3.2051,-3.2291,-3.2599,-3.2879,-3.3173,-3.3414,-3.3414,-3.3414,-3.3414,-3.3414,-3.3414,-3.3414,-3.3414,-3.3414,-3.3414,-3.3414,-3.3414,-3.3414,-3.3414,-3.3414,-3.3414,-3.3414,-3.3414,-3.3414,-3.3414,-3.3414,-3.3414,-3.3414,-3.3414,-3.3414,-3.3414,-3.3414,-3.3414,-3.3414,-3.3414,-3.3414,-3.3414,-3.328,-3.3253,-3.34,-3.3267,-3.3253,-3.34,-3.312,-3.2759,-3.2318,-3.2318,-3.2104,-3.1664,-3.1664,-3.1664,-3.1664,-3.1517,-3.1436,0.0,0.0,0.0,0.0,0.0,0.0,0.0,0.0,0.0,0.0,0.0,0.0,0.0,0.0,0.0,0.0,0.0,0.0,0.0,0.0,0.0,0.0,0.0,0.0,0.0,0.0,0.0,0.0,0.0,0.0,-2.9406,-2.9179,-2.9045,-2.9045,-2.9045,-2.9018,-2.8965,-2.9018,-2.8991,-2.8885,-2.8938,-2.8965,-2.8978,-2.9526,-2.9659,-2.9513,-3.01,-3.0354,-3.0408,-3.0982,-3.1223,-3.1249,-3.1557,-3.1664,-3.1664,-3.1664,-3.1664,-3.1717,-3.2064,-3.2345,-3.2599,-3.2946,-3.3213,-3.3414,-3.3414,-3.3414,-3.3414,-3.3414,-3.3414,-3.3414,-3.3414,-3.3414,-3.3414,-3.3414,-3.3414,-3.3414,-3.3414,-3.3414,-3.3414,-3.3414,-3.3414,-3.3414,-3.3414,-3.3414,-3.3414,-3.3414,-3.3414,-3.3414,-3.3414,-3.3414,-3.3414,-3.3414,-3.3414,-3.3414,-3.3414,-3.3414,-3.3414,-3.3414,-3.3414,-3.3414,-3.3414,-3.3414,-3.3133,-3.2656,-3.2643,-3.2251,-3.1664,-3.1664,-3.1664,-3.1664,-3.1664,-3.1664,0.0,0.0,0.0,0.0,0.0,0.0,0.0,0.0,0.0,0.0,0.0,0.0,0.0,0.0,0.0,0.0,0.0,0.0,0.0,0.0,0.0,0.0,0.0,0.0,0.0,0.0,0.0,0.0,0.0,0.0,-2.9098,-2.9058,-2.9045,-2.9045,-2.9045,-2.8925,-2.8671,-2.8911,-2.8778,-2.8355,-2.8537,-2.8671,-2.8671,-2.9005,-2.9272,-2.9513,-3.01,-3.0354,-3.0408,-3.0982,-3.1223,-3.1249,-3.1557,-3.1664,-3.1664,-3.1664,-3.1664,-3.1744,-3.2291,-3.2519,-3.2639,-3.3173,-3.3374,-3.3414,-3.3414,-3.3414,-3.3414,-3.3414,-3.3414,-3.3414,-3.3414,-3.3414,-3.3414,-3.3414,-3.3414,-3.3414,-3.3414,-3.3414,-3.3414,-3.3414,-3.3414,-3.3414,-3.3414,-3.3414,-3.3414,-3.3414,-3.3414,-3.3414,-3.3414,-3.3414,-3.3414,-3.3414,-3.3414,-3.3414,-3.3414,-3.3414,-3.3414,-3.3414,-3.3414,-3.3414,-3.3414,-3.3414,-3.3133,-3.2656,-3.2643,-3.2251,-3.1664,-3.1664,-3.1664,-3.1664,-3.1664,-3.1664,0.0,0.0,0.0,0.0,0.0,0.0,0.0,0.0,0.0,0.0,0.0,0.0,0.0,0.0,0.0,0.0,0.0,0.0,0.0,0.0,0.0,0.0,0.0,0.0,0.0,0.0,0.0,0.0,0.0,-2.8617,-2.8791,-2.8631,-2.8537,-2.8537,-2.8537,-2.847,-2.835,-2.847,-2.8404,-2.8221,-2.8283,-2.835,-2.835,-2.8657,-2.8965,-2.9259,-2.9686,-2.9967,-3.014,-3.0568,-3.0835,-3.1009,-3.1303,-3.1517,-3.1664,-3.1664,-3.1664,-3.1757,-3.2442,-3.2643,-3.2639,-3.3227,-3.3414,-3.3414,-3.3414,-3.3414,-3.3414,-3.3414,-3.3414,-3.3414,-3.3414,-3.3414,-3.3414,-3.3414,-3.3414,-3.3414,-3.3414,-3.3414,-3.3414,-3.3414,-3.3414,-3.3414,-3.3414,-3.3414,-3.3414,-3.3414,-3.3414,-3.3414,-3.3414,-3.3414,-3.3414,-3.3414,-3.3414,-3.3414,-3.3414,-3.3414,-3.3414,-3.3414,-3.3414,-3.3414,-3.3414,-3.3414,-3.3213,-3.2799,-3.2723,-3.2251,-3.1664,-3.1664,-3.1664,-3.1664,-3.1664,-3.1664,0.0,0.0,0.0,0.0,0.0,0.0,0.0,0.0,0.0,0.0,0.0,0.0,0.0,0.0,0.0,0.0,0.0,0.0,0.0,0.0,0.0,0.0,0.0,0.0,0.0,0.0,0.0,0.0,0.0,-2.8328,-2.847,-2.827,-2.8221,-2.8221,-2.8221,-2.8221,-2.8221,-2.8221,-2.8221,-2.8221,-2.8221,-2.8221,-2.8234,-2.847,-2.8724,-2.8951,-2.9325,-2.9646,-2.994,-3.0234,-3.0488,-3.0715,-3.1089,-3.1356,-3.157,-3.1637,-3.1664,-3.1744,-3.2251,-3.2438,-3.2532,-3.3106,-3.3307,-3.332,-3.3387,-3.3414,-3.3414,-3.3414,-3.3414,-3.3414,-3.3414,-3.3414,-3.3414,-3.3414,-3.3414,-3.3414,-3.3414,-3.3414,-3.3414,-3.3414,-3.3414,-3.3414,-3.3414,-3.3414,-3.3414,-3.3414,-3.3414,-3.3414,-3.3414,-3.3414,-3.3414,-3.3414,-3.3414,-3.3414,-3.3414,-3.3414,-3.3414,-3.3414,-3.3414,-3.3414,-3.3414,-3.3414,-3.328,-3.2986,-3.2759,-3.2398,-3.1891,-3.1891,-3.1891,-3.1891,-3.181,-3.1784,0.0,0.0,0.0,0.0,0.0,0.0,0.0,0.0,0.0,0.0,0.0,0.0,0.0,0.0,0.0,0.0,0.0,0.0,0.0,0.0,0.0,0.0,0.0,0.0,0.0,0.0,0.0,0.0,0.0,-2.8234,-2.8248,-2.8234,-2.8221,-2.8221,-2.8221,-2.8221,-2.8221,-2.8221,-2.8221,-2.8221,-2.8221,-2.8221,-2.8234,-2.847,-2.8617,-2.8657,-2.9232,-2.9646,-2.994,-3.0234,-3.0368,-3.0434,-3.1009,-3.1236,-3.1276,-3.157,-3.1664,-3.1717,-3.2024,-3.2131,-3.2225,-3.2812,-3.3,-3.3053,-3.3334,-3.3414,-3.3414,-3.3414,-3.3414,-3.3414,-3.3414,-3.3414,-3.3414,-3.3414,-3.3414,-3.3414,-3.3414,-3.3414,-3.3414,-3.3414,-3.3414,-3.3414,-3.3414,-3.3414,-3.3414,-3.3414,-3.3414,-3.3414,-3.3414,-3.3414,-3.3414,-3.3414,-3.3414,-3.3414,-3.3414,-3.3414,-3.3414,-3.3414,-3.3414,-3.3414,-3.3414,-3.3414,-3.328,-3.2986,-3.2959,-3.2799,-3.2505,-3.2505,-3.2505,-3.2589,-3.2211,-3.2078,0.0,0.0,0.0,0.0,0.0,0.0,0.0,0.0,0.0,0.0,0.0,0.0,0.0,0.0,0.0,0.0,0.0,0.0,0.0,0.0,0.0,0.0,0.0,0.0,0.0,0.0,0.0,0.0,0.0,0.0,-2.8221,-2.8221,-2.8221,-2.8221,-2.8221,-2.8221,-2.8221,-2.8221,-2.8221,-2.8221,-2.8221,-2.8221,-2.8234,-2.8341,-2.8417,-2.8631,-2.9032,-2.9366,-2.9659,-2.9953,-3.0301,-3.0635,-3.0662,-3.1022,-3.1503,-3.141,-3.1503,-3.1717,-3.1998,-3.2104,-3.2198,-3.2786,-3.2973,-3.3026,-3.332,-3.3414,-3.3414,-3.3414,-3.3414,-3.3414,-3.3414,-3.3414,-3.3414,-3.3414,-3.3414,-3.3414,-3.3414,-3.3414,-3.3414,-3.3414,-3.3414,-3.3414,-3.3414,-3.3414,-3.3414,-3.3414,-3.3414,-3.3414,-3.3414,-3.3414,-3.3414,-3.3414,-3.3414,-3.3414,-3.3414,-3.3414,-3.3414,-3.3414,-3.3414,-3.3414,-3.3414,-3.3414,-3.336,-3.3253,-3.3253,-3.3026,-3.2643,-3.2643,-3.2643,-3.2643,-3.2438,-3.2385,0.0,0.0,0.0,0.0,0.0,0.0,0.0,0.0,0.0,0.0,0.0,0.0,0.0,0.0,0.0,0.0,0.0,0.0,0.0,0.0,0.0,0.0,0.0,0.0,0.0,0.0,0.0,0.0,0.0,0.0,-2.8221,-2.8221,-2.8221,-2.8221,-2.8221,-2.8221,-2.8221,-2.8221,-2.8221,-2.8221,-2.8221,-2.8221,-2.8234,-2.8243,-2.835,-2.847,-2.8871,-2.9205,-2.9499,-2.9793,-3.014,-3.0488,-3.0394,-3.0768,-3.1356,-3.1263,-3.141,-3.1704,-3.1891,-3.2024,-3.2185,-3.2679,-3.2906,-3.3026,-3.332,-3.3414,-3.3414,-3.3414,-3.3414,-3.3414,-3.3414,-3.3414,-3.3414,-3.3414,-3.3414,-3.3414,-3.3414,-3.3414,-3.3414,-3.3414,-3.3414,-3.3414,-3.3414,-3.3414,-3.3414,-3.3414,-3.3414,-3.3414,-3.3414,-3.3414,-3.3414,-3.3414,-3.3414,-3.3414,-3.3414,-3.3414,-3.3414,-3.3414,-3.3414,-3.3414,-3.3414,-3.3414,-3.3414,-3.3414,-3.3414,-3.3213,-3.2839,-3.2839,-3.2839,-3.2839,-3.2732,-3.2585,0.0,0.0,0.0,0.0,0.0,0.0,0.0,0.0,0.0,0.0,0.0,0.0,0.0,0.0,0.0,0.0,0.0,0.0,0.0,0.0,0.0,0.0,0.0,0.0,0.0,0.0,0.0,0.0,0.0,-2.8221,-2.8221,-2.8221,-2.8221,-2.8221,-2.8221,-2.8221,-2.8221,-2.8221,-2.8221,-2.8221,-2.8221,-2.8221,-2.8234,-2.8457,-2.843,-2.8261,-2.8764,-2.9192,-2.9499,-2.978,-2.9913,-2.994,-3.0234,-3.0541,-3.0835,-3.1116,-3.141,-3.1664,-3.1677,-3.1864,-3.2158,-3.2465,-3.2746,-3.3026,-3.332,-3.3414,-3.3414,-3.3414,-3.3414,-3.3414,-3.3414,-3.3414,-3.3414,-3.3414,-3.3414,-3.3414,-3.3414,-3.3414,-3.3414,-3.3414,-3.3414,-3.3414,-3.3414,-3.3414,-3.3414,-3.3414,-3.3414,-3.3414,-3.3414,-3.3414,-3.3414,-3.3414,-3.3414,-3.3414,-3.3414,-3.3414,-3.3414,-3.3414,-3.3414,-3.3414,-3.3414,-3.3414,-3.3414,-3.3414,-3.3414,-3.3414,-3.3414,-3.3414,-3.3414,-3.34,-3.312,-3.2679,-2.6386,0.0,0.0,0.0,0.0,0.0,0.0,0.0,0.0,0.0,0.0,0.0,0.0,0.0,0.0,0.0,0.0,0.0,0.0,0.0,0.0,0.0,0.0,0.0,0.0,0.0,0.0,0.0,-2.8221,-2.8221,-2.8221,-2.8221,-2.8221,-2.8221,-2.8221,-2.8221,-2.8221,-2.8221,-2.8221,-2.8221,-2.8221,-2.8221,-2.8234,-2.8315,-2.8315,-2.8248,-2.8564,-2.8898,-2.9179,-2.9486,-2.9726,-2.9927,-3.0007,-3.0474,-3.1089,-3.0955,-3.1236,-3.1704,-3.1904,-3.2038,-3.2185,-3.2692,-3.2919,-3.3026,-3.332,-3.3414,-3.3414,-3.3414,-3.3414,-3.3414,-3.3414,-3.3414,-3.3414,-3.3414,-3.3414,-3.3414,-3.3414,-3.3414,-3.3414,-3.3414,-3.3414,-3.3414,-3.3414,-3.3414,-3.3414,-3.3414,-3.3414,-3.3414,-3.3414,-3.3414,-3.3414,-3.3414,-3.3414,-3.3414,-3.3414,-3.3414,-3.3414,-3.3414,-3.3414,-3.3414,-3.3414,-3.3414,-3.3414,-3.3414,-3.3414,-3.3414,-3.3414,-3.3414,-3.3414,-3.3414,-3.3334,-3.2986,0.0,0.0,0.0,0.0,0.0,0.0,0.0,-2.7175,0.0,0.0,0.0,0.0,0.0,0.0,0.0,0.0,0.0,0.0,0.0,0.0,0.0,0.0,0.0,0.0,0.0,0.0,0.0,-2.8221,-2.8221,-2.8221,-2.8221,-2.8221,-2.8221,-2.8221,-2.8221,-2.8221,-2.8221,-2.8221,-2.8221,-2.8221,-2.8221,-2.8221,-2.8221,-2.8221,-2.8221,-2.8234,-2.8337,-2.8577,-2.8885,-2.9179,-2.9539,-2.9927,-3.0047,-3.0488,-3.1036,-3.0996,-3.1276,-3.1717,-3.1998,-3.2185,-3.2358,-3.2826,-3.3066,-3.3187,-3.336,-3.3414,-3.3414,-3.3414,-3.3414,-3.3414,-3.3414,-3.3414,-3.3414,-3.3414,-3.3414,-3.3414,-3.3414,-3.3414,-3.3414,-3.3414,-3.3414,-3.3414,-3.3414,-3.3414,-3.3414,-3.3414,-3.3414,-3.3414,-3.3414,-3.3414,-3.3414,-3.3414,-3.3414,-3.3414,-3.3414,-3.3414,-3.3414,-3.3414,-3.3414,-3.3414,-3.3414,-3.3414,-3.3414,-3.3414,-3.3414,-3.3414,-3.3414,-3.3414,-3.3347,-3.3227,-3.3106,-3.2799,0.0,0.0,0.0,0.0,0.0,0.0,-2.7068,-2.6987,-2.6894,0.0,0.0,0.0,0.0,0.0,0.0,0.0,0.0,0.0,0.0,0.0,0.0,0.0,0.0,0.0,0.0,-2.8221,-2.8221,-2.8221,-2.8221,-2.8221,-2.8221,-2.8221,-2.8221,-2.8221,-2.8221,-2.8221,-2.8221,-2.8221,-2.8221,-2.8221,-2.8221,-2.8221,-2.8221,-2.8221,-2.8221,-2.8221,-2.8221,-2.8337,-2.8671,-2.8938,-2.9366,-2.99,-3.0234,-3.0541,-3.0822,-3.1116,-3.1436,-3.1757,-3.2051,-3.2345,-3.2639,-3.2933,-3.32,-3.3414,-3.3414,-3.3414,-3.3414,-3.3414,-3.3414,-3.3414,-3.3414,-3.3414,-3.3414,-3.3414,-3.3414,-3.3414,-3.3414,-3.3414,-3.3414,-3.3414,-3.3414,-3.3414,-3.3414,-3.3414,-3.3414,-3.3414,-3.3414,-3.3414,-3.3414,-3.3414,-3.3414,-3.3414,-3.3414,-3.3414,-3.3414,-3.3414,-3.3414,-3.3414,-3.3414,-3.3414,-3.3414,-3.3414,-3.3414,-3.3414,-3.3414,-3.3414,-3.3414,-3.3414,-3.324,-3.2919,-3.2692,-3.2412,0.0,0.0,0.0,0.0,0.0,0.0,-2.664,-2.6694,-2.6841,0.0,0.0,0.0,0.0,0.0,0.0,0.0,0.0,0.0,0.0,0.0,0.0,0.0,0.0,0.0,0.0,-2.8221,-2.8221,-2.8221,-2.8221,-2.8221,-2.8221,-2.8221,-2.8221,-2.8221,-2.8221,-2.8221,-2.8221,-2.8221,-2.8221,-2.8221,-2.8221,-2.8221,-2.8221,-2.8221,-2.8221,-2.8221,-2.8221,-2.8457,-2.8965,-2.9018,-2.9245,-2.9619,-3.0154,-3.0541,-3.0822,-3.1116,-3.1557,-3.2064,-3.2358,-3.2652,-3.2946,-3.3227,-3.336,-3.3414,-3.3414,-3.3414,-3.3414,-3.3414,-3.3414,-3.3414,-3.3414,-3.3414,-3.3414,-3.3414,-3.3414,-3.3414,-3.3414,-3.3414,-3.3414,-3.3414,-3.3414,-3.3414,-3.3414,-3.3414,-3.3414,-3.3414,-3.3414,-3.3414,-3.3414,-3.3414,-3.3414,-3.3414,-3.3414,-3.3414,-3.3414,-3.3414,-3.3414,-3.3414,-3.3414,-3.3414,-3.3414,-3.3414,-3.3414,-3.3414,-3.3414,-3.3414,-3.3414,-3.3414,-3.3146,-3.2639,-3.2812,-3.2612,0.0,0.0,0.0,-2.7041,0.0,0.0,0.0,-2.66,-2.66,0.0,0.0,0.0,0.0,0.0,0.0,0.0,0.0,0.0,0.0,0.0,0.0,0.0,0.0,0.0,0.0,-2.7923,-2.7989,-2.8221,-2.8221,-2.8221,-2.8221,-2.8221,-2.8221,-2.8221,-2.8221,-2.8221,-2.8221,-2.8221,-2.8221,-2.8221,-2.8221,-2.8221,-2.8221,-2.8221,-2.8221,-2.8221,-2.8221,-2.8484,-2.9045,-2.9045,-2.9299,-2.9753,-3.0341,-3.0662,-3.0849,-3.1289,-3.1637,-3.1944,-3.2398,-3.2737,-3.2839,-3.3267,-3.3414,-3.3414,-3.3414,-3.3414,-3.3414,-3.3414,-3.3414,-3.3414,-3.3414,-3.3414,-3.3414,-3.3414,-3.3414,-3.3414,-3.3414,-3.3414,-3.3414,-3.3414,-3.3414,-3.3414,-3.3414,-3.3414,-3.3414,-3.3414,-3.3414,-3.3414,-3.3414,-3.3414,-3.3414,-3.3414,-3.3414,-3.3414,-3.3414,-3.3414,-3.3414,-3.3414,-3.3414,-3.3414,-3.3414,-3.3414,-3.3414,-3.3414,-3.3414,-3.3414,-3.3414,-3.3414,-3.3187,-3.2759,-3.2906,-3.2746,0.0,0.0,0.0,0.0,0.0,-2.7028,0.0,0.0,0.0,0.0,0.0,0.0,0.0,0.0,0.0,0.0,0.0,0.0,0.0,0.0,0.0,0.0,0.0,0.0,0.0,-2.7696,-2.7802,-2.8043,-2.8194,-2.8221,-2.8221,-2.8221,-2.8221,-2.8221,-2.8221,-2.8221,-2.8221,-2.8221,-2.8221,-2.8221,-2.8221,-2.8221,-2.8221,-2.8221,-2.8221,-2.8221,-2.8221,-2.8484,-2.9045,-2.9045,-2.9392,-2.998,-3.0568,-3.0795,-3.0862,-3.145,-3.1704,-3.1824,-3.2358,-3.2585,-3.2719,-3.324,-3.3414,-3.3414,-3.3414,-3.3414,-3.3414,-3.3414,-3.3414,-3.3414,-3.3414,-3.3414,-3.3414,-3.3414,-3.3414,-3.3414,-3.3414,-3.3414,-3.3414,-3.3414,-3.3414,-3.3414,-3.3414,-3.3414,-3.3414,-3.3414,-3.3414,-3.3414,-3.3414,-3.3414,-3.3414,-3.3414,-3.3414,-3.3414,-3.3414,-3.3414,-3.3414,-3.3414,-3.3414,-3.3414,-3.3414,-3.3414,-3.3414,-3.3414,-3.3414,-3.3414,-3.3414,-3.3414,-3.3267,-3.2973,-3.2973,-3.2826,0.0,0.0,0.0,0.0,-2.7816,0.0,0.0,0.0,-2.7014,0.0,0.0,0.0,0.0,0.0,0.0,0.0,0.0,0.0,0.0,0.0,0.0,0.0,0.0,0.0,0.0,0.0,-2.7709,-2.7749,-2.7989,-2.8221,-2.8221,-2.8221,-2.8221,-2.8221,-2.8221,-2.8221,-2.8221,-2.8221,-2.8221,-2.8221,-2.8221,-2.8221,-2.8221,-2.8221,-2.8221,-2.8221,-2.8221,-2.8484,-2.9045,-2.9045,-2.9392,-2.998,-3.0568,-3.0795,-3.0862,-3.145,-3.1837,-3.2104,-3.2425,-3.2719,-3.2986,-3.3307,-3.3414,-3.3414,-3.3414,-3.3414,-3.3414,-3.3414,-3.3414,-3.3414,-3.3414,-3.3414,-3.3414,-3.3414,-3.3414,-3.3414,-3.3414,-3.3414,-3.3414,-3.3414,-3.3414,-3.3414,-3.3414,-3.3414,-3.3414,-3.3414,-3.3414,-3.3414,-3.3414,-3.3414,-3.3414,-3.3414,-3.3414,-3.3414,-3.3414,-3.3414,-3.3414,-3.3414,-3.3414,-3.3414,-3.3414,-3.3414,-3.3414,-3.3414,-3.3414,-3.3414,-3.3414,-3.3414,-3.3267,-3.2973,-3.2973,-3.2826,0.0,0.0,0.0,0.0,0.0,0.0,-2.7201,0.0,-2.6894,0.0,0.0,0.0,0.0,0.0,0.0,0.0,0.0,0.0,0.0,0.0,0.0,0.0,0.0,0.0,0.0,0.0,0.0,0.0,0.0,-2.7883,-2.7883,-2.7883,-2.7963,-2.8221,-2.8221,-2.8221,-2.8221,-2.8221,-2.8221,-2.8221,-2.8221,-2.8221,-2.8221,-2.8221,-2.8221,-2.8234,-2.8337,-2.8657,-2.9072,-2.9406,-2.9793,-3.0234,-3.0822,-3.0942,-3.0862,-3.145,-3.1744,-3.1891,-3.2185,-3.2478,-3.2799,-3.3267,-3.3414,-3.3414,-3.3414,-3.3414,-3.3414,-3.3414,-3.3414,-3.3414,-3.3414,-3.3414,-3.3414,-3.3414,-3.3414,-3.3414,-3.3414,-3.3414,-3.3414,-3.3414,-3.3414,-3.3414,-3.3414,-3.3414,-3.3414,-3.3414,-3.3414,-3.3414,-3.3414,-3.3414,-3.3414,-3.3414,-3.3414,-3.3414,-3.3414,-3.3414,-3.3414,-3.3414,-3.3414,-3.3414,-3.3414,-3.3414,-3.3414,-3.3414,-3.3414,-3.3414,-3.3414,-3.3414,-3.3347,-3.3227,-3.3227,-3.316,-2.8221,0.0,0.0,0.0,0.0,0.0,0.0,0.0,0.0,0.0,0.0,0.0,0.0,0.0,0.0,0.0,0.0,0.0,0.0,0.0,0.0,0.0,0.0,0.0,0.0,0.0,0.0,0.0,-2.7535,-2.7696,-2.7696,-2.7696,-2.7829,-2.8221,-2.8221,-2.8221,-2.8221,-2.8221,-2.8221,-2.8221,-2.8221,-2.8221,-2.8221,-2.8221,-2.8221,-2.8248,-2.847,-2.8778,-2.9085,-2.9673,-3.0087,-3.0421,-3.0996,-3.1089,-3.0969,-3.1476,-3.177,-3.1944,-3.2158,-3.2465,-3.2853,-3.328,-3.3414,-3.3414,-3.3414,-3.3414,-3.3414,-3.3414,-3.3414,-3.3414,-3.3414,-3.3414,-3.3414,-3.3414,-3.3414,-3.3414,-3.3414,-3.3414,-3.3414,-3.3414,-3.3414,-3.3414,-3.3414,-3.3414,-3.3414,-3.3414,-3.3414,-3.3414,-3.3414,-3.3414,-3.3414,-3.3414,-3.3414,-3.3414,-3.3414,-3.3414,-3.3414,-3.3414,-3.3414,-3.3414,-3.3414,-3.3414,-3.3414,-3.3414,-3.3414,-3.3414,-3.3414,-3.3414,-3.3414,-3.3414,-3.3414,-3.3414,0.0,0.0,0.0,-2.8221,0.0,0.0,0.0,0.0,-2.7589,0.0,0.0,0.0,0.0,0.0,0.0,0.0,0.0,0.0,0.0,0.0,0.0,0.0,0.0,0.0,0.0,0.0,0.0,-2.7281,-2.7535,-2.7696,-2.7696,-2.7696,-2.7829,-2.8221,-2.8221,-2.8221,-2.8221,-2.8221,-2.8221,-2.8221,-2.8221,-2.8221,-2.8221,-2.8221,-2.8221,-2.8248,-2.847,-2.8778,-2.9085,-2.9673,-3.0087,-3.0421,-3.0996,-3.1223,-3.1249,-3.1557,-3.2024,-3.2616,-3.2629,-3.2906,-3.3387,-3.34,-3.3414,-3.3414,-3.3414,-3.3414,-3.3414,-3.3414,-3.3414,-3.3414,-3.3414,-3.3414,-3.3414,-3.3414,-3.3414,-3.3414,-3.3414,-3.3414,-3.3414,-3.3414,-3.3414,-3.3414,-3.3414,-3.3414,-3.3414,-3.3414,-3.3414,-3.3414,-3.3414,-3.3414,-3.3414,-3.3414,-3.3414,-3.3414,-3.3414,-3.3414,-3.3414,-3.3414,-3.3414,-3.3414,-3.3414,-3.3414,-3.3414,-3.3414,-3.3414,-3.3414,-3.3414,-3.3414,-3.3414,-3.3414,-3.3414,-3.3414,0.0,0.0,-2.8698,-2.8497,0.0,0.0,0.0,0.0,0.0,0.0,0.0,0.0,0.0,0.0,0.0,0.0,0.0,0.0,0.0,0.0,0.0,0.0,0.0,0.0,0.0,0.0,0.0,-2.644,-2.6667,-2.6827,0.0,-2.7201,-2.7549,-2.7843,-2.8043,-2.8221,-2.8221,-2.8221,-2.8221,-2.8221,-2.8221,-2.8221,-2.8221,-2.8221,-2.8341,-2.847,-2.8764,-2.9165,-2.9659,-3.0247,-3.0675,-3.0969,-3.137,-3.1757,-3.2091,-3.1984,-3.2078,-3.2305,-3.2692,-3.2959,-3.316,-3.3347,-3.3414,-3.3414,-3.3414,-3.3414,-3.3414,-3.3414,-3.3414,-3.3414,-3.3414,-3.3414,-3.3414,-3.3414,-3.3414,-3.3414,-3.3414,-3.3414,-3.3414,-3.3414,-3.3414,-3.3414,-3.3414,-3.3414,-3.3414,-3.3414,-3.3414,-3.3414,-3.3414,-3.3414,-3.3414,-3.3414,-3.3414,-3.3414,-3.3414,-3.3414,-3.3414,-3.3414,-3.3414,-3.3414,-3.3414,-3.3414,-3.3414,-3.3414,-3.3414,-3.3414,-3.3414,-3.3414,-3.3414,-3.3414,-3.3414,-3.3414,-2.847,-2.8657,0.0,-2.8511,-2.8444,0.0,-2.7949,0.0,0.0,0.0,0.0,0.0,0.0,0.0,0.0,0.0,0.0,0.0,0.0,0.0,0.0,0.0,0.0,0.0,0.0,0.0,-2.6734,-2.6159,-2.6373,-2.6493,0.0,0.0,-2.7295,-2.7682,-2.7883,-2.8114,-2.8221,-2.8221,-2.8221,-2.8221,-2.8221,-2.8221,-2.8221,-2.8221,-2.831,-2.8617,-2.8911,-2.9366,-2.9967,-3.0555,-3.0969,-3.1249,-3.1557,-3.1904,-3.2225,-3.2131,-3.2238,-3.2478,-3.2959,-3.3133,-3.316,-3.3347,-3.3414,-3.3414,-3.3414,-3.3414,-3.3387,-3.328,-3.3334,-3.3387,-3.328,-3.3334,-3.3414,-3.3414,-3.3414,-3.3414,-3.3414,-3.3414,-3.3414,-3.3414,-3.3414,-3.3414,-3.3414,-3.3414,-3.3414,-3.3414,-3.3414,-3.3414,-3.3414,-3.3414,-3.3414,-3.3414,-3.3414,-3.3414,-3.3414,-3.3414,-3.3414,-3.3414,-3.3414,-3.3414,-3.3414,-3.3414,-3.3654,-3.4189,-3.3681,-3.3668,-3.4202,-3.3668,-3.3414,-3.3414,-3.3414,-3.3414]}]]